Wetterdaten: Sonntag, 14.02.2016
Datum Zeit Auen-Temp. Temp gefhlt Luftfeuchte Luftdruck Regen Wind Richtung Richtung Sonnenschein Taupunkt Windben
14.02.2016 00:00 5,3 C 5,1 C 61 % 992,1 hPa 0,0 mm 2,1 km/h (1 Bft) S-SO 157 0 min -1,6 C 0,0 km/h (0 Bft)
14.02.2016 00:01 5,1 C 5,0 C 61 % 992,1 hPa 0,0 mm 1,8 km/h (1 Bft) O 90 0 min -1,8 C 0,0 km/h (0 Bft)
14.02.2016 00:02 5,1 C 5,0 C 61 % 992,1 hPa 0,0 mm 1,8 km/h (1 Bft) O 90 0 min -1,8 C 0,0 km/h (0 Bft)
14.02.2016 00:03 5,1 C 5,0 C 61 % 991,8 hPa 0,0 mm 1,8 km/h (1 Bft) O 90 0 min -1,8 C 0,0 km/h (0 Bft)
14.02.2016 00:04 5,1 C 5,0 C 61 % 991,8 hPa 0,0 mm 1,8 km/h (1 Bft) O 90 0 min -1,8 C 0,0 km/h (0 Bft)
14.02.2016 00:05 5,2 C 5,0 C 59 % 991,8 hPa 0,0 mm 2,1 km/h (1 Bft) SW 225 0 min -2,1 C 8,9 km/h (2 Bft)
14.02.2016 00:06 5,2 C 5,0 C 59 % 991,8 hPa 0,0 mm 2,1 km/h (1 Bft) SW 225 0 min -2,1 C 8,9 km/h (2 Bft)
14.02.2016 00:07 5,4 C 5,2 C 59 % 991,8 hPa 0,0 mm 1,8 km/h (1 Bft) O-SO 112 0 min -2,0 C 0,0 km/h (0 Bft)
14.02.2016 00:08 5,4 C 5,2 C 59 % 991,8 hPa 0,0 mm 1,8 km/h (1 Bft) O-SO 112 0 min -2,0 C 0,0 km/h (0 Bft)
14.02.2016 00:09 5,3 C 5,1 C 59 % 991,8 hPa 0,0 mm 1,2 km/h (1 Bft) O 90 0 min -2,0 C 0,0 km/h (0 Bft)
14.02.2016 00:10 5,3 C 5,1 C 59 % 991,8 hPa 0,0 mm 1,2 km/h (1 Bft) O 90 0 min -2,0 C 0,0 km/h (0 Bft)
14.02.2016 00:11 5,0 C 4,9 C 59 % 991,8 hPa 0,0 mm 1,5 km/h (1 Bft) W-SW 247 0 min -2,3 C 4,5 km/h (1 Bft)
14.02.2016 00:12 5,0 C 4,9 C 59 % 991,8 hPa 0,0 mm 1,5 km/h (1 Bft) W-SW 247 0 min -2,3 C 4,5 km/h (1 Bft)
14.02.2016 00:13 5,1 C 5,0 C 59 % 991,8 hPa 0,0 mm 2,7 km/h (1 Bft) SO 135 0 min -2,2 C 7,7 km/h (2 Bft)
14.02.2016 00:14 5,1 C 5,0 C 59 % 991,8 hPa 0,0 mm 2,7 km/h (1 Bft) SO 135 0 min -2,2 C 8,9 km/h (2 Bft)
14.02.2016 00:15 5,3 C 5,1 C 59 % 991,8 hPa 0,0 mm 3,3 km/h (1 Bft) O-NO 67 0 min -2,0 C 9,2 km/h (2 Bft)
14.02.2016 00:16 5,3 C 5,1 C 59 % 991,8 hPa 0,0 mm 3,3 km/h (1 Bft) O-NO 67 0 min -2,0 C 9,2 km/h (2 Bft)
14.02.2016 00:17 5,0 C 4,9 C 59 % 991,8 hPa 0,0 mm 3,3 km/h (1 Bft) N-NW 337 0 min -2,3 C 8,9 km/h (2 Bft)
14.02.2016 00:18 5,0 C 4,9 C 59 % 991,8 hPa 0,0 mm 3,3 km/h (1 Bft) N-NW 337 0 min -2,3 C 8,9 km/h (2 Bft)
14.02.2016 00:19 5,1 C 5,0 C 59 % 991,8 hPa 0,0 mm 3,3 km/h (1 Bft) O-NO 67 0 min -2,2 C 0,0 km/h (0 Bft)
14.02.2016 00:20 5,1 C 5,0 C 59 % 991,8 hPa 0,0 mm 3,3 km/h (1 Bft) O-NO 67 0 min -2,2 C 0,0 km/h (0 Bft)
14.02.2016 00:21 5,0 C 4,9 C 59 % 991,8 hPa 0,0 mm 3,6 km/h (1 Bft) S-SW 202 0 min -2,3 C 5,1 km/h (1 Bft)
14.02.2016 00:22 5,0 C 4,9 C 59 % 991,8 hPa 0,0 mm 3,6 km/h (1 Bft) S-SW 202 0 min -2,3 C 5,1 km/h (1 Bft)
14.02.2016 00:23 5,1 C 5,0 C 59 % 991,7 hPa 0,0 mm 4,2 km/h (1 Bft) W 270 0 min -2,2 C 4,2 km/h (1 Bft)
14.02.2016 00:24 5,1 C 5,0 C 59 % 991,7 hPa 0,0 mm 4,2 km/h (1 Bft) W 270 0 min -2,2 C 9,8 km/h (2 Bft)
14.02.2016 00:25 5,2 C 5,1 C 59 % 991,7 hPa 0,0 mm 4,2 km/h (1 Bft) O-NO 67 0 min -2,1 C 19,4 km/h (3 Bft)
14.02.2016 00:26 5,2 C 5,1 C 59 % 991,7 hPa 0,0 mm 4,2 km/h (1 Bft) O-NO 67 0 min -2,1 C 19,4 km/h (3 Bft)
14.02.2016 00:27 5,2 C 5,1 C 59 % 991,7 hPa 0,0 mm 3,6 km/h (1 Bft) W-SW 247 0 min -2,1 C 5,1 km/h (1 Bft)
14.02.2016 00:28 5,2 C 5,1 C 59 % 991,7 hPa 0,0 mm 3,6 km/h (1 Bft) W-SW 247 0 min -2,1 C 5,1 km/h (1 Bft)
14.02.2016 00:29 5,3 C 5,3 C 59 % 991,7 hPa 0,0 mm 3,9 km/h (1 Bft) NW 315 0 min -2,0 C 3,9 km/h (1 Bft)
14.02.2016 00:30 5,3 C 5,3 C 59 % 991,7 hPa 0,0 mm 3,9 km/h (1 Bft) NW 315 0 min -2,0 C 3,9 km/h (1 Bft)
14.02.2016 00:31 5,2 C 5,3 C 59 % 991,7 hPa 0,0 mm 3,9 km/h (1 Bft) W-NW 292 0 min -2,1 C 0,0 km/h (0 Bft)
14.02.2016 00:32 5,2 C 5,3 C 59 % 991,7 hPa 0,0 mm 3,9 km/h (1 Bft) W-NW 292 0 min -2,1 C 0,0 km/h (0 Bft)
14.02.2016 00:33 5,2 C 5,3 C 59 % 991,7 hPa 0,0 mm 3,3 km/h (1 Bft) SW 225 0 min -2,1 C 3,0 km/h (1 Bft)
14.02.2016 00:34 5,2 C 5,3 C 59 % 991,7 hPa 0,0 mm 3,3 km/h (1 Bft) SW 225 0 min -2,1 C 19,4 km/h (3 Bft)
14.02.2016 00:35 5,4 C 5,4 C 58 % 991,7 hPa 0,0 mm 3,3 km/h (1 Bft) SW 225 0 min -2,2 C 3,3 km/h (1 Bft)
14.02.2016 00:36 5,4 C 5,4 C 58 % 991,7 hPa 0,0 mm 3,3 km/h (1 Bft) SW 225 0 min -2,2 C 3,3 km/h (1 Bft)
14.02.2016 00:37 5,4 C 5,4 C 58 % 991,7 hPa 0,0 mm 2,7 km/h (1 Bft) W 270 0 min -2,2 C 6,3 km/h (2 Bft)
14.02.2016 00:38 5,4 C 5,4 C 58 % 991,7 hPa 0,0 mm 2,7 km/h (1 Bft) W 270 0 min -2,2 C 6,3 km/h (2 Bft)
14.02.2016 00:39 5,2 C 5,5 C 58 % 991,7 hPa 0,0 mm 3,9 km/h (1 Bft) W 270 0 min -2,4 C 9,2 km/h (2 Bft)
14.02.2016 00:40 5,2 C 5,5 C 58 % 991,7 hPa 0,0 mm 3,9 km/h (1 Bft) W 270 0 min -2,4 C 9,2 km/h (2 Bft)
14.02.2016 00:41 4,9 C 5,4 C 59 % 991,7 hPa 0,0 mm 5,1 km/h (1 Bft) W 270 0 min -2,4 C 14,0 km/h (3 Bft)
14.02.2016 00:42 4,9 C 5,4 C 59 % 991,7 hPa 0,0 mm 5,1 km/h (1 Bft) W 270 0 min -2,4 C 14,0 km/h (3 Bft)
14.02.2016 00:43 4,8 C 5,1 C 59 % 992,6 hPa 0,0 mm 6,3 km/h (2 Bft) W-NW 292 0 min -2,5 C 15,5 km/h (3 Bft)
14.02.2016 00:44 4,8 C 5,1 C 59 % 992,6 hPa 0,0 mm 6,3 km/h (2 Bft) W-NW 292 0 min -2,5 C 35,2 km/h (5 Bft)
14.02.2016 00:45 5,2 C 5,0 C 59 % 992,6 hPa 0,0 mm 8,6 km/h (2 Bft) W 270 0 min -2,1 C 20,3 km/h (4 Bft)
14.02.2016 00:46 5,2 C 5,0 C 59 % 992,6 hPa 0,0 mm 8,6 km/h (2 Bft) W 270 0 min -2,1 C 20,3 km/h (4 Bft)
14.02.2016 00:48 5,4 C 4,9 C 59 % 992,6 hPa 0,0 mm 11,3 km/h (2 Bft) NW 315 0 min -2,0 C 25,3 km/h (4 Bft)
14.02.2016 00:49 5,7 C 5,2 C 59 % 992,6 hPa 0,0 mm 16,7 km/h (3 Bft) W-SW 247 0 min -1,7 C 46,5 km/h (6 Bft)
14.02.2016 00:50 5,7 C 5,0 C 59 % 992,6 hPa 0,0 mm 16,7 km/h (3 Bft) W-SW 247 0 min -1,7 C 46,5 km/h (6 Bft)
14.02.2016 00:51 5,7 C 5,2 C 59 % 992,6 hPa 0,0 mm 20,0 km/h (4 Bft) W-SW 247 0 min -1,7 C 32,8 km/h (5 Bft)
14.02.2016 00:52 5,7 C 4,9 C 59 % 992,6 hPa 0,0 mm 20,0 km/h (4 Bft) W-SW 247 0 min -1,7 C 32,8 km/h (5 Bft)
14.02.2016 00:53 5,6 C 5,0 C 61 % 992,6 hPa 0,0 mm 23,8 km/h (4 Bft) W 270 0 min -1,3 C 45,6 km/h (6 Bft)
14.02.2016 00:54 5,6 C 4,7 C 61 % 992,6 hPa 0,0 mm 23,8 km/h (4 Bft) W 270 0 min -1,3 C 46,5 km/h (6 Bft)
14.02.2016 00:55 5,6 C 4,9 C 62 % 992,6 hPa 0,0 mm 26,5 km/h (4 Bft) W-NW 292 0 min -1,1 C 34,0 km/h (5 Bft)
14.02.2016 00:56 5,6 C 4,5 C 62 % 992,6 hPa 0,0 mm 26,5 km/h (4 Bft) W-NW 292 0 min -1,1 C 34,0 km/h (5 Bft)
14.02.2016 00:57 5,5 C 4,8 C 63 % 992,6 hPa 0,0 mm 27,1 km/h (4 Bft) W 270 0 min -1,0 C 36,1 km/h (5 Bft)
14.02.2016 00:58 5,5 C 4,4 C 63 % 992,6 hPa 0,0 mm 27,1 km/h (4 Bft) W 270 0 min -1,0 C 36,1 km/h (5 Bft)
14.02.2016 00:59 5,4 C 4,7 C 63 % 992,6 hPa 0,0 mm 25,9 km/h (4 Bft) NW 315 0 min -1,1 C 28,0 km/h (4 Bft)
14.02.2016 01:00 5,4 C 4,3 C 63 % 992,6 hPa 0,0 mm 25,9 km/h (4 Bft) NW 315 0 min -1,1 C 28,0 km/h (4 Bft)
14.02.2016 01:01 5,3 C 4,7 C 64 % 992,6 hPa 0,0 mm 22,7 km/h (4 Bft) NW 315 0 min -0,9 C 16,7 km/h (3 Bft)
14.02.2016 01:02 5,3 C 4,4 C 64 % 992,6 hPa 0,0 mm 22,7 km/h (4 Bft) NW 315 0 min -0,9 C 16,7 km/h (3 Bft)
14.02.2016 01:03 5,3 C 4,4 C 64 % 993,0 hPa 0,0 mm 21,8 km/h (4 Bft) W 270 0 min -0,9 C 22,1 km/h (4 Bft)
14.02.2016 01:04 5,3 C 4,4 C 64 % 993,0 hPa 0,0 mm 21,8 km/h (4 Bft) W 270 0 min -0,9 C 22,1 km/h (4 Bft)
14.02.2016 01:05 5,2 C 4,6 C 65 % 993,0 hPa 0,0 mm 19,4 km/h (3 Bft) SW 225 0 min -0,8 C 15,2 km/h (3 Bft)
14.02.2016 01:06 5,2 C 4,4 C 65 % 993,0 hPa 0,0 mm 19,4 km/h (3 Bft) SW 225 0 min -0,8 C 15,2 km/h (3 Bft)
14.02.2016 01:07 5,1 C 4,6 C 65 % 993,0 hPa 0,0 mm 16,1 km/h (3 Bft) W 270 0 min -0,9 C 8,9 km/h (2 Bft)
14.02.2016 01:08 5,1 C 4,4 C 65 % 993,0 hPa 0,0 mm 16,1 km/h (3 Bft) W 270 0 min -0,9 C 8,9 km/h (2 Bft)
14.02.2016 01:09 5,0 C 4,4 C 65 % 993,0 hPa 0,0 mm 13,7 km/h (3 Bft) W 270 0 min -1,0 C 18,5 km/h (3 Bft)
14.02.2016 01:10 5,0 C 4,4 C 65 % 993,0 hPa 0,0 mm 13,7 km/h (3 Bft) W 270 0 min -1,0 C 18,5 km/h (3 Bft)
14.02.2016 01:11 5,0 C 4,4 C 65 % 993,0 hPa 0,0 mm 13,4 km/h (3 Bft) W-NW 292 0 min -1,0 C 28,6 km/h (4 Bft)
14.02.2016 01:12 5,0 C 4,4 C 65 % 993,0 hPa 0,0 mm 13,4 km/h (3 Bft) W-NW 292 0 min -1,0 C 28,6 km/h (4 Bft)
14.02.2016 01:13 4,9 C 4,3 C 66 % 993,0 hPa 0,0 mm 12,8 km/h (3 Bft) W 270 0 min -0,9 C 19,1 km/h (3 Bft)
14.02.2016 01:14 4,9 C 4,3 C 66 % 993,0 hPa 0,0 mm 12,8 km/h (3 Bft) W 270 0 min -0,9 C 19,1 km/h (3 Bft)
14.02.2016 01:15 4,9 C 4,3 C 66 % 993,0 hPa 0,0 mm 12,2 km/h (2 Bft) SW 225 0 min -0,9 C 16,7 km/h (3 Bft)
14.02.2016 01:16 4,9 C 4,3 C 66 % 993,0 hPa 0,0 mm 12,2 km/h (2 Bft) SW 225 0 min -0,9 C 16,7 km/h (3 Bft)
14.02.2016 01:17 4,9 C 4,3 C 66 % 993,0 hPa 0,0 mm 12,2 km/h (2 Bft) W-NW 292 0 min -0,9 C 17,9 km/h (3 Bft)
14.02.2016 01:18 4,9 C 4,3 C 66 % 993,0 hPa 0,0 mm 12,2 km/h (2 Bft) W-NW 292 0 min -0,9 C 17,9 km/h (3 Bft)
14.02.2016 01:19 4,9 C 4,3 C 66 % 993,0 hPa 0,0 mm 12,5 km/h (3 Bft) O 90 0 min -0,9 C 10,7 km/h (2 Bft)
14.02.2016 01:20 4,9 C 4,3 C 66 % 993,0 hPa 0,0 mm 12,5 km/h (3 Bft) O 90 0 min -0,9 C 10,7 km/h (2 Bft)
14.02.2016 01:21 4,7 C 4,2 C 66 % 993,0 hPa 0,0 mm 11,6 km/h (2 Bft) S 180 0 min -1,1 C 4,2 km/h (1 Bft)
14.02.2016 01:22 4,7 C 4,2 C 66 % 993,0 hPa 0,0 mm 11,6 km/h (2 Bft) S 180 0 min -1,1 C 4,2 km/h (1 Bft)
14.02.2016 01:23 4,5 C 4,1 C 66 % 992,3 hPa 0,0 mm 10,4 km/h (2 Bft) S 180 0 min -1,3 C 5,4 km/h (1 Bft)
14.02.2016 01:24 4,5 C 4,1 C 66 % 992,3 hPa 0,0 mm 10,4 km/h (2 Bft) S 180 0 min -1,3 C 5,4 km/h (1 Bft)
14.02.2016 01:25 4,5 C 4,1 C 66 % 992,3 hPa 0,0 mm 9,2 km/h (2 Bft) W 270 0 min -1,3 C 8,0 km/h (2 Bft)
14.02.2016 01:26 4,5 C 4,1 C 66 % 992,3 hPa 0,0 mm 9,2 km/h (2 Bft) W 270 0 min -1,3 C 8,0 km/h (2 Bft)
14.02.2016 01:27 4,4 C 4,1 C 67 % 992,3 hPa 0,0 mm 8,0 km/h (2 Bft) W-SW 247 0 min -1,2 C 11,3 km/h (2 Bft)
14.02.2016 01:28 4,4 C 4,1 C 67 % 992,3 hPa 0,0 mm 8,0 km/h (2 Bft) W-SW 247 0 min -1,2 C 11,3 km/h (2 Bft)
14.02.2016 01:29 4,4 C 4,2 C 67 % 992,3 hPa 0,0 mm 7,2 km/h (2 Bft) W 270 0 min -1,2 C 10,4 km/h (2 Bft)
14.02.2016 01:30 4,4 C 4,2 C 67 % 992,3 hPa 0,0 mm 7,2 km/h (2 Bft) W 270 0 min -1,2 C 10,4 km/h (2 Bft)
14.02.2016 01:31 4,3 C 4,1 C 67 % 992,3 hPa 0,0 mm 6,9 km/h (2 Bft) W-NW 292 0 min -1,3 C 9,8 km/h (2 Bft)
14.02.2016 01:32 4,3 C 4,1 C 67 % 992,3 hPa 0,0 mm 6,9 km/h (2 Bft) W-NW 292 0 min -1,3 C 9,8 km/h (2 Bft)
14.02.2016 01:33 4,3 C 4,0 C 67 % 992,3 hPa 0,0 mm 7,5 km/h (2 Bft) W 270 0 min -1,3 C 14,6 km/h (3 Bft)
14.02.2016 01:34 4,3 C 4,0 C 67 % 992,3 hPa 0,0 mm 7,5 km/h (2 Bft) W 270 0 min -1,3 C 14,6 km/h (3 Bft)
14.02.2016 01:35 4,3 C 4,0 C 67 % 992,3 hPa 0,0 mm 7,7 km/h (2 Bft) W-SW 247 0 min -1,3 C 5,1 km/h (1 Bft)
14.02.2016 01:36 4,3 C 4,0 C 67 % 992,3 hPa 0,0 mm 7,7 km/h (2 Bft) W-SW 247 0 min -1,3 C 5,1 km/h (1 Bft)
14.02.2016 01:37 4,2 C 3,9 C 67 % 992,3 hPa 0,0 mm 7,7 km/h (2 Bft) SW 225 0 min -1,4 C 6,3 km/h (2 Bft)
14.02.2016 01:38 4,2 C 3,9 C 67 % 992,3 hPa 0,0 mm 7,7 km/h (2 Bft) SW 225 0 min -1,4 C 6,3 km/h (2 Bft)
14.02.2016 01:39 4,1 C 3,9 C 67 % 992,3 hPa 0,0 mm 6,6 km/h (2 Bft) W-SW 247 0 min -1,5 C 4,5 km/h (1 Bft)
14.02.2016 01:40 4,1 C 3,9 C 67 % 992,3 hPa 0,0 mm 6,6 km/h (2 Bft) W-SW 247 0 min -1,5 C 4,5 km/h (1 Bft)
14.02.2016 01:41 4,0 C 3,9 C 67 % 992,3 hPa 0,0 mm 6,0 km/h (2 Bft) S-SO 157 0 min -1,6 C 3,0 km/h (1 Bft)
14.02.2016 01:42 4,0 C 3,9 C 67 % 992,3 hPa 0,0 mm 6,0 km/h (2 Bft) S-SO 157 0 min -1,6 C 3,0 km/h (1 Bft)
14.02.2016 01:43 4,1 C 4,0 C 67 % 992,1 hPa 0,0 mm 5,4 km/h (1 Bft) SW 225 0 min -1,5 C 5,1 km/h (1 Bft)
14.02.2016 01:44 4,1 C 4,0 C 67 % 992,1 hPa 0,0 mm 5,4 km/h (1 Bft) SW 225 0 min -1,5 C 5,1 km/h (1 Bft)
14.02.2016 01:45 4,1 C 3,9 C 68 % 992,1 hPa 0,0 mm 3,9 km/h (1 Bft) O-SO 112 0 min -1,3 C 5,1 km/h (1 Bft)
14.02.2016 01:46 4,1 C 3,9 C 68 % 992,1 hPa 0,0 mm 3,9 km/h (1 Bft) O-SO 112 0 min -1,3 C 5,1 km/h (1 Bft)
14.02.2016 01:47 4,2 C 4,0 C 68 % 992,1 hPa 0,0 mm 3,3 km/h (1 Bft) O-SO 112 0 min -1,2 C 3,0 km/h (1 Bft)
14.02.2016 01:48 4,2 C 4,0 C 68 % 992,1 hPa 0,0 mm 3,3 km/h (1 Bft) O-SO 112 0 min -1,2 C 3,0 km/h (1 Bft)
14.02.2016 01:49 4,0 C 3,8 C 68 % 992,1 hPa 0,0 mm 2,4 km/h (1 Bft) N-NW 337 0 min -1,4 C 0,0 km/h (0 Bft)
14.02.2016 01:50 4,0 C 3,8 C 68 % 992,1 hPa 0,0 mm 2,4 km/h (1 Bft) N-NW 337 0 min -1,4 C 0,0 km/h (0 Bft)
14.02.2016 01:51 3,6 C 3,5 C 68 % 992,1 hPa 0,0 mm 2,1 km/h (1 Bft) W-NW 292 0 min -1,7 C 5,4 km/h (1 Bft)
14.02.2016 01:52 3,6 C 3,5 C 68 % 992,1 hPa 0,0 mm 2,1 km/h (1 Bft) W-NW 292 0 min -1,7 C 5,4 km/h (1 Bft)
14.02.2016 01:53 3,6 C 3,5 C 68 % 992,1 hPa 0,0 mm 2,1 km/h (1 Bft) W-SW 247 0 min -1,7 C 0,0 km/h (0 Bft)
14.02.2016 01:54 3,6 C 3,5 C 68 % 992,1 hPa 0,0 mm 2,1 km/h (1 Bft) W-SW 247 0 min -1,7 C 0,0 km/h (0 Bft)
14.02.2016 01:55 3,7 C 3,5 C 68 % 992,1 hPa 0,0 mm 1,5 km/h (1 Bft) S 180 0 min -1,6 C 0,0 km/h (0 Bft)
14.02.2016 01:56 3,7 C 3,5 C 68 % 992,1 hPa 0,0 mm 1,5 km/h (1 Bft) S 180 0 min -1,6 C 0,0 km/h (0 Bft)
14.02.2016 01:57 3,7 C 3,5 C 68 % 992,1 hPa 0,0 mm 0,9 km/h (0 Bft) O-NO 67 0 min -1,6 C 0,0 km/h (0 Bft)
14.02.2016 01:58 3,7 C 3,5 C 68 % 992,1 hPa 0,0 mm 0,9 km/h (0 Bft) O-NO 67 0 min -1,6 C 0,0 km/h (0 Bft)
14.02.2016 01:59 3,4 C 3,2 C 68 % 992,1 hPa 0,0 mm 0,9 km/h (0 Bft) W-SW 247 0 min -1,9 C 5,1 km/h (1 Bft)
14.02.2016 02:00 3,4 C 3,2 C 68 % 992,1 hPa 0,0 mm 0,9 km/h (0 Bft) W-SW 247 0 min -1,9 C 5,1 km/h (1 Bft)
14.02.2016 02:01 3,6 C 3,3 C 69 % 992,1 hPa 0,0 mm 1,2 km/h (1 Bft) O-SO 112 0 min -1,5 C 3,3 km/h (1 Bft)
14.02.2016 02:02 3,6 C 3,3 C 69 % 992,1 hPa 0,0 mm 1,2 km/h (1 Bft) O-SO 112 0 min -1,5 C 3,3 km/h (1 Bft)
14.02.2016 02:03 3,8 C 3,5 C 69 % 992,0 hPa 0,0 mm 1,2 km/h (1 Bft) SO 135 0 min -1,4 C 0,0 km/h (0 Bft)
14.02.2016 02:04 3,8 C 3,5 C 69 % 992,0 hPa 0,0 mm 1,2 km/h (1 Bft) SO 135 0 min -1,4 C 0,0 km/h (0 Bft)
14.02.2016 02:05 3,7 C 3,4 C 68 % 992,0 hPa 0,0 mm 1,2 km/h (1 Bft) S 180 0 min -1,6 C 0,0 km/h (0 Bft)
14.02.2016 02:06 3,7 C 3,4 C 68 % 992,0 hPa 0,0 mm 1,2 km/h (1 Bft) S 180 0 min -1,6 C 0,0 km/h (0 Bft)
14.02.2016 02:07 3,6 C 3,3 C 68 % 992,0 hPa 0,0 mm 1,5 km/h (1 Bft) W-SW 247 0 min -1,7 C 0,0 km/h (0 Bft)
14.02.2016 02:08 3,6 C 3,3 C 68 % 992,0 hPa 0,0 mm 1,5 km/h (1 Bft) W-SW 247 0 min -1,7 C 0,0 km/h (0 Bft)
14.02.2016 02:09 3,8 C 3,5 C 68 % 992,0 hPa 0,0 mm 2,1 km/h (1 Bft) S 180 0 min -1,6 C 3,6 km/h (1 Bft)
14.02.2016 02:10 3,8 C 3,5 C 68 % 992,0 hPa 0,0 mm 2,1 km/h (1 Bft) S 180 0 min -1,6 C 3,6 km/h (1 Bft)
14.02.2016 02:11 3,5 C 3,3 C 68 % 992,0 hPa 0,0 mm 2,1 km/h (1 Bft) S-SW 202 0 min -1,8 C 4,8 km/h (1 Bft)
14.02.2016 02:12 3,5 C 3,3 C 68 % 992,0 hPa 0,0 mm 2,1 km/h (1 Bft) S-SW 202 0 min -1,8 C 4,8 km/h (1 Bft)
14.02.2016 02:13 3,7 C 3,5 C 69 % 992,0 hPa 0,0 mm 1,5 km/h (1 Bft) SO 135 0 min -1,4 C 0,0 km/h (0 Bft)
14.02.2016 02:14 3,7 C 3,5 C 69 % 992,0 hPa 0,0 mm 1,5 km/h (1 Bft) SO 135 0 min -1,4 C 0,0 km/h (0 Bft)
14.02.2016 02:15 3,7 C 3,5 C 68 % 992,0 hPa 0,0 mm 1,5 km/h (1 Bft) S 180 0 min -1,6 C 0,0 km/h (0 Bft)
14.02.2016 02:16 3,7 C 3,5 C 68 % 992,0 hPa 0,0 mm 1,5 km/h (1 Bft) S 180 0 min -1,6 C 0,0 km/h (0 Bft)
14.02.2016 02:17 3,7 C 3,5 C 68 % 992,0 hPa 0,0 mm 1,8 km/h (1 Bft) NW 315 0 min -1,6 C 6,9 km/h (2 Bft)
14.02.2016 02:18 3,7 C 3,5 C 68 % 992,0 hPa 0,0 mm 1,8 km/h (1 Bft) NW 315 0 min -1,6 C 6,9 km/h (2 Bft)
14.02.2016 02:19 3,6 C 3,4 C 68 % 992,0 hPa 0,0 mm 1,5 km/h (1 Bft) W 270 0 min -1,7 C 10,7 km/h (2 Bft)
14.02.2016 02:20 3,6 C 3,4 C 68 % 992,0 hPa 0,0 mm 1,5 km/h (1 Bft) W 270 0 min -1,7 C 10,7 km/h (2 Bft)
14.02.2016 02:21 3,6 C 3,4 C 68 % 992,0 hPa 0,0 mm 1,8 km/h (1 Bft) W-NW 292 0 min -1,7 C 3,0 km/h (1 Bft)
14.02.2016 02:22 3,6 C 3,4 C 68 % 992,0 hPa 0,0 mm 1,8 km/h (1 Bft) W-NW 292 0 min -1,7 C 3,0 km/h (1 Bft)
14.02.2016 02:23 3,8 C 3,5 C 67 % 992,3 hPa 0,0 mm 2,7 km/h (1 Bft) S-SO 157 0 min -1,8 C 3,9 km/h (1 Bft)
14.02.2016 02:24 3,8 C 3,5 C 67 % 992,3 hPa 0,0 mm 2,7 km/h (1 Bft) S-SO 157 0 min -1,8 C 3,9 km/h (1 Bft)
14.02.2016 02:25 4,1 C 3,8 C 67 % 992,3 hPa 0,0 mm 3,9 km/h (1 Bft) NW 315 0 min -1,5 C 5,7 km/h (1 Bft)
14.02.2016 02:26 4,1 C 3,8 C 67 % 992,3 hPa 0,0 mm 3,9 km/h (1 Bft) NW 315 0 min -1,5 C 5,7 km/h (1 Bft)
14.02.2016 02:27 4,2 C 3,9 C 67 % 992,3 hPa 0,0 mm 5,1 km/h (1 Bft) W-SW 247 0 min -1,4 C 11,3 km/h (2 Bft)
14.02.2016 02:28 4,2 C 3,9 C 67 % 992,3 hPa 0,0 mm 5,1 km/h (1 Bft) W-SW 247 0 min -1,4 C 11,3 km/h (2 Bft)
14.02.2016 02:29 4,3 C 3,9 C 66 % 992,3 hPa 0,0 mm 6,0 km/h (2 Bft) W 270 0 min -1,5 C 7,5 km/h (2 Bft)
14.02.2016 02:30 4,3 C 3,9 C 66 % 992,3 hPa 0,0 mm 6,0 km/h (2 Bft) W 270 0 min -1,5 C 7,5 km/h (2 Bft)
14.02.2016 02:31 4,1 C 3,9 C 65 % 992,3 hPa 0,0 mm 5,7 km/h (1 Bft) S 180 0 min -1,9 C 0,0 km/h (0 Bft)
14.02.2016 02:32 4,1 C 3,9 C 65 % 992,3 hPa 0,0 mm 5,7 km/h (1 Bft) S 180 0 min -1,9 C 0,0 km/h (0 Bft)
14.02.2016 02:33 4,2 C 4,0 C 65 % 992,3 hPa 0,0 mm 5,4 km/h (1 Bft) SO 135 0 min -1,8 C 0,0 km/h (0 Bft)
14.02.2016 02:34 4,2 C 4,0 C 65 % 992,3 hPa 0,0 mm 5,4 km/h (1 Bft) SO 135 0 min -1,8 C 0,0 km/h (0 Bft)
14.02.2016 02:35 4,3 C 4,1 C 64 % 992,3 hPa 0,0 mm 4,5 km/h (1 Bft) NW 315 0 min -1,9 C 4,8 km/h (1 Bft)
14.02.2016 02:36 4,3 C 4,1 C 64 % 992,3 hPa 0,0 mm 4,5 km/h (1 Bft) NW 315 0 min -1,9 C 4,8 km/h (1 Bft)
14.02.2016 02:37 4,2 C 4,0 C 64 % 992,3 hPa 0,0 mm 3,6 km/h (1 Bft) S 180 0 min -2,0 C 0,0 km/h (0 Bft)
14.02.2016 02:38 4,2 C 4,0 C 64 % 992,3 hPa 0,0 mm 3,6 km/h (1 Bft) S 180 0 min -2,0 C 0,0 km/h (0 Bft)
14.02.2016 02:39 4,3 C 4,1 C 64 % 992,3 hPa 0,0 mm 3,0 km/h (1 Bft) O-SO 112 0 min -1,9 C 8,6 km/h (2 Bft)
14.02.2016 02:40 4,3 C 4,1 C 64 % 992,3 hPa 0,0 mm 3,0 km/h (1 Bft) O-SO 112 0 min -1,9 C 8,6 km/h (2 Bft)
14.02.2016 02:41 4,3 C 4,1 C 63 % 992,3 hPa 0,0 mm 3,0 km/h (1 Bft) S-SO 157 0 min -2,1 C 6,6 km/h (2 Bft)
14.02.2016 02:42 4,3 C 4,1 C 63 % 992,3 hPa 0,0 mm 3,0 km/h (1 Bft) S-SO 157 0 min -2,1 C 6,6 km/h (2 Bft)
14.02.2016 02:43 4,2 C 4,0 C 63 % 992,5 hPa 0,0 mm 3,3 km/h (1 Bft) S-SO 157 0 min -2,2 C 6,6 km/h (2 Bft)
14.02.2016 02:44 4,2 C 4,0 C 63 % 992,5 hPa 0,0 mm 3,3 km/h (1 Bft) S-SO 157 0 min -2,2 C 6,6 km/h (2 Bft)
14.02.2016 02:45 4,4 C 4,1 C 63 % 992,5 hPa 0,0 mm 5,7 km/h (1 Bft) SW 225 0 min -2,0 C 12,5 km/h (3 Bft)
14.02.2016 02:46 4,4 C 4,1 C 63 % 992,5 hPa 0,0 mm 5,7 km/h (1 Bft) SW 225 0 min -2,0 C 12,5 km/h (3 Bft)
14.02.2016 02:47 5,0 C 4,4 C 62 % 992,5 hPa 0,0 mm 8,0 km/h (2 Bft) W-NW 292 0 min -1,7 C 12,8 km/h (3 Bft)
14.02.2016 02:48 5,0 C 4,4 C 62 % 992,5 hPa 0,0 mm 8,0 km/h (2 Bft) W-NW 292 0 min -1,7 C 12,8 km/h (3 Bft)
14.02.2016 02:49 4,8 C 4,3 C 61 % 992,5 hPa 0,0 mm 8,3 km/h (2 Bft) NW 315 0 min -2,1 C 5,1 km/h (1 Bft)
14.02.2016 02:50 4,8 C 4,3 C 61 % 992,5 hPa 0,0 mm 8,3 km/h (2 Bft) NW 315 0 min -2,1 C 5,1 km/h (1 Bft)
14.02.2016 02:51 4,4 C 4,0 C 60 % 992,5 hPa 0,0 mm 8,3 km/h (2 Bft) W 270 0 min -2,7 C 3,6 km/h (1 Bft)
14.02.2016 02:52 4,4 C 4,0 C 60 % 992,5 hPa 0,0 mm 8,3 km/h (2 Bft) W 270 0 min -2,7 C 3,6 km/h (1 Bft)
14.02.2016 02:53 4,1 C 3,8 C 60 % 992,5 hPa 0,0 mm 8,0 km/h (2 Bft) S 180 0 min -3,0 C 0,0 km/h (0 Bft)
14.02.2016 02:54 4,1 C 3,8 C 60 % 992,5 hPa 0,0 mm 8,0 km/h (2 Bft) S 180 0 min -3,0 C 0,0 km/h (0 Bft)
14.02.2016 02:55 4,3 C 3,9 C 60 % 992,5 hPa 0,0 mm 7,7 km/h (2 Bft) S-SW 202 0 min -2,8 C 6,9 km/h (2 Bft)
14.02.2016 02:56 4,3 C 3,9 C 60 % 992,5 hPa 0,0 mm 7,7 km/h (2 Bft) S-SW 202 0 min -2,8 C 6,9 km/h (2 Bft)
14.02.2016 02:57 4,5 C 4,3 C 60 % 992,5 hPa 0,0 mm 5,1 km/h (1 Bft) W-SW 247 0 min -2,6 C 3,3 km/h (1 Bft)
14.02.2016 02:58 4,5 C 4,3 C 60 % 992,5 hPa 0,0 mm 5,1 km/h (1 Bft) W-SW 247 0 min -2,6 C 3,3 km/h (1 Bft)
14.02.2016 02:59 4,5 C 4,3 C 59 % 992,5 hPa 0,0 mm 4,2 km/h (1 Bft) W-NW 292 0 min -2,8 C 5,4 km/h (1 Bft)
14.02.2016 03:00 4,5 C 4,3 C 59 % 992,5 hPa 0,0 mm 4,2 km/h (1 Bft) W-NW 292 0 min -2,8 C 5,4 km/h (1 Bft)
14.02.2016 03:01 4,7 C 4,4 C 59 % 992,5 hPa 0,0 mm 5,7 km/h (1 Bft) SW 225 0 min -2,6 C 26,2 km/h (4 Bft)
14.02.2016 03:02 4,7 C 4,4 C 59 % 992,5 hPa 0,0 mm 5,7 km/h (1 Bft) SW 225 0 min -2,6 C 26,2 km/h (4 Bft)
14.02.2016 03:03 4,7 C 4,4 C 59 % 992,5 hPa 0,0 mm 5,7 km/h (1 Bft) SW 225 0 min -2,6 C 26,2 km/h (4 Bft)
14.02.2016 03:04 4,7 C 4,4 C 59 % 992,5 hPa 0,0 mm 5,7 km/h (1 Bft) SW 225 0 min -2,6 C 26,2 km/h (4 Bft)
14.02.2016 03:05 5,0 C 4,5 C 59 % 992,5 hPa 0,0 mm 8,0 km/h (2 Bft) W-SW 247 0 min -2,3 C 8,9 km/h (2 Bft)
14.02.2016 03:06 5,0 C 4,5 C 59 % 992,5 hPa 0,0 mm 8,0 km/h (2 Bft) W-SW 247 0 min -2,3 C 8,9 km/h (2 Bft)
14.02.2016 03:07 4,8 C 4,4 C 59 % 992,5 hPa 0,0 mm 8,3 km/h (2 Bft) W 270 0 min -2,5 C 4,5 km/h (1 Bft)
14.02.2016 03:08 4,8 C 4,4 C 59 % 992,5 hPa 0,0 mm 8,3 km/h (2 Bft) W 270 0 min -2,5 C 4,5 km/h (1 Bft)
14.02.2016 03:09 4,6 C 4,2 C 58 % 992,5 hPa 0,0 mm 8,6 km/h (2 Bft) O-SO 112 0 min -2,9 C 22,4 km/h (4 Bft)
14.02.2016 03:10 4,6 C 4,2 C 58 % 992,5 hPa 0,0 mm 8,6 km/h (2 Bft) O-SO 112 0 min -2,9 C 22,4 km/h (4 Bft)
14.02.2016 03:11 4,8 C 4,3 C 58 % 992,5 hPa 0,0 mm 8,9 km/h (2 Bft) W-NW 292 0 min -2,7 C 17,0 km/h (3 Bft)
14.02.2016 03:12 4,8 C 4,3 C 58 % 992,5 hPa 0,0 mm 8,9 km/h (2 Bft) W-NW 292 0 min -2,7 C 17,0 km/h (3 Bft)
14.02.2016 03:13 4,9 C 4,4 C 58 % 992,5 hPa 0,0 mm 8,9 km/h (2 Bft) SW 225 0 min -2,7 C 17,0 km/h (3 Bft)
14.02.2016 03:14 4,9 C 4,4 C 58 % 992,5 hPa 0,0 mm 8,9 km/h (2 Bft) SW 225 0 min -2,7 C 17,0 km/h (3 Bft)
14.02.2016 03:15 5,1 C 4,5 C 58 % 992,5 hPa 0,0 mm 10,1 km/h (2 Bft) W-SW 247 0 min -2,5 C 22,4 km/h (4 Bft)
14.02.2016 03:16 5,1 C 4,5 C 58 % 992,5 hPa 0,0 mm 10,1 km/h (2 Bft) W-SW 247 0 min -2,5 C 22,4 km/h (4 Bft)
14.02.2016 03:17 5,2 C 4,6 C 58 % 992,5 hPa 0,0 mm 11,3 km/h (2 Bft) W-SW 247 0 min -2,4 C 10,1 km/h (2 Bft)
14.02.2016 03:18 5,2 C 4,6 C 58 % 992,5 hPa 0,0 mm 11,3 km/h (2 Bft) W-SW 247 0 min -2,4 C 10,1 km/h (2 Bft)
14.02.2016 03:19 5,2 C 4,5 C 58 % 992,5 hPa 0,0 mm 12,5 km/h (3 Bft) W-SW 247 0 min -2,4 C 12,2 km/h (2 Bft)
14.02.2016 03:20 5,2 C 4,5 C 58 % 992,5 hPa 0,0 mm 12,5 km/h (3 Bft) W-SW 247 0 min -2,4 C 12,2 km/h (2 Bft)
14.02.2016 03:21 5,1 C 4,4 C 58 % 992,5 hPa 0,0 mm 13,1 km/h (3 Bft) W-SW 247 0 min -2,5 C 12,8 km/h (3 Bft)
14.02.2016 03:22 5,1 C 4,4 C 58 % 992,5 hPa 0,0 mm 13,1 km/h (3 Bft) W-SW 247 0 min -2,5 C 12,8 km/h (3 Bft)
14.02.2016 03:23 5,1 C 4,4 C 58 % 992,5 hPa 0,0 mm 13,7 km/h (3 Bft) N-NW 337 0 min -2,5 C 21,5 km/h (4 Bft)
14.02.2016 03:24 5,1 C 4,4 C 58 % 992,5 hPa 0,0 mm 13,7 km/h (3 Bft) N-NW 337 0 min -2,5 C 21,5 km/h (4 Bft)
14.02.2016 03:25 5,0 C 4,4 C 58 % 992,5 hPa 0,0 mm 12,5 km/h (3 Bft) W-SW 247 0 min -2,6 C 15,5 km/h (3 Bft)
14.02.2016 03:26 5,0 C 4,4 C 58 % 992,5 hPa 0,0 mm 12,5 km/h (3 Bft) W-SW 247 0 min -2,6 C 15,5 km/h (3 Bft)
14.02.2016 03:27 5,1 C 4,4 C 58 % 992,5 hPa 0,0 mm 12,5 km/h (3 Bft) W-NW 292 0 min -2,5 C 17,3 km/h (3 Bft)
14.02.2016 03:28 5,1 C 4,4 C 58 % 992,5 hPa 0,0 mm 12,5 km/h (3 Bft) W-NW 292 0 min -2,5 C 17,3 km/h (3 Bft)
14.02.2016 03:29 5,0 C 4,4 C 58 % 992,5 hPa 0,0 mm 12,8 km/h (3 Bft) W 270 0 min -2,6 C 15,2 km/h (3 Bft)
14.02.2016 03:30 5,0 C 4,4 C 58 % 992,5 hPa 0,0 mm 12,8 km/h (3 Bft) W 270 0 min -2,6 C 15,2 km/h (3 Bft)
14.02.2016 03:31 4,8 C 4,3 C 58 % 992,5 hPa 0,0 mm 11,9 km/h (2 Bft) S 180 0 min -2,7 C 9,2 km/h (2 Bft)
14.02.2016 03:32 4,8 C 4,3 C 58 % 992,5 hPa 0,0 mm 11,9 km/h (2 Bft) S 180 0 min -2,7 C 9,2 km/h (2 Bft)
14.02.2016 03:33 4,7 C 4,2 C 58 % 992,5 hPa 0,0 mm 11,6 km/h (2 Bft) W 270 0 min -2,8 C 21,2 km/h (4 Bft)
14.02.2016 03:34 4,7 C 4,2 C 58 % 992,5 hPa 0,0 mm 11,6 km/h (2 Bft) W 270 0 min -2,8 C 21,2 km/h (4 Bft)
14.02.2016 03:35 4,8 C 4,2 C 59 % 992,5 hPa 0,0 mm 11,6 km/h (2 Bft) NW 315 0 min -2,5 C 19,1 km/h (3 Bft)
14.02.2016 03:36 4,8 C 4,2 C 59 % 992,5 hPa 0,0 mm 11,6 km/h (2 Bft) NW 315 0 min -2,5 C 19,1 km/h (3 Bft)
14.02.2016 03:37 4,7 C 4,2 C 59 % 992,5 hPa 0,0 mm 11,0 km/h (2 Bft) W 270 0 min -2,6 C 6,9 km/h (2 Bft)
14.02.2016 03:38 4,7 C 4,2 C 59 % 992,5 hPa 0,0 mm 11,0 km/h (2 Bft) W 270 0 min -2,6 C 6,9 km/h (2 Bft)
14.02.2016 03:39 4,7 C 4,1 C 59 % 992,5 hPa 0,0 mm 10,4 km/h (2 Bft) W-NW 292 0 min -2,6 C 14,9 km/h (3 Bft)
14.02.2016 03:40 4,7 C 4,1 C 59 % 992,5 hPa 0,0 mm 10,4 km/h (2 Bft) W-NW 292 0 min -2,6 C 14,9 km/h (3 Bft)
14.02.2016 03:41 4,5 C 4,0 C 59 % 992,5 hPa 0,0 mm 10,4 km/h (2 Bft) W-SW 247 0 min -2,8 C 6,0 km/h (2 Bft)
14.02.2016 03:42 4,5 C 4,0 C 59 % 992,5 hPa 0,0 mm 10,4 km/h (2 Bft) W-SW 247 0 min -2,8 C 6,0 km/h (2 Bft)
14.02.2016 03:43 4,4 C 3,9 C 59 % 992,2 hPa 0,0 mm 10,1 km/h (2 Bft) W-SW 247 0 min -2,9 C 9,2 km/h (2 Bft)
14.02.2016 03:44 4,4 C 3,9 C 59 % 992,2 hPa 0,0 mm 10,1 km/h (2 Bft) W-SW 247 0 min -2,9 C 9,2 km/h (2 Bft)
14.02.2016 03:45 4,2 C 3,8 C 59 % 992,2 hPa 0,0 mm 8,6 km/h (2 Bft) S-SW 202 0 min -3,1 C 6,0 km/h (2 Bft)
14.02.2016 03:46 4,2 C 3,8 C 59 % 992,2 hPa 0,0 mm 8,6 km/h (2 Bft) S-SW 202 0 min -3,1 C 6,0 km/h (2 Bft)
14.02.2016 03:47 4,1 C 3,8 C 59 % 992,2 hPa 0,0 mm 7,5 km/h (2 Bft) S 180 0 min -3,2 C 3,9 km/h (1 Bft)
14.02.2016 03:48 4,1 C 3,8 C 59 % 992,2 hPa 0,0 mm 7,5 km/h (2 Bft) S 180 0 min -3,2 C 3,9 km/h (1 Bft)
14.02.2016 03:49 4,0 C 3,7 C 59 % 992,2 hPa 0,0 mm 6,9 km/h (2 Bft) W-NW 292 0 min -3,3 C 4,2 km/h (1 Bft)
14.02.2016 03:50 4,0 C 3,7 C 59 % 992,2 hPa 0,0 mm 6,9 km/h (2 Bft) W-NW 292 0 min -3,3 C 4,2 km/h (1 Bft)
14.02.2016 03:51 4,0 C 3,7 C 59 % 992,2 hPa 0,0 mm 6,0 km/h (2 Bft) W-SW 247 0 min -3,3 C 5,1 km/h (1 Bft)
14.02.2016 03:52 4,0 C 3,7 C 59 % 992,2 hPa 0,0 mm 6,0 km/h (2 Bft) W-SW 247 0 min -3,3 C 5,1 km/h (1 Bft)
14.02.2016 03:53 3,9 C 3,6 C 60 % 992,2 hPa 0,0 mm 6,0 km/h (2 Bft) W 270 0 min -3,1 C 13,4 km/h (3 Bft)
14.02.2016 03:54 3,9 C 3,6 C 60 % 992,2 hPa 0,0 mm 6,0 km/h (2 Bft) W 270 0 min -3,1 C 13,4 km/h (3 Bft)
14.02.2016 03:55 3,7 C 3,5 C 60 % 992,2 hPa 0,0 mm 6,0 km/h (2 Bft) W-SW 247 0 min -3,3 C 8,3 km/h (2 Bft)
14.02.2016 03:56 3,7 C 3,5 C 60 % 992,2 hPa 0,0 mm 6,0 km/h (2 Bft) W-SW 247 0 min -3,3 C 8,3 km/h (2 Bft)
14.02.2016 03:57 3,7 C 3,4 C 60 % 992,2 hPa 0,0 mm 6,0 km/h (2 Bft) W-SW 247 0 min -3,3 C 7,7 km/h (2 Bft)
14.02.2016 03:58 3,7 C 3,4 C 60 % 992,2 hPa 0,0 mm 6,0 km/h (2 Bft) W-SW 247 0 min -3,3 C 7,7 km/h (2 Bft)
14.02.2016 03:59 3,6 C 3,4 C 60 % 992,2 hPa 0,0 mm 5,7 km/h (1 Bft) W-SW 247 0 min -3,4 C 3,9 km/h (1 Bft)
14.02.2016 04:00 3,6 C 3,4 C 60 % 992,2 hPa 0,0 mm 5,7 km/h (1 Bft) W-SW 247 0 min -3,4 C 3,9 km/h (1 Bft)
14.02.2016 04:01 3,6 C 3,3 C 61 % 992,2 hPa 0,0 mm 5,7 km/h (1 Bft) W 270 0 min -3,2 C 5,4 km/h (1 Bft)
14.02.2016 04:02 3,6 C 3,3 C 61 % 992,2 hPa 0,0 mm 5,7 km/h (1 Bft) W 270 0 min -3,2 C 5,4 km/h (1 Bft)
14.02.2016 04:03 3,6 C 3,3 C 61 % 992,0 hPa 0,0 mm 5,4 km/h (1 Bft) SW 225 0 min -3,2 C 4,5 km/h (1 Bft)
14.02.2016 04:04 3,6 C 3,3 C 61 % 992,0 hPa 0,0 mm 5,4 km/h (1 Bft) SW 225 0 min -3,2 C 4,5 km/h (1 Bft)
14.02.2016 04:05 3,7 C 3,4 C 61 % 992,0 hPa 0,0 mm 5,4 km/h (1 Bft) S 180 0 min -3,1 C 8,0 km/h (2 Bft)
14.02.2016 04:06 3,7 C 3,4 C 61 % 992,0 hPa 0,0 mm 5,4 km/h (1 Bft) S 180 0 min -3,1 C 8,0 km/h (2 Bft)
14.02.2016 04:07 3,9 C 3,5 C 61 % 992,0 hPa 0,0 mm 5,4 km/h (1 Bft) S 180 0 min -2,9 C 7,2 km/h (2 Bft)
14.02.2016 04:08 3,9 C 3,5 C 61 % 992,0 hPa 0,0 mm 5,4 km/h (1 Bft) S 180 0 min -2,9 C 7,2 km/h (2 Bft)
14.02.2016 04:09 3,9 C 3,5 C 61 % 992,0 hPa 0,0 mm 5,7 km/h (1 Bft) S 180 0 min -2,9 C 8,0 km/h (2 Bft)
14.02.2016 04:10 3,9 C 3,5 C 61 % 992,0 hPa 0,0 mm 5,7 km/h (1 Bft) S 180 0 min -2,9 C 8,0 km/h (2 Bft)
14.02.2016 04:11 4,0 C 3,4 C 61 % 992,0 hPa 0,0 mm 6,6 km/h (2 Bft) SW 225 0 min -2,8 C 6,3 km/h (2 Bft)
14.02.2016 04:12 4,0 C 3,4 C 61 % 992,0 hPa 0,0 mm 6,6 km/h (2 Bft) SW 225 0 min -2,8 C 6,3 km/h (2 Bft)
14.02.2016 04:13 3,9 C 3,4 C 61 % 992,0 hPa 0,0 mm 6,3 km/h (2 Bft) S-SO 157 0 min -2,9 C 5,7 km/h (1 Bft)
14.02.2016 04:14 3,9 C 3,4 C 61 % 992,0 hPa 0,0 mm 6,3 km/h (2 Bft) S-SO 157 0 min -2,9 C 5,7 km/h (1 Bft)
14.02.2016 04:15 3,7 C 3,2 C 61 % 992,0 hPa 0,0 mm 6,9 km/h (2 Bft) SW 225 0 min -3,1 C 8,3 km/h (2 Bft)
14.02.2016 04:16 3,7 C 3,2 C 61 % 992,0 hPa 0,0 mm 6,9 km/h (2 Bft) SW 225 0 min -3,1 C 8,3 km/h (2 Bft)
14.02.2016 04:17 3,7 C 3,2 C 61 % 992,0 hPa 0,0 mm 6,6 km/h (2 Bft) SW 225 0 min -3,1 C 5,4 km/h (1 Bft)
14.02.2016 04:18 3,7 C 3,2 C 61 % 992,0 hPa 0,0 mm 6,6 km/h (2 Bft) SW 225 0 min -3,1 C 5,4 km/h (1 Bft)
14.02.2016 04:19 3,5 C 3,2 C 62 % 992,0 hPa 0,0 mm 5,4 km/h (1 Bft) S 180 0 min -3,1 C 0,0 km/h (0 Bft)
14.02.2016 04:20 3,5 C 3,2 C 62 % 992,0 hPa 0,0 mm 5,4 km/h (1 Bft) S 180 0 min -3,1 C 0,0 km/h (0 Bft)
14.02.2016 04:21 3,4 C 3,1 C 62 % 992,0 hPa 0,0 mm 4,2 km/h (1 Bft) SO 135 0 min -3,2 C 0,0 km/h (0 Bft)
14.02.2016 04:22 3,4 C 3,1 C 62 % 992,0 hPa 0,0 mm 4,2 km/h (1 Bft) SO 135 0 min -3,2 C 0,0 km/h (0 Bft)
14.02.2016 04:23 3,2 C 2,9 C 62 % 992,0 hPa 0,0 mm 3,0 km/h (1 Bft) S 180 0 min -3,4 C 0,0 km/h (0 Bft)
14.02.2016 04:24 3,2 C 2,9 C 62 % 992,0 hPa 0,0 mm 3,0 km/h (1 Bft) S 180 0 min -3,4 C 0,0 km/h (0 Bft)
14.02.2016 04:25 3,1 C 2,8 C 62 % 992,0 hPa 0,0 mm 1,8 km/h (1 Bft) O-NO 67 0 min -3,5 C 0,0 km/h (0 Bft)
14.02.2016 04:26 3,1 C 2,8 C 62 % 992,0 hPa 0,0 mm 1,8 km/h (1 Bft) O-NO 67 0 min -3,5 C 0,0 km/h (0 Bft)
14.02.2016 04:27 2,9 C 2,5 C 64 % 992,0 hPa 0,0 mm 0,6 km/h (0 Bft) O-SO 112 0 min -3,2 C 0,0 km/h (0 Bft)
14.02.2016 04:28 2,9 C 2,5 C 64 % 992,0 hPa 0,0 mm 0,6 km/h (0 Bft) O-SO 112 0 min -3,2 C 0,0 km/h (0 Bft)
14.02.2016 04:29 2,8 C 2,4 C 64 % 992,0 hPa 0,0 mm 0,3 km/h (0 Bft) O-NO 67 0 min -3,3 C 0,0 km/h (0 Bft)
14.02.2016 04:30 2,8 C 2,4 C 64 % 992,0 hPa 0,0 mm 0,3 km/h (0 Bft) O-NO 67 0 min -3,3 C 0,0 km/h (0 Bft)
14.02.2016 04:31 2,6 C 2,2 C 64 % 992,0 hPa 0,0 mm 0,3 km/h (0 Bft) W-SW 247 0 min -3,5 C 3,6 km/h (1 Bft)
14.02.2016 04:32 2,6 C 2,2 C 64 % 992,0 hPa 0,0 mm 0,3 km/h (0 Bft) W-SW 247 0 min -3,5 C 3,6 km/h (1 Bft)
14.02.2016 04:33 2,6 C 2,1 C 65 % 992,0 hPa 0,0 mm 0,3 km/h (0 Bft) O-SO 112 0 min -3,3 C 0,0 km/h (0 Bft)
14.02.2016 04:34 2,6 C 2,1 C 65 % 992,0 hPa 0,0 mm 0,3 km/h (0 Bft) O-SO 112 0 min -3,3 C 0,0 km/h (0 Bft)
14.02.2016 04:35 2,7 C 2,1 C 65 % 992,0 hPa 0,0 mm 1,8 km/h (1 Bft) S-SW 202 0 min -3,2 C 9,2 km/h (2 Bft)
14.02.2016 04:36 2,7 C 2,1 C 65 % 992,0 hPa 0,0 mm 1,8 km/h (1 Bft) S-SW 202 0 min -3,2 C 9,2 km/h (2 Bft)
14.02.2016 04:37 2,7 C 2,2 C 65 % 992,0 hPa 0,0 mm 2,4 km/h (1 Bft) SO 135 0 min -3,2 C 0,0 km/h (0 Bft)
14.02.2016 04:38 2,7 C 2,2 C 65 % 992,0 hPa 0,0 mm 2,4 km/h (1 Bft) SO 135 0 min -3,2 C 0,0 km/h (0 Bft)
14.02.2016 04:39 2,8 C 2,2 C 65 % 992,0 hPa 0,0 mm 2,4 km/h (1 Bft) SO 135 0 min -3,1 C 3,9 km/h (1 Bft)
14.02.2016 04:40 2,8 C 2,2 C 65 % 992,0 hPa 0,0 mm 2,4 km/h (1 Bft) SO 135 0 min -3,1 C 3,9 km/h (1 Bft)
14.02.2016 04:41 2,7 C 2,2 C 65 % 992,0 hPa 0,0 mm 2,7 km/h (1 Bft) O-SO 112 0 min -3,2 C 5,7 km/h (1 Bft)
14.02.2016 04:42 2,7 C 2,2 C 65 % 992,0 hPa 0,0 mm 2,7 km/h (1 Bft) O-SO 112 0 min -3,2 C 5,7 km/h (1 Bft)
14.02.2016 04:43 2,7 C 2,2 C 65 % 991,9 hPa 0,0 mm 2,7 km/h (1 Bft) S-SW 202 0 min -3,2 C 0,0 km/h (0 Bft)
14.02.2016 04:44 2,7 C 2,2 C 65 % 991,9 hPa 0,0 mm 2,7 km/h (1 Bft) S-SW 202 0 min -3,2 C 0,0 km/h (0 Bft)
14.02.2016 04:45 2,5 C 2,0 C 65 % 991,9 hPa 0,0 mm 2,4 km/h (1 Bft) W-SW 247 0 min -3,4 C 7,2 km/h (2 Bft)
14.02.2016 04:46 2,5 C 2,0 C 65 % 991,9 hPa 0,0 mm 2,4 km/h (1 Bft) W-SW 247 0 min -3,4 C 7,2 km/h (2 Bft)
14.02.2016 04:47 2,6 C 2,1 C 65 % 991,9 hPa 0,0 mm 1,5 km/h (1 Bft) O-SO 112 0 min -3,3 C 0,0 km/h (0 Bft)
14.02.2016 04:48 2,6 C 2,1 C 65 % 991,9 hPa 0,0 mm 1,5 km/h (1 Bft) O-SO 112 0 min -3,3 C 0,0 km/h (0 Bft)
14.02.2016 04:49 2,4 C 2,0 C 65 % 991,9 hPa 0,0 mm 1,8 km/h (1 Bft) S-SW 202 0 min -3,5 C 6,3 km/h (2 Bft)
14.02.2016 04:50 2,4 C 2,0 C 65 % 991,9 hPa 0,0 mm 1,8 km/h (1 Bft) S-SW 202 0 min -3,5 C 6,3 km/h (2 Bft)
14.02.2016 04:51 2,0 C 1,7 C 65 % 991,9 hPa 0,0 mm 2,1 km/h (1 Bft) O-SO 112 0 min -3,9 C 4,2 km/h (1 Bft)
14.02.2016 04:52 2,0 C 1,7 C 65 % 991,9 hPa 0,0 mm 2,1 km/h (1 Bft) O-SO 112 0 min -3,9 C 4,2 km/h (1 Bft)
14.02.2016 04:53 1,7 C 1,5 C 65 % 991,9 hPa 0,0 mm 2,4 km/h (1 Bft) N 360 0 min -4,2 C 7,2 km/h (2 Bft)
14.02.2016 04:54 1,7 C 1,5 C 65 % 991,9 hPa 0,0 mm 2,4 km/h (1 Bft) N 360 0 min -4,2 C 7,2 km/h (2 Bft)
14.02.2016 04:55 1,4 C 1,2 C 65 % 991,9 hPa 0,0 mm 2,4 km/h (1 Bft) N-NO 22 0 min -4,4 C 0,0 km/h (0 Bft)
14.02.2016 04:56 1,4 C 1,2 C 65 % 991,9 hPa 0,0 mm 2,4 km/h (1 Bft) N-NO 22 0 min -4,4 C 0,0 km/h (0 Bft)
14.02.2016 04:57 1,3 C 1,1 C 67 % 991,9 hPa 0,0 mm 1,8 km/h (1 Bft) O 90 0 min -4,1 C 0,0 km/h (0 Bft)
14.02.2016 04:58 1,3 C 1,1 C 67 % 991,9 hPa 0,0 mm 1,8 km/h (1 Bft) O 90 0 min -4,1 C 0,0 km/h (0 Bft)
14.02.2016 04:59 1,4 C 1,1 C 67 % 991,9 hPa 0,0 mm 1,5 km/h (1 Bft) O-NO 67 0 min -4,0 C 0,0 km/h (0 Bft)
14.02.2016 05:00 1,4 C 1,1 C 67 % 991,9 hPa 0,0 mm 1,5 km/h (1 Bft) O-NO 67 0 min -4,0 C 0,0 km/h (0 Bft)
14.02.2016 05:01 1,2 C 0,9 C 68 % 991,9 hPa 0,0 mm 0,9 km/h (0 Bft) O-SO 112 0 min -4,0 C 0,0 km/h (0 Bft)
14.02.2016 05:02 1,2 C 0,9 C 68 % 991,9 hPa 0,0 mm 0,9 km/h (0 Bft) O-SO 112 0 min -4,0 C 0,0 km/h (0 Bft)
14.02.2016 05:03 1,2 C 0,9 C 69 % 991,8 hPa 0,0 mm 0,6 km/h (0 Bft) SO 135 0 min -3,8 C 0,0 km/h (0 Bft)
14.02.2016 05:04 1,2 C 0,9 C 69 % 991,8 hPa 0,0 mm 0,6 km/h (0 Bft) SO 135 0 min -3,8 C 0,0 km/h (0 Bft)
14.02.2016 05:05 1,0 C 0,7 C 68 % 991,8 hPa 0,0 mm 0,0 km/h (0 Bft) N-NW 337 0 min -4,2 C 0,0 km/h (0 Bft)
14.02.2016 05:06 1,0 C 0,7 C 68 % 991,8 hPa 0,0 mm 0,0 km/h (0 Bft) N-NW 337 0 min -4,2 C 0,0 km/h (0 Bft)
14.02.2016 05:07 0,8 C 0,5 C 68 % 991,8 hPa 0,0 mm 0,0 km/h (0 Bft) N-NO 22 0 min -4,4 C 0,0 km/h (0 Bft)
14.02.2016 05:08 0,8 C 0,5 C 68 % 991,8 hPa 0,0 mm 0,0 km/h (0 Bft) N-NO 22 0 min -4,4 C 0,0 km/h (0 Bft)
14.02.2016 05:09 0,9 C 0,5 C 68 % 991,8 hPa 0,0 mm 0,0 km/h (0 Bft) S 180 0 min -4,3 C 0,0 km/h (0 Bft)
14.02.2016 05:10 0,9 C 0,5 C 68 % 991,8 hPa 0,0 mm 0,0 km/h (0 Bft) S 180 0 min -4,3 C 0,0 km/h (0 Bft)
14.02.2016 05:11 1,1 C 0,6 C 69 % 991,8 hPa 0,0 mm 0,0 km/h (0 Bft) O 90 0 min -3,9 C 0,0 km/h (0 Bft)
14.02.2016 05:12 1,1 C 0,6 C 69 % 991,8 hPa 0,0 mm 0,0 km/h (0 Bft) O 90 0 min -3,9 C 0,0 km/h (0 Bft)
14.02.2016 05:13 1,2 C 0,6 C 70 % 991,8 hPa 0,0 mm 0,6 km/h (0 Bft) SO 135 0 min -3,7 C 3,3 km/h (1 Bft)
14.02.2016 05:14 1,2 C 0,6 C 70 % 991,8 hPa 0,0 mm 0,6 km/h (0 Bft) SO 135 0 min -3,7 C 3,3 km/h (1 Bft)
14.02.2016 05:15 1,2 C 0,6 C 70 % 991,8 hPa 0,0 mm 0,9 km/h (0 Bft) NW 315 0 min -3,7 C 4,2 km/h (1 Bft)
14.02.2016 05:16 1,2 C 0,6 C 70 % 991,8 hPa 0,0 mm 0,9 km/h (0 Bft) NW 315 0 min -3,7 C 4,2 km/h (1 Bft)
14.02.2016 05:17 1,1 C 0,6 C 69 % 991,8 hPa 0,0 mm 0,9 km/h (0 Bft) SW 225 0 min -3,9 C 3,6 km/h (1 Bft)
14.02.2016 05:18 1,1 C 0,6 C 69 % 991,8 hPa 0,0 mm 0,9 km/h (0 Bft) SW 225 0 min -3,9 C 3,6 km/h (1 Bft)
14.02.2016 05:19 1,1 C 0,6 C 70 % 991,8 hPa 0,0 mm 0,9 km/h (0 Bft) S-SO 157 0 min -3,7 C 0,0 km/h (0 Bft)
14.02.2016 05:20 1,1 C 0,6 C 70 % 991,8 hPa 0,0 mm 0,9 km/h (0 Bft) S-SO 157 0 min -3,7 C 0,0 km/h (0 Bft)
14.02.2016 05:21 1,2 C 0,6 C 70 % 991,8 hPa 0,0 mm 0,9 km/h (0 Bft) S 180 0 min -3,7 C 0,0 km/h (0 Bft)
14.02.2016 05:22 1,2 C 0,6 C 70 % 991,8 hPa 0,0 mm 0,9 km/h (0 Bft) S 180 0 min -3,7 C 0,0 km/h (0 Bft)
14.02.2016 05:23 1,2 C 0,6 C 70 % 992,1 hPa 0,0 mm 0,6 km/h (0 Bft) SW 225 0 min -3,7 C 3,9 km/h (1 Bft)
14.02.2016 05:24 1,2 C 0,6 C 70 % 992,1 hPa 0,0 mm 0,6 km/h (0 Bft) SW 225 0 min -3,7 C 3,9 km/h (1 Bft)
14.02.2016 05:25 1,2 C 0,6 C 70 % 992,1 hPa 0,0 mm 0,6 km/h (0 Bft) S 180 0 min -3,7 C 4,2 km/h (1 Bft)
14.02.2016 05:26 1,2 C 0,6 C 70 % 992,1 hPa 0,0 mm 0,6 km/h (0 Bft) S 180 0 min -3,7 C 4,2 km/h (1 Bft)
14.02.2016 05:27 1,2 C 0,6 C 70 % 992,1 hPa 0,0 mm 0,6 km/h (0 Bft) S 180 0 min -3,7 C 0,0 km/h (0 Bft)
14.02.2016 05:28 1,2 C 0,6 C 70 % 992,1 hPa 0,0 mm 0,6 km/h (0 Bft) S 180 0 min -3,7 C 0,0 km/h (0 Bft)
14.02.2016 05:29 1,1 C 0,5 C 70 % 992,1 hPa 0,0 mm 1,8 km/h (1 Bft) S 180 0 min -3,7 C 9,5 km/h (2 Bft)
14.02.2016 05:30 1,1 C 0,5 C 70 % 992,1 hPa 0,0 mm 1,8 km/h (1 Bft) S 180 0 min -3,7 C 9,5 km/h (2 Bft)
14.02.2016 05:31 1,1 C 0,6 C 70 % 992,1 hPa 0,0 mm 2,1 km/h (1 Bft) S-SO 157 0 min -3,7 C 0,0 km/h (0 Bft)
14.02.2016 05:32 1,1 C 0,6 C 70 % 992,1 hPa 0,0 mm 2,1 km/h (1 Bft) S-SO 157 0 min -3,7 C 0,0 km/h (0 Bft)
14.02.2016 05:33 1,0 C 0,6 C 69 % 992,1 hPa 0,0 mm 2,7 km/h (1 Bft) SO 135 0 min -4,0 C 3,3 km/h (1 Bft)
14.02.2016 05:34 1,0 C 0,6 C 69 % 992,1 hPa 0,0 mm 2,7 km/h (1 Bft) SO 135 0 min -4,0 C 3,3 km/h (1 Bft)
14.02.2016 05:35 1,0 C 0,7 C 69 % 992,1 hPa 0,0 mm 3,0 km/h (1 Bft) S-SO 157 0 min -4,0 C 4,8 km/h (1 Bft)
14.02.2016 05:36 1,0 C 0,7 C 69 % 992,1 hPa 0,0 mm 3,0 km/h (1 Bft) S-SO 157 0 min -4,0 C 4,8 km/h (1 Bft)
14.02.2016 05:37 1,0 C 0,7 C 69 % 992,1 hPa 0,0 mm 3,9 km/h (1 Bft) S-SO 157 0 min -4,0 C 5,4 km/h (1 Bft)
14.02.2016 05:38 1,0 C 0,7 C 69 % 992,1 hPa 0,0 mm 3,9 km/h (1 Bft) S-SO 157 0 min -4,0 C 5,4 km/h (1 Bft)
14.02.2016 05:39 0,9 C 0,7 C 69 % 992,1 hPa 0,0 mm 4,2 km/h (1 Bft) S-SO 157 0 min -4,1 C 5,4 km/h (1 Bft)
14.02.2016 05:40 0,9 C 0,7 C 69 % 992,1 hPa 0,0 mm 4,2 km/h (1 Bft) S-SO 157 0 min -4,1 C 5,4 km/h (1 Bft)
14.02.2016 05:41 0,9 C 0,7 C 70 % 992,1 hPa 0,0 mm 4,2 km/h (1 Bft) S-SO 157 0 min -3,9 C 5,4 km/h (1 Bft)
14.02.2016 05:42 0,9 C 0,7 C 70 % 992,1 hPa 0,0 mm 4,2 km/h (1 Bft) S-SO 157 0 min -3,9 C 5,4 km/h (1 Bft)
14.02.2016 05:43 0,8 C 0,5 C 70 % 992,0 hPa 0,0 mm 5,1 km/h (1 Bft) S-SO 157 0 min -4,0 C 7,2 km/h (2 Bft)
14.02.2016 05:44 0,8 C 0,5 C 70 % 992,0 hPa 0,0 mm 5,1 km/h (1 Bft) S-SO 157 0 min -4,0 C 7,2 km/h (2 Bft)
14.02.2016 05:45 0,7 C 0,3 C 70 % 992,0 hPa 0,0 mm 5,7 km/h (1 Bft) S 180 0 min -4,1 C 7,5 km/h (2 Bft)
14.02.2016 05:46 0,7 C 0,3 C 70 % 992,0 hPa 0,0 mm 5,7 km/h (1 Bft) S 180 0 min -4,1 C 7,5 km/h (2 Bft)
14.02.2016 05:47 0,6 C 0,3 C 70 % 992,0 hPa 0,0 mm 5,4 km/h (1 Bft) NO 45 0 min -4,2 C 0,0 km/h (0 Bft)
14.02.2016 05:48 0,6 C 0,3 C 70 % 992,0 hPa 0,0 mm 5,4 km/h (1 Bft) NO 45 0 min -4,2 C 0,0 km/h (0 Bft)
14.02.2016 05:49 0,5 C 0,2 C 71 % 992,0 hPa 0,0 mm 4,8 km/h (1 Bft) O-NO 67 0 min -4,1 C 0,0 km/h (0 Bft)
14.02.2016 05:50 0,5 C 0,2 C 71 % 992,0 hPa 0,0 mm 4,8 km/h (1 Bft) O-NO 67 0 min -4,1 C 0,0 km/h (0 Bft)
14.02.2016 05:51 0,0 C -0,2 C 71 % 992,0 hPa 0,0 mm 3,6 km/h (1 Bft) S-SO 157 0 min -4,6 C 8,6 km/h (2 Bft)
14.02.2016 05:52 0,0 C -0,2 C 71 % 992,0 hPa 0,0 mm 3,6 km/h (1 Bft) S-SO 157 0 min -4,6 C 8,6 km/h (2 Bft)
14.02.2016 05:53 0,4 C 0,0 C 72 % 992,0 hPa 0,0 mm 3,6 km/h (1 Bft) S 180 0 min -4,0 C 6,0 km/h (2 Bft)
14.02.2016 05:54 0,4 C 0,0 C 72 % 992,0 hPa 0,0 mm 3,6 km/h (1 Bft) S 180 0 min -4,0 C 6,0 km/h (2 Bft)
14.02.2016 05:55 0,5 C 0,2 C 71 % 992,0 hPa 0,0 mm 3,6 km/h (1 Bft) SW 225 0 min -4,1 C 12,2 km/h (2 Bft)
14.02.2016 05:56 0,5 C 0,2 C 71 % 992,0 hPa 0,0 mm 3,6 km/h (1 Bft) SW 225 0 min -4,1 C 12,2 km/h (2 Bft)
14.02.2016 05:57 0,6 C 0,3 C 71 % 992,0 hPa 0,0 mm 2,7 km/h (1 Bft) S-SO 157 0 min -4,0 C 0,0 km/h (0 Bft)
14.02.2016 05:58 0,6 C 0,3 C 71 % 992,0 hPa 0,0 mm 2,7 km/h (1 Bft) S-SO 157 0 min -4,0 C 0,0 km/h (0 Bft)
14.02.2016 05:59 0,5 C 0,2 C 72 % 992,0 hPa 0,0 mm 3,3 km/h (1 Bft) SO 135 0 min -3,9 C 0,0 km/h (0 Bft)
14.02.2016 06:00 0,5 C 0,2 C 72 % 992,0 hPa 0,0 mm 3,3 km/h (1 Bft) SO 135 0 min -3,9 C 0,0 km/h (0 Bft)
14.02.2016 06:01 0,5 C 0,2 C 72 % 992,0 hPa 0,0 mm 3,6 km/h (1 Bft) SO 135 0 min -3,9 C 3,0 km/h (1 Bft)
14.02.2016 06:02 0,5 C 0,2 C 72 % 992,0 hPa 0,0 mm 3,6 km/h (1 Bft) SO 135 0 min -3,9 C 3,0 km/h (1 Bft)
14.02.2016 06:03 0,5 C 0,2 C 72 % 992,1 hPa 0,0 mm 3,6 km/h (1 Bft) SO 135 0 min -3,9 C 3,0 km/h (1 Bft)
14.02.2016 06:04 0,5 C 0,2 C 72 % 992,1 hPa 0,0 mm 3,6 km/h (1 Bft) SO 135 0 min -3,9 C 3,0 km/h (1 Bft)
14.02.2016 06:05 0,4 C 0,0 C 72 % 992,1 hPa 0,0 mm 2,4 km/h (1 Bft) S 180 0 min -4,0 C 0,0 km/h (0 Bft)
14.02.2016 06:06 0,4 C 0,0 C 72 % 992,1 hPa 0,0 mm 2,4 km/h (1 Bft) S 180 0 min -4,0 C 0,0 km/h (0 Bft)
14.02.2016 06:07 0,4 C 0,0 C 72 % 992,1 hPa 0,0 mm 1,5 km/h (1 Bft) SO 135 0 min -4,0 C 0,0 km/h (0 Bft)
14.02.2016 06:08 0,4 C 0,0 C 72 % 992,1 hPa 0,0 mm 1,5 km/h (1 Bft) SO 135 0 min -4,0 C 0,0 km/h (0 Bft)
14.02.2016 06:09 0,4 C -0,1 C 72 % 992,1 hPa 0,0 mm 1,2 km/h (1 Bft) O-SO 112 0 min -4,0 C 3,0 km/h (1 Bft)
14.02.2016 06:10 0,4 C -0,1 C 72 % 992,1 hPa 0,0 mm 1,2 km/h (1 Bft) O-SO 112 0 min -4,0 C 3,0 km/h (1 Bft)
14.02.2016 06:11 0,4 C -0,1 C 72 % 992,1 hPa 0,0 mm 0,9 km/h (0 Bft) SO 135 0 min -4,0 C 0,0 km/h (0 Bft)
14.02.2016 06:12 0,4 C -0,1 C 72 % 992,1 hPa 0,0 mm 0,9 km/h (0 Bft) SO 135 0 min -4,0 C 0,0 km/h (0 Bft)
14.02.2016 06:13 0,1 C -0,3 C 71 % 992,1 hPa 0,0 mm 0,6 km/h (0 Bft) NO 45 0 min -4,5 C 0,0 km/h (0 Bft)
14.02.2016 06:14 0,1 C -0,3 C 71 % 992,1 hPa 0,0 mm 0,6 km/h (0 Bft) NO 45 0 min -4,5 C 0,0 km/h (0 Bft)
14.02.2016 06:15 -0,1 C -0,5 C 71 % 992,1 hPa 0,0 mm 0,3 km/h (0 Bft) S-SO 157 0 min -4,7 C 0,0 km/h (0 Bft)
14.02.2016 06:16 -0,1 C -0,5 C 71 % 992,1 hPa 0,0 mm 0,3 km/h (0 Bft) S-SO 157 0 min -4,7 C 0,0 km/h (0 Bft)
14.02.2016 06:17 0,0 C -0,5 C 72 % 992,1 hPa 0,0 mm 0,3 km/h (0 Bft) SO 135 0 min -4,4 C 3,0 km/h (1 Bft)
14.02.2016 06:18 0,0 C -0,5 C 72 % 992,1 hPa 0,0 mm 0,3 km/h (0 Bft) SO 135 0 min -4,4 C 3,0 km/h (1 Bft)
14.02.2016 06:19 0,0 C -0,5 C 72 % 992,1 hPa 0,0 mm 0,3 km/h (0 Bft) SO 135 0 min -4,4 C 3,3 km/h (1 Bft)
14.02.2016 06:20 0,0 C -0,5 C 72 % 992,1 hPa 0,0 mm 0,3 km/h (0 Bft) SO 135 0 min -4,4 C 3,3 km/h (1 Bft)
14.02.2016 06:21 -0,1 C -0,6 C 72 % 992,1 hPa 0,0 mm 0,3 km/h (0 Bft) O-NO 67 0 min -4,5 C 0,0 km/h (0 Bft)
14.02.2016 06:22 -0,1 C -0,6 C 72 % 992,1 hPa 0,0 mm 0,3 km/h (0 Bft) O-NO 67 0 min -4,5 C 0,0 km/h (0 Bft)
14.02.2016 06:23 -0,5 C -0,9 C 72 % 992,1 hPa 0,0 mm 0,3 km/h (0 Bft) NO 45 0 min -4,9 C 0,0 km/h (0 Bft)
14.02.2016 06:24 -0,5 C -0,9 C 72 % 992,1 hPa 0,0 mm 0,3 km/h (0 Bft) NO 45 0 min -4,9 C 0,0 km/h (0 Bft)
14.02.2016 06:25 -0,6 C -1,1 C 72 % 992,1 hPa 0,0 mm 0,3 km/h (0 Bft) NO 45 0 min -5,0 C 0,0 km/h (0 Bft)
14.02.2016 06:26 -0,6 C -1,1 C 72 % 992,1 hPa 0,0 mm 0,3 km/h (0 Bft) NO 45 0 min -5,0 C 0,0 km/h (0 Bft)
14.02.2016 06:27 -0,7 C -1,2 C 72 % 992,1 hPa 0,0 mm 0,3 km/h (0 Bft) O-SO 112 0 min -5,1 C 0,0 km/h (0 Bft)
14.02.2016 06:28 -0,7 C -1,2 C 72 % 992,1 hPa 0,0 mm 0,3 km/h (0 Bft) O-SO 112 0 min -5,1 C 0,0 km/h (0 Bft)
14.02.2016 06:29 -0,4 C -1,0 C 73 % 992,1 hPa 0,0 mm 0,6 km/h (0 Bft) SO 135 0 min -4,6 C 3,0 km/h (1 Bft)
14.02.2016 06:30 -0,4 C -1,0 C 73 % 992,1 hPa 0,0 mm 0,6 km/h (0 Bft) SO 135 0 min -4,6 C 3,0 km/h (1 Bft)
14.02.2016 06:31 -0,6 C -1,2 C 73 % 992,1 hPa 0,0 mm 0,3 km/h (0 Bft) O-SO 112 0 min -4,8 C 0,0 km/h (0 Bft)
14.02.2016 06:32 -0,6 C -1,2 C 73 % 992,1 hPa 0,0 mm 0,3 km/h (0 Bft) O-SO 112 0 min -4,8 C 0,0 km/h (0 Bft)
14.02.2016 06:33 -0,4 C -1,0 C 74 % 992,1 hPa 0,0 mm 0,3 km/h (0 Bft) O 90 0 min -4,5 C 0,0 km/h (0 Bft)
14.02.2016 06:34 -0,4 C -1,0 C 74 % 992,1 hPa 0,0 mm 0,3 km/h (0 Bft) O 90 0 min -4,5 C 0,0 km/h (0 Bft)
14.02.2016 06:35 -0,5 C -1,1 C 74 % 992,1 hPa 0,0 mm 0,3 km/h (0 Bft) O-NO 67 0 min -4,5 C 0,0 km/h (0 Bft)
14.02.2016 06:36 -0,5 C -1,1 C 74 % 992,1 hPa 0,0 mm 0,3 km/h (0 Bft) O-NO 67 0 min -4,5 C 0,0 km/h (0 Bft)
14.02.2016 06:37 -0,9 C -1,4 C 73 % 992,1 hPa 0,0 mm 0,3 km/h (0 Bft) O-NO 67 0 min -5,1 C 0,0 km/h (0 Bft)
14.02.2016 06:38 -0,9 C -1,4 C 73 % 992,1 hPa 0,0 mm 0,3 km/h (0 Bft) O-NO 67 0 min -5,1 C 0,0 km/h (0 Bft)
14.02.2016 06:39 -1,1 C -1,6 C 73 % 992,1 hPa 0,0 mm 0,3 km/h (0 Bft) N-NO 22 0 min -5,3 C 0,0 km/h (0 Bft)
14.02.2016 06:40 -1,1 C -1,6 C 73 % 992,1 hPa 0,0 mm 0,3 km/h (0 Bft) N-NO 22 0 min -5,3 C 0,0 km/h (0 Bft)
14.02.2016 06:41 -1,1 C -1,6 C 73 % 992,1 hPa 0,0 mm 0,0 km/h (0 Bft) O-NO 67 0 min -5,3 C 0,0 km/h (0 Bft)
14.02.2016 06:42 -1,1 C -1,6 C 73 % 992,1 hPa 0,0 mm 0,0 km/h (0 Bft) O-NO 67 0 min -5,3 C 0,0 km/h (0 Bft)
14.02.2016 06:43 -1,0 C -1,6 C 73 % 991,9 hPa 0,0 mm 0,0 km/h (0 Bft) N-NO 22 0 min -5,2 C 0,0 km/h (0 Bft)
14.02.2016 06:44 -1,0 C -1,6 C 73 % 991,9 hPa 0,0 mm 0,0 km/h (0 Bft) N-NO 22 0 min -5,2 C 0,0 km/h (0 Bft)
14.02.2016 06:45 -1,3 C -1,8 C 73 % 991,9 hPa 0,0 mm 0,0 km/h (0 Bft) N-NO 22 0 min -5,5 C 0,0 km/h (0 Bft)
14.02.2016 06:46 -1,3 C -1,8 C 73 % 991,9 hPa 0,0 mm 0,0 km/h (0 Bft) N-NO 22 0 min -5,5 C 0,0 km/h (0 Bft)
14.02.2016 06:47 -1,5 C -2,0 C 73 % 991,9 hPa 0,0 mm 0,0 km/h (0 Bft) N-NO 22 0 min -5,7 C 0,0 km/h (0 Bft)
14.02.2016 06:49 -1,5 C -2,0 C 73 % 991,9 hPa 0,0 mm 0,0 km/h (0 Bft) NO 45 0 min -5,7 C 0,0 km/h (0 Bft)
14.02.2016 06:50 -1,5 C -2,0 C 73 % 991,9 hPa 0,0 mm 0,0 km/h (0 Bft) NO 45 0 min -5,7 C 0,0 km/h (0 Bft)
14.02.2016 06:51 -1,4 C -2,0 C 74 % 991,9 hPa 0,0 mm 0,0 km/h (0 Bft) O-SO 112 0 min -5,4 C 0,0 km/h (0 Bft)
14.02.2016 06:52 -1,4 C -2,0 C 74 % 991,9 hPa 0,0 mm 0,0 km/h (0 Bft) O-SO 112 0 min -5,4 C 0,0 km/h (0 Bft)
14.02.2016 06:53 -1,3 C -1,9 C 74 % 991,9 hPa 0,0 mm 0,0 km/h (0 Bft) O-NO 67 0 min -5,3 C 0,0 km/h (0 Bft)
14.02.2016 06:54 -1,3 C -1,9 C 74 % 991,9 hPa 0,0 mm 0,0 km/h (0 Bft) O-NO 67 0 min -5,3 C 0,0 km/h (0 Bft)
14.02.2016 06:55 -0,9 C -1,7 C 75 % 991,9 hPa 0,0 mm 0,3 km/h (0 Bft) O-SO 112 0 min -4,8 C 3,9 km/h (1 Bft)
14.02.2016 06:56 -0,9 C -1,7 C 75 % 991,9 hPa 0,0 mm 0,3 km/h (0 Bft) O-SO 112 0 min -4,8 C 3,9 km/h (1 Bft)
14.02.2016 06:57 -0,9 C -1,7 C 75 % 991,9 hPa 0,0 mm 0,3 km/h (0 Bft) N-NW 337 0 min -4,8 C 0,0 km/h (0 Bft)
14.02.2016 06:58 -0,9 C -1,7 C 75 % 991,9 hPa 0,0 mm 0,3 km/h (0 Bft) N-NW 337 0 min -4,8 C 0,0 km/h (0 Bft)
14.02.2016 06:59 -1,1 C -1,8 C 75 % 991,9 hPa 0,0 mm 0,3 km/h (0 Bft) O-NO 67 0 min -5,0 C 0,0 km/h (0 Bft)
14.02.2016 07:00 -1,1 C -1,8 C 75 % 991,9 hPa 0,0 mm 0,3 km/h (0 Bft) O-NO 67 0 min -5,0 C 0,0 km/h (0 Bft)
14.02.2016 07:01 -1,0 C -1,7 C 76 % 991,9 hPa 0,0 mm 0,6 km/h (0 Bft) SO 135 0 min -4,7 C 3,6 km/h (1 Bft)
14.02.2016 07:02 -1,0 C -1,7 C 76 % 991,9 hPa 0,0 mm 0,6 km/h (0 Bft) SO 135 0 min -4,7 C 3,6 km/h (1 Bft)
14.02.2016 07:03 -1,0 C -1,7 C 76 % 991,6 hPa 0,0 mm 0,6 km/h (0 Bft) S-SW 202 0 min -4,7 C 0,0 km/h (0 Bft)
14.02.2016 07:04 -1,0 C -1,7 C 76 % 991,6 hPa 0,0 mm 0,6 km/h (0 Bft) S-SW 202 0 min -4,7 C 0,0 km/h (0 Bft)
14.02.2016 07:05 -0,8 C -1,5 C 76 % 991,6 hPa 0,0 mm 0,6 km/h (0 Bft) SO 135 0 min -4,5 C 0,0 km/h (0 Bft)
14.02.2016 07:06 -0,8 C -1,5 C 76 % 991,6 hPa 0,0 mm 0,6 km/h (0 Bft) SO 135 0 min -4,5 C 0,0 km/h (0 Bft)
14.02.2016 07:07 -1,0 C -1,7 C 76 % 991,6 hPa 0,0 mm 0,3 km/h (0 Bft) S-SO 157 0 min -4,7 C 3,0 km/h (1 Bft)
14.02.2016 07:08 -1,0 C -1,7 C 76 % 991,6 hPa 0,0 mm 0,3 km/h (0 Bft) S-SO 157 0 min -4,7 C 3,0 km/h (1 Bft)
14.02.2016 07:09 -1,1 C -1,7 C 76 % 991,6 hPa 0,0 mm 0,3 km/h (0 Bft) SO 135 0 min -4,8 C 0,0 km/h (0 Bft)
14.02.2016 07:10 -1,1 C -1,7 C 76 % 991,6 hPa 0,0 mm 0,3 km/h (0 Bft) SO 135 0 min -4,8 C 0,0 km/h (0 Bft)
14.02.2016 07:11 -1,4 C -1,9 C 76 % 991,6 hPa 0,0 mm 0,3 km/h (0 Bft) NW 315 0 min -5,1 C 0,0 km/h (0 Bft)
14.02.2016 07:12 -1,4 C -1,9 C 76 % 991,6 hPa 0,0 mm 0,3 km/h (0 Bft) NW 315 0 min -5,1 C 0,0 km/h (0 Bft)
14.02.2016 07:13 -1,5 C -2,0 C 75 % 991,6 hPa 0,0 mm 0,3 km/h (0 Bft) O-SO 112 0 min -5,3 C 0,0 km/h (0 Bft)
14.02.2016 07:14 -1,5 C -2,0 C 75 % 991,6 hPa 0,0 mm 0,3 km/h (0 Bft) O-SO 112 0 min -5,3 C 0,0 km/h (0 Bft)
14.02.2016 07:15 -1,3 C -1,9 C 76 % 991,6 hPa 0,0 mm 0,3 km/h (0 Bft) SO 135 0 min -5,0 C 0,0 km/h (0 Bft)
14.02.2016 07:16 -1,3 C -1,9 C 76 % 991,6 hPa 0,0 mm 0,3 km/h (0 Bft) SO 135 0 min -5,0 C 0,0 km/h (0 Bft)
14.02.2016 07:17 -1,1 C -1,7 C 76 % 991,6 hPa 0,0 mm 0,3 km/h (0 Bft) SO 135 0 min -4,8 C 0,0 km/h (0 Bft)
14.02.2016 07:18 -1,1 C -1,7 C 76 % 991,6 hPa 0,0 mm 0,3 km/h (0 Bft) SO 135 0 min -4,8 C 0,0 km/h (0 Bft)
14.02.2016 07:19 -1,2 C -1,8 C 76 % 991,6 hPa 0,0 mm 0,3 km/h (0 Bft) N-NW 337 0 min -4,9 C 6,3 km/h (2 Bft)
14.02.2016 07:20 -1,2 C -1,8 C 76 % 991,6 hPa 0,0 mm 0,3 km/h (0 Bft) N-NW 337 0 min -4,9 C 6,3 km/h (2 Bft)
14.02.2016 07:21 -1,4 C -1,9 C 76 % 991,6 hPa 0,0 mm 0,6 km/h (0 Bft) O-NO 67 0 min -5,1 C 0,0 km/h (0 Bft)
14.02.2016 07:22 -1,4 C -1,9 C 76 % 991,6 hPa 0,0 mm 0,6 km/h (0 Bft) O-NO 67 0 min -5,1 C 0,0 km/h (0 Bft)
14.02.2016 07:23 -1,5 C -2,0 C 76 % 991,8 hPa 0,0 mm 0,6 km/h (0 Bft) O-SO 112 0 min -5,2 C 0,0 km/h (0 Bft)
14.02.2016 07:24 -1,5 C -2,0 C 76 % 991,8 hPa 0,0 mm 0,6 km/h (0 Bft) O-SO 112 0 min -5,2 C 0,0 km/h (0 Bft)
14.02.2016 07:25 -1,3 C -1,9 C 76 % 991,8 hPa 0,0 mm 0,6 km/h (0 Bft) O-SO 112 0 min -5,0 C 0,0 km/h (0 Bft)
14.02.2016 07:26 -1,3 C -1,9 C 76 % 991,8 hPa 0,0 mm 0,6 km/h (0 Bft) O-SO 112 0 min -5,0 C 0,0 km/h (0 Bft)
14.02.2016 07:27 -1,3 C -1,9 C 76 % 991,8 hPa 0,0 mm 0,6 km/h (0 Bft) NO 45 0 min -5,0 C 0,0 km/h (0 Bft)
14.02.2016 07:28 -1,3 C -1,9 C 76 % 991,8 hPa 0,0 mm 0,6 km/h (0 Bft) NO 45 0 min -5,0 C 0,0 km/h (0 Bft)
14.02.2016 07:29 -1,5 C -2,0 C 76 % 991,8 hPa 0,0 mm 0,6 km/h (0 Bft) O-NO 67 0 min -5,2 C 0,0 km/h (0 Bft)
14.02.2016 07:30 -1,5 C -2,0 C 76 % 991,8 hPa 0,0 mm 0,6 km/h (0 Bft) O-NO 67 0 min -5,2 C 0,0 km/h (0 Bft)
14.02.2016 07:31 -1,5 C -2,0 C 76 % 991,8 hPa 0,0 mm 0,0 km/h (0 Bft) O-NO 67 0 min -5,2 C 0,0 km/h (0 Bft)
14.02.2016 07:32 -1,5 C -2,0 C 76 % 991,8 hPa 0,0 mm 0,0 km/h (0 Bft) O-NO 67 0 min -5,2 C 0,0 km/h (0 Bft)
14.02.2016 07:33 -1,5 C -2,0 C 76 % 991,8 hPa 0,0 mm 0,0 km/h (0 Bft) S-SO 157 0 min -5,2 C 0,0 km/h (0 Bft)
14.02.2016 07:34 -1,5 C -2,0 C 76 % 991,8 hPa 0,0 mm 0,0 km/h (0 Bft) S-SO 157 0 min -5,2 C 0,0 km/h (0 Bft)
14.02.2016 07:35 -1,4 C -2,0 C 76 % 991,8 hPa 0,0 mm 0,0 km/h (0 Bft) S-SO 157 0 min -5,1 C 0,0 km/h (0 Bft)
14.02.2016 07:36 -1,4 C -2,0 C 76 % 991,8 hPa 0,0 mm 0,0 km/h (0 Bft) S-SO 157 0 min -5,1 C 0,0 km/h (0 Bft)
14.02.2016 07:37 -1,4 C -2,0 C 76 % 991,8 hPa 0,0 mm 0,0 km/h (0 Bft) W 270 0 min -5,1 C 0,0 km/h (0 Bft)
14.02.2016 07:38 -1,4 C -2,0 C 76 % 991,8 hPa 0,0 mm 0,0 km/h (0 Bft) W 270 0 min -5,1 C 0,0 km/h (0 Bft)
14.02.2016 07:39 -1,5 C -2,0 C 76 % 991,8 hPa 0,0 mm 0,0 km/h (0 Bft) W-NW 292 0 min -5,2 C 0,0 km/h (0 Bft)
14.02.2016 07:40 -1,5 C -2,0 C 76 % 991,8 hPa 0,0 mm 0,0 km/h (0 Bft) W-NW 292 0 min -5,2 C 0,0 km/h (0 Bft)
14.02.2016 07:41 -1,6 C -2,1 C 76 % 991,8 hPa 0,0 mm 0,0 km/h (0 Bft) W-NW 292 0 min -5,3 C 0,0 km/h (0 Bft)
14.02.2016 07:42 -1,6 C -2,1 C 76 % 991,8 hPa 0,0 mm 0,0 km/h (0 Bft) W-NW 292 0 min -5,3 C 0,0 km/h (0 Bft)
14.02.2016 07:43 -1,4 C -2,0 C 76 % 991,6 hPa 0,0 mm 0,0 km/h (0 Bft) O-SO 112 0 min -5,1 C 0,0 km/h (0 Bft)
14.02.2016 07:44 -1,4 C -2,0 C 76 % 991,6 hPa 0,0 mm 0,0 km/h (0 Bft) O-SO 112 0 min -5,1 C 0,0 km/h (0 Bft)
14.02.2016 07:45 -1,2 C -1,8 C 77 % 991,6 hPa 0,0 mm 0,0 km/h (0 Bft) O-SO 112 0 min -4,7 C 0,0 km/h (0 Bft)
14.02.2016 07:46 -1,2 C -1,8 C 77 % 991,6 hPa 0,0 mm 0,0 km/h (0 Bft) O-SO 112 0 min -4,7 C 0,0 km/h (0 Bft)
14.02.2016 07:47 -1,2 C -1,8 C 77 % 991,6 hPa 0,0 mm 0,0 km/h (0 Bft) SO 135 0 min -4,7 C 0,0 km/h (0 Bft)
14.02.2016 07:48 -1,2 C -1,8 C 77 % 991,6 hPa 0,0 mm 0,0 km/h (0 Bft) SO 135 0 min -4,7 C 0,0 km/h (0 Bft)
14.02.2016 07:49 -1,3 C -1,9 C 76 % 991,6 hPa 0,7 mm 0,0 km/h (0 Bft) N-NO 22 0 min -5,0 C 0,0 km/h (0 Bft)
14.02.2016 07:50 -1,3 C -1,9 C 76 % 991,6 hPa 0,0 mm 0,0 km/h (0 Bft) N-NO 22 0 min -5,0 C 0,0 km/h (0 Bft)
14.02.2016 07:51 -1,4 C -1,9 C 76 % 991,6 hPa 0,0 mm 0,0 km/h (0 Bft) O-NO 67 0 min -5,1 C 0,0 km/h (0 Bft)
14.02.2016 07:52 -1,4 C -1,9 C 76 % 991,6 hPa 0,0 mm 0,0 km/h (0 Bft) O-NO 67 0 min -5,1 C 0,0 km/h (0 Bft)
14.02.2016 07:53 -1,4 C -1,9 C 77 % 991,6 hPa 0,0 mm 0,0 km/h (0 Bft) O-NO 67 0 min -4,9 C 0,0 km/h (0 Bft)
14.02.2016 07:54 -1,4 C -1,9 C 77 % 991,6 hPa 0,0 mm 0,0 km/h (0 Bft) O-NO 67 0 min -4,9 C 0,0 km/h (0 Bft)
14.02.2016 07:55 -1,4 C -1,9 C 77 % 991,6 hPa 0,0 mm 0,0 km/h (0 Bft) O-NO 67 0 min -4,9 C 0,0 km/h (0 Bft)
14.02.2016 07:56 -1,4 C -1,9 C 77 % 991,6 hPa 0,0 mm 0,0 km/h (0 Bft) O-NO 67 0 min -4,9 C 0,0 km/h (0 Bft)
14.02.2016 07:57 -1,5 C -2,0 C 77 % 991,6 hPa 0,0 mm 0,0 km/h (0 Bft) N-NW 337 0 min -5,0 C 0,0 km/h (0 Bft)
14.02.2016 07:58 -1,5 C -2,0 C 77 % 991,6 hPa 0,0 mm 0,0 km/h (0 Bft) N-NW 337 0 min -5,0 C 0,0 km/h (0 Bft)
14.02.2016 07:59 -1,6 C -2,1 C 77 % 991,6 hPa 0,0 mm 0,6 km/h (0 Bft) N-NO 22 0 min -5,1 C 0,0 km/h (0 Bft)
14.02.2016 08:00 -1,6 C -2,1 C 77 % 991,6 hPa 0,0 mm 0,6 km/h (0 Bft) N-NO 22 0 min -5,1 C 0,0 km/h (0 Bft)
14.02.2016 08:01 -1,6 C -2,1 C 77 % 991,6 hPa 0,0 mm 0,6 km/h (0 Bft) O-SO 112 0 min -5,1 C 0,0 km/h (0 Bft)
14.02.2016 08:02 -1,6 C -2,1 C 77 % 991,6 hPa 0,0 mm 0,6 km/h (0 Bft) O-SO 112 0 min -5,1 C 0,0 km/h (0 Bft)
14.02.2016 08:03 -1,4 C -1,9 C 74 % 991,8 hPa 0,0 mm 0,6 km/h (0 Bft) O-SO 112 0 min -5,4 C 0,0 km/h (0 Bft)
14.02.2016 08:04 -1,4 C -1,9 C 74 % 991,8 hPa 0,0 mm 0,6 km/h (0 Bft) O-SO 112 0 min -5,4 C 0,0 km/h (0 Bft)
14.02.2016 08:05 -1,4 C -1,9 C 78 % 991,8 hPa 0,0 mm 0,6 km/h (0 Bft) O-NO 67 0 min -4,7 C 0,0 km/h (0 Bft)
14.02.2016 08:06 -1,4 C -1,9 C 78 % 991,8 hPa 0,0 mm 0,6 km/h (0 Bft) O-NO 67 0 min -4,7 C 0,0 km/h (0 Bft)
14.02.2016 08:07 -1,5 C -2,0 C 78 % 991,8 hPa 0,0 mm 0,6 km/h (0 Bft) N-NO 22 0 min -4,8 C 0,0 km/h (0 Bft)
14.02.2016 08:08 -1,5 C -2,0 C 78 % 991,8 hPa 0,0 mm 0,6 km/h (0 Bft) N-NO 22 0 min -4,8 C 0,0 km/h (0 Bft)
14.02.2016 08:09 -1,6 C -2,0 C 77 % 991,8 hPa 0,0 mm 0,0 km/h (0 Bft) N-NW 337 0 min -5,1 C 0,0 km/h (0 Bft)
14.02.2016 08:10 -1,6 C -2,0 C 77 % 991,8 hPa 0,0 mm 0,0 km/h (0 Bft) N-NW 337 0 min -5,1 C 0,0 km/h (0 Bft)
14.02.2016 08:11 -1,6 C -2,0 C 78 % 991,8 hPa 0,0 mm 0,0 km/h (0 Bft) O-NO 67 0 min -4,9 C 0,0 km/h (0 Bft)
14.02.2016 08:12 -1,6 C -2,0 C 78 % 991,8 hPa 0,0 mm 0,0 km/h (0 Bft) O-NO 67 0 min -4,9 C 0,0 km/h (0 Bft)
14.02.2016 08:13 -1,5 C -1,9 C 78 % 991,8 hPa 0,0 mm 0,0 km/h (0 Bft) N 360 0 min -4,8 C 0,0 km/h (0 Bft)
14.02.2016 08:14 -1,5 C -1,9 C 78 % 991,8 hPa 0,0 mm 0,0 km/h (0 Bft) N 360 0 min -4,8 C 0,0 km/h (0 Bft)
14.02.2016 08:15 -1,4 C -1,8 C 78 % 991,8 hPa 0,0 mm 0,0 km/h (0 Bft) O-NO 67 0 min -4,7 C 0,0 km/h (0 Bft)
14.02.2016 08:16 -1,4 C -1,8 C 78 % 991,8 hPa 0,0 mm 0,0 km/h (0 Bft) O-NO 67 0 min -4,7 C 0,0 km/h (0 Bft)
14.02.2016 08:17 -1,4 C -1,8 C 78 % 991,8 hPa 0,0 mm 0,0 km/h (0 Bft) O 90 0 min -4,7 C 0,0 km/h (0 Bft)
14.02.2016 08:18 -1,4 C -1,8 C 78 % 991,8 hPa 0,0 mm 0,0 km/h (0 Bft) O 90 0 min -4,7 C 0,0 km/h (0 Bft)
14.02.2016 08:19 -1,4 C -1,7 C 75 % 991,8 hPa 0,0 mm 0,0 km/h (0 Bft) O-SO 112 0 min -5,2 C 0,0 km/h (0 Bft)
14.02.2016 08:20 -1,4 C -1,7 C 75 % 991,8 hPa 0,0 mm 0,0 km/h (0 Bft) O-SO 112 0 min -5,2 C 0,0 km/h (0 Bft)
14.02.2016 08:21 -1,2 C -1,5 C 75 % 991,8 hPa 0,0 mm 0,0 km/h (0 Bft) O-SO 112 0 min -5,0 C 0,0 km/h (0 Bft)
14.02.2016 08:22 -1,2 C -1,5 C 75 % 991,8 hPa 0,0 mm 0,0 km/h (0 Bft) O-SO 112 0 min -5,0 C 0,0 km/h (0 Bft)
14.02.2016 08:23 -1,1 C -1,4 C 75 % 991,8 hPa 0,0 mm 0,0 km/h (0 Bft) O 90 0 min -5,0 C 0,0 km/h (0 Bft)
14.02.2016 08:24 -1,1 C -1,4 C 75 % 991,8 hPa 0,0 mm 0,0 km/h (0 Bft) O 90 0 min -5,0 C 0,0 km/h (0 Bft)
14.02.2016 08:25 -1,1 C -1,5 C 78 % 991,8 hPa 0,0 mm 0,0 km/h (0 Bft) O 90 0 min -4,4 C 0,0 km/h (0 Bft)
14.02.2016 08:26 -1,1 C -1,5 C 78 % 991,8 hPa 0,0 mm 0,0 km/h (0 Bft) O 90 0 min -4,4 C 0,0 km/h (0 Bft)
14.02.2016 08:27 -1,2 C -1,6 C 78 % 991,8 hPa 0,0 mm 0,0 km/h (0 Bft) O-SO 112 0 min -4,5 C 0,0 km/h (0 Bft)
14.02.2016 08:28 -1,2 C -1,6 C 78 % 991,8 hPa 0,0 mm 0,0 km/h (0 Bft) O-SO 112 0 min -4,5 C 0,0 km/h (0 Bft)
14.02.2016 08:29 -1,0 C -1,5 C 78 % 991,8 hPa 0,0 mm 0,0 km/h (0 Bft) SO 135 0 min -4,3 C 0,0 km/h (0 Bft)
14.02.2016 08:30 -1,0 C -1,5 C 78 % 991,8 hPa 0,0 mm 0,0 km/h (0 Bft) SO 135 0 min -4,3 C 0,0 km/h (0 Bft)
14.02.2016 08:31 -0,7 C -1,2 C 78 % 991,8 hPa 0,0 mm 0,0 km/h (0 Bft) O 90 0 min -4,0 C 0,0 km/h (0 Bft)
14.02.2016 08:32 -0,7 C -1,2 C 78 % 991,8 hPa 0,0 mm 0,0 km/h (0 Bft) O 90 0 min -4,0 C 0,0 km/h (0 Bft)
14.02.2016 08:33 -0,6 C -1,1 C 75 % 991,8 hPa 0,0 mm 0,0 km/h (0 Bft) O-SO 112 0 min -4,5 C 0,0 km/h (0 Bft)
14.02.2016 08:34 -0,6 C -1,1 C 75 % 991,8 hPa 0,0 mm 0,0 km/h (0 Bft) O-SO 112 0 min -4,5 C 0,0 km/h (0 Bft)
14.02.2016 08:35 -0,6 C -1,0 C 75 % 991,8 hPa 0,0 mm 0,0 km/h (0 Bft) O-NO 67 0 min -4,5 C 0,0 km/h (0 Bft)
14.02.2016 08:36 -0,6 C -1,0 C 75 % 991,8 hPa 0,0 mm 0,0 km/h (0 Bft) O-NO 67 0 min -4,5 C 0,0 km/h (0 Bft)
14.02.2016 08:37 -0,8 C -1,2 C 78 % 991,8 hPa 0,0 mm 0,0 km/h (0 Bft) N-NO 22 0 min -4,1 C 0,0 km/h (0 Bft)
14.02.2016 08:38 -0,8 C -1,2 C 78 % 991,8 hPa 0,0 mm 0,0 km/h (0 Bft) N-NO 22 0 min -4,1 C 0,0 km/h (0 Bft)
14.02.2016 08:39 -0,9 C -1,3 C 78 % 991,8 hPa 0,0 mm 0,0 km/h (0 Bft) NW 315 0 min -4,2 C 0,0 km/h (0 Bft)
14.02.2016 08:40 -0,9 C -1,3 C 78 % 991,8 hPa 0,0 mm 0,0 km/h (0 Bft) NW 315 0 min -4,2 C 0,0 km/h (0 Bft)
14.02.2016 08:41 -1,0 C -1,3 C 78 % 991,8 hPa 0,0 mm 0,0 km/h (0 Bft) W-NW 292 0 min -4,3 C 0,0 km/h (0 Bft)
14.02.2016 08:42 -1,0 C -1,3 C 78 % 991,8 hPa 0,0 mm 0,0 km/h (0 Bft) W-NW 292 0 min -4,3 C 0,0 km/h (0 Bft)
14.02.2016 08:43 -0,9 C -1,2 C 78 % 991,8 hPa 0,0 mm 0,0 km/h (0 Bft) W-NW 292 0 min -4,2 C 0,0 km/h (0 Bft)
14.02.2016 08:44 -0,9 C -1,2 C 78 % 991,8 hPa 0,0 mm 0,0 km/h (0 Bft) W-NW 292 0 min -4,2 C 0,0 km/h (0 Bft)
14.02.2016 08:45 -0,5 C -0,9 C 78 % 991,8 hPa 0,0 mm 0,0 km/h (0 Bft) O-SO 112 0 min -3,9 C 0,0 km/h (0 Bft)
14.02.2016 08:46 -0,5 C -0,9 C 78 % 991,8 hPa 0,0 mm 0,0 km/h (0 Bft) O-SO 112 0 min -3,9 C 0,0 km/h (0 Bft)
14.02.2016 08:47 -0,4 C -0,8 C 78 % 991,8 hPa 0,0 mm 0,0 km/h (0 Bft) O-SO 112 0 min -3,8 C 0,0 km/h (0 Bft)
14.02.2016 08:48 -0,4 C -0,8 C 78 % 991,8 hPa 0,0 mm 0,0 km/h (0 Bft) O-SO 112 0 min -3,8 C 0,0 km/h (0 Bft)
14.02.2016 08:49 -0,5 C -0,8 C 78 % 991,8 hPa 0,0 mm 0,0 km/h (0 Bft) O-SO 112 0 min -3,9 C 0,0 km/h (0 Bft)
14.02.2016 08:50 -0,5 C -0,8 C 78 % 991,8 hPa 0,0 mm 0,0 km/h (0 Bft) O-SO 112 0 min -3,9 C 0,0 km/h (0 Bft)
14.02.2016 08:51 -0,5 C -0,8 C 78 % 991,8 hPa 0,0 mm 0,0 km/h (0 Bft) NW 315 0 min -3,9 C 0,0 km/h (0 Bft)
14.02.2016 08:52 -0,5 C -0,8 C 78 % 991,8 hPa 0,0 mm 0,0 km/h (0 Bft) NW 315 0 min -3,9 C 0,0 km/h (0 Bft)
14.02.2016 08:53 -0,5 C -0,7 C 78 % 991,8 hPa 0,0 mm 0,0 km/h (0 Bft) W 270 0 min -3,9 C 0,0 km/h (0 Bft)
14.02.2016 08:54 -0,5 C -0,7 C 78 % 991,8 hPa 0,0 mm 0,0 km/h (0 Bft) W 270 0 min -3,9 C 0,0 km/h (0 Bft)
14.02.2016 08:55 -0,6 C -0,8 C 78 % 991,8 hPa 0,0 mm 0,0 km/h (0 Bft) W-NW 292 0 min -3,9 C 0,0 km/h (0 Bft)
14.02.2016 08:56 -0,6 C -0,8 C 78 % 991,8 hPa 0,0 mm 0,0 km/h (0 Bft) W-NW 292 0 min -3,9 C 0,0 km/h (0 Bft)
14.02.2016 08:57 -0,5 C -0,7 C 78 % 991,8 hPa 0,0 mm 0,0 km/h (0 Bft) NW 315 0 min -3,9 C 0,0 km/h (0 Bft)
14.02.2016 08:58 -0,5 C -0,7 C 78 % 991,8 hPa 0,0 mm 0,0 km/h (0 Bft) NW 315 0 min -3,9 C 0,0 km/h (0 Bft)
14.02.2016 08:59 -0,5 C -0,7 C 78 % 991,8 hPa 0,0 mm 0,0 km/h (0 Bft) O-NO 67 0 min -3,9 C 0,0 km/h (0 Bft)
14.02.2016 09:00 -0,5 C -0,7 C 78 % 991,8 hPa 0,0 mm 0,0 km/h (0 Bft) O-NO 67 0 min -3,9 C 0,0 km/h (0 Bft)
14.02.2016 09:01 -0,5 C -0,7 C 78 % 991,8 hPa 0,0 mm 0,0 km/h (0 Bft) O-NO 67 0 min -3,9 C 0,0 km/h (0 Bft)
14.02.2016 09:02 -0,5 C -0,7 C 78 % 991,8 hPa 0,0 mm 0,0 km/h (0 Bft) O-NO 67 0 min -3,9 C 0,0 km/h (0 Bft)
14.02.2016 09:03 -0,5 C -0,6 C 78 % 992,0 hPa 0,0 mm 0,0 km/h (0 Bft) N-NO 22 0 min -3,9 C 0,0 km/h (0 Bft)
14.02.2016 09:04 -0,5 C -0,6 C 78 % 992,0 hPa 0,0 mm 0,0 km/h (0 Bft) N-NO 22 0 min -3,9 C 0,0 km/h (0 Bft)
14.02.2016 09:05 -0,5 C -0,6 C 78 % 992,0 hPa 0,0 mm 0,0 km/h (0 Bft) N-NO 22 0 min -3,9 C 0,0 km/h (0 Bft)
14.02.2016 09:06 -0,5 C -0,6 C 78 % 992,0 hPa 0,0 mm 0,0 km/h (0 Bft) N-NO 22 0 min -3,9 C 0,0 km/h (0 Bft)
14.02.2016 09:07 -0,6 C -0,7 C 77 % 992,0 hPa 0,0 mm 0,0 km/h (0 Bft) N-NW 337 0 min -4,1 C 0,0 km/h (0 Bft)
14.02.2016 09:08 -0,6 C -0,7 C 77 % 992,0 hPa 0,0 mm 0,0 km/h (0 Bft) N-NW 337 0 min -4,1 C 0,0 km/h (0 Bft)
14.02.2016 09:09 -0,6 C -0,7 C 77 % 992,0 hPa 0,0 mm 0,0 km/h (0 Bft) SW 225 0 min -4,1 C 0,0 km/h (0 Bft)
14.02.2016 09:10 -0,6 C -0,7 C 77 % 992,0 hPa 0,0 mm 0,0 km/h (0 Bft) SW 225 0 min -4,1 C 0,0 km/h (0 Bft)
14.02.2016 09:11 -0,5 C -0,6 C 78 % 992,0 hPa 0,0 mm 0,0 km/h (0 Bft) W-NW 292 0 min -3,9 C 0,0 km/h (0 Bft)
14.02.2016 09:12 -0,5 C -0,6 C 78 % 992,0 hPa 0,0 mm 0,0 km/h (0 Bft) W-NW 292 0 min -3,9 C 0,0 km/h (0 Bft)
14.02.2016 09:13 -0,4 C -0,5 C 78 % 992,0 hPa 0,0 mm 0,0 km/h (0 Bft) S-SW 202 0 min -3,8 C 0,0 km/h (0 Bft)
14.02.2016 09:14 -0,4 C -0,5 C 78 % 992,0 hPa 0,0 mm 0,0 km/h (0 Bft) S-SW 202 0 min -3,8 C 0,0 km/h (0 Bft)
14.02.2016 09:15 -0,3 C -0,4 C 78 % 992,0 hPa 0,0 mm 0,0 km/h (0 Bft) S 180 0 min -3,7 C 0,0 km/h (0 Bft)
14.02.2016 09:16 -0,3 C -0,4 C 78 % 992,0 hPa 0,0 mm 0,0 km/h (0 Bft) S 180 0 min -3,7 C 0,0 km/h (0 Bft)
14.02.2016 09:17 -0,2 C -0,3 C 78 % 992,0 hPa 0,0 mm 0,0 km/h (0 Bft) W-NW 292 0 min -3,6 C 0,0 km/h (0 Bft)
14.02.2016 09:18 -0,2 C -0,3 C 78 % 992,0 hPa 0,0 mm 0,0 km/h (0 Bft) W-NW 292 0 min -3,6 C 0,0 km/h (0 Bft)
14.02.2016 09:19 -0,1 C -0,1 C 78 % 992,0 hPa 0,0 mm 0,0 km/h (0 Bft) NW 315 0 min -3,5 C 0,0 km/h (0 Bft)
14.02.2016 09:20 -0,1 C -0,1 C 78 % 992,0 hPa 0,0 mm 0,0 km/h (0 Bft) NW 315 0 min -3,5 C 0,0 km/h (0 Bft)
14.02.2016 09:21 0,0 C 0,0 C 77 % 992,0 hPa 0,0 mm 0,0 km/h (0 Bft) W-NW 292 0 min -3,5 C 0,0 km/h (0 Bft)
14.02.2016 09:22 0,0 C 0,0 C 77 % 992,0 hPa 0,0 mm 0,0 km/h (0 Bft) W-NW 292 0 min -3,5 C 0,0 km/h (0 Bft)
14.02.2016 09:23 0,1 C 0,2 C 75 % 992,0 hPa 0,0 mm 0,0 km/h (0 Bft) S 180 0 min -3,8 C 0,0 km/h (0 Bft)
14.02.2016 09:24 0,1 C 0,2 C 75 % 992,0 hPa 0,0 mm 0,0 km/h (0 Bft) S 180 0 min -3,8 C 0,0 km/h (0 Bft)
14.02.2016 09:25 0,4 C 0,4 C 78 % 992,0 hPa 0,0 mm 0,0 km/h (0 Bft) S-SO 157 0 min -3,0 C 0,0 km/h (0 Bft)
14.02.2016 09:26 0,4 C 0,4 C 78 % 992,0 hPa 0,0 mm 0,0 km/h (0 Bft) S-SO 157 0 min -3,0 C 0,0 km/h (0 Bft)
14.02.2016 09:27 0,5 C 0,8 C 75 % 992,0 hPa 0,0 mm 0,0 km/h (0 Bft) S-SO 157 0 min -3,4 C 0,0 km/h (0 Bft)
14.02.2016 09:28 0,5 C 0,8 C 75 % 992,0 hPa 0,0 mm 0,0 km/h (0 Bft) S-SO 157 0 min -3,4 C 0,0 km/h (0 Bft)
14.02.2016 09:29 0,7 C 1,0 C 75 % 992,0 hPa 0,0 mm 0,0 km/h (0 Bft) S-SO 157 0 min -3,2 C 0,0 km/h (0 Bft)
14.02.2016 09:30 0,7 C 1,0 C 75 % 992,0 hPa 0,0 mm 0,0 km/h (0 Bft) S-SO 157 0 min -3,2 C 0,0 km/h (0 Bft)
14.02.2016 09:31 0,8 C 1,6 C 75 % 992,0 hPa 0,0 mm 0,0 km/h (0 Bft) S-SO 157 0 min -3,1 C 0,0 km/h (0 Bft)
14.02.2016 09:32 0,8 C 1,6 C 75 % 992,0 hPa 0,0 mm 0,0 km/h (0 Bft) S-SO 157 0 min -3,1 C 0,0 km/h (0 Bft)
14.02.2016 09:33 1,0 C 2,1 C 75 % 992,0 hPa 0,0 mm 0,0 km/h (0 Bft) O-NO 67 0 min -2,9 C 0,0 km/h (0 Bft)
14.02.2016 09:34 1,0 C 2,1 C 75 % 992,0 hPa 0,0 mm 0,0 km/h (0 Bft) O-NO 67 0 min -2,9 C 0,0 km/h (0 Bft)
14.02.2016 09:35 1,1 C 2,5 C 75 % 992,0 hPa 0,0 mm 0,0 km/h (0 Bft) O-NO 67 0 min -2,8 C 0,0 km/h (0 Bft)
14.02.2016 09:36 1,1 C 2,5 C 75 % 992,0 hPa 0,0 mm 0,0 km/h (0 Bft) O-NO 67 0 min -2,8 C 0,0 km/h (0 Bft)
14.02.2016 09:37 1,4 C 3,0 C 74 % 992,0 hPa 0,0 mm 0,0 km/h (0 Bft) O-NO 67 0 min -2,7 C 0,0 km/h (0 Bft)
14.02.2016 09:38 1,4 C 3,0 C 74 % 992,0 hPa 0,0 mm 0,0 km/h (0 Bft) O-NO 67 0 min -2,7 C 0,0 km/h (0 Bft)
14.02.2016 09:39 1,4 C 3,4 C 74 % 992,0 hPa 0,0 mm 0,0 km/h (0 Bft) O-NO 67 0 min -2,7 C 0,0 km/h (0 Bft)
14.02.2016 09:40 1,4 C 3,4 C 74 % 992,0 hPa 0,0 mm 0,0 km/h (0 Bft) O-NO 67 0 min -2,7 C 0,0 km/h (0 Bft)
14.02.2016 09:41 1,5 C 3,8 C 74 % 992,0 hPa 0,0 mm 0,0 km/h (0 Bft) O-NO 67 0 min -2,6 C 0,0 km/h (0 Bft)
14.02.2016 09:42 1,5 C 3,8 C 74 % 992,0 hPa 0,0 mm 0,0 km/h (0 Bft) O-NO 67 0 min -2,6 C 0,0 km/h (0 Bft)
14.02.2016 09:43 1,6 C 4,0 C 74 % 991,8 hPa 0,0 mm 0,0 km/h (0 Bft) O-NO 67 0 min -2,5 C 0,0 km/h (0 Bft)
14.02.2016 09:44 1,6 C 4,0 C 74 % 991,8 hPa 0,0 mm 0,0 km/h (0 Bft) O-NO 67 0 min -2,5 C 0,0 km/h (0 Bft)
14.02.2016 09:45 1,6 C 4,1 C 74 % 991,8 hPa 0,0 mm 0,0 km/h (0 Bft) O-NO 67 0 min -2,5 C 0,0 km/h (0 Bft)
14.02.2016 09:46 1,6 C 4,1 C 74 % 991,8 hPa 0,0 mm 0,0 km/h (0 Bft) O-NO 67 0 min -2,5 C 0,0 km/h (0 Bft)
14.02.2016 09:47 1,7 C 4,1 C 74 % 991,8 hPa 0,0 mm 0,0 km/h (0 Bft) O-NO 67 0 min -2,4 C 0,0 km/h (0 Bft)
14.02.2016 09:48 1,7 C 4,1 C 74 % 991,8 hPa 0,0 mm 0,0 km/h (0 Bft) O-NO 67 0 min -2,4 C 0,0 km/h (0 Bft)
14.02.2016 09:49 1,8 C 4,1 C 73 % 991,8 hPa 0,0 mm 0,0 km/h (0 Bft) O-SO 112 0 min -2,5 C 0,0 km/h (0 Bft)
14.02.2016 09:50 1,8 C 4,1 C 73 % 991,8 hPa 0,0 mm 0,0 km/h (0 Bft) O-SO 112 0 min -2,5 C 0,0 km/h (0 Bft)
14.02.2016 09:51 1,8 C 4,0 C 73 % 991,8 hPa 0,0 mm 0,0 km/h (0 Bft) O-SO 112 0 min -2,5 C 0,0 km/h (0 Bft)
14.02.2016 09:52 1,8 C 4,0 C 73 % 991,8 hPa 0,0 mm 0,0 km/h (0 Bft) O-SO 112 0 min -2,5 C 0,0 km/h (0 Bft)
14.02.2016 09:53 1,8 C 4,0 C 73 % 991,8 hPa 0,0 mm 0,0 km/h (0 Bft) O-SO 112 0 min -2,5 C 0,0 km/h (0 Bft)
14.02.2016 09:54 1,8 C 4,0 C 73 % 991,8 hPa 0,0 mm 0,0 km/h (0 Bft) O-SO 112 0 min -2,5 C 0,0 km/h (0 Bft)
14.02.2016 09:55 1,9 C 3,9 C 73 % 991,8 hPa 0,0 mm 0,0 km/h (0 Bft) O-SO 112 0 min -2,4 C 0,0 km/h (0 Bft)
14.02.2016 09:56 1,9 C 3,9 C 73 % 991,8 hPa 0,0 mm 0,0 km/h (0 Bft) O-SO 112 0 min -2,4 C 0,0 km/h (0 Bft)
14.02.2016 09:57 2,0 C 3,9 C 73 % 991,8 hPa 0,0 mm 0,0 km/h (0 Bft) O-SO 112 0 min -2,3 C 0,0 km/h (0 Bft)
14.02.2016 09:58 2,0 C 3,9 C 73 % 991,8 hPa 0,0 mm 0,0 km/h (0 Bft) O-SO 112 0 min -2,3 C 0,0 km/h (0 Bft)
14.02.2016 09:59 2,2 C 4,0 C 73 % 991,8 hPa 0,0 mm 0,0 km/h (0 Bft) O-SO 112 0 min -2,1 C 0,0 km/h (0 Bft)
14.02.2016 10:00 2,2 C 4,0 C 73 % 991,8 hPa 0,0 mm 0,0 km/h (0 Bft) O-SO 112 0 min -2,1 C 0,0 km/h (0 Bft)
14.02.2016 10:01 2,3 C 4,3 C 72 % 991,8 hPa 0,0 mm 0,0 km/h (0 Bft) S-SO 157 0 min -2,2 C 0,0 km/h (0 Bft)
14.02.2016 10:02 2,3 C 4,3 C 72 % 991,8 hPa 0,0 mm 0,0 km/h (0 Bft) S-SO 157 0 min -2,2 C 0,0 km/h (0 Bft)
14.02.2016 10:03 2,4 C 4,7 C 72 % 991,9 hPa 0,0 mm 0,0 km/h (0 Bft) S-SO 157 0 min -2,1 C 0,0 km/h (0 Bft)
14.02.2016 10:04 2,4 C 4,7 C 72 % 991,9 hPa 0,0 mm 0,0 km/h (0 Bft) S-SO 157 0 min -2,1 C 0,0 km/h (0 Bft)
14.02.2016 10:05 2,6 C 5,3 C 72 % 991,9 hPa 0,0 mm 0,0 km/h (0 Bft) S-SO 157 0 min -1,9 C 0,0 km/h (0 Bft)
14.02.2016 10:06 2,6 C 5,3 C 72 % 991,9 hPa 0,0 mm 0,0 km/h (0 Bft) S-SO 157 0 min -1,9 C 0,0 km/h (0 Bft)
14.02.2016 10:07 2,7 C 5,8 C 72 % 991,9 hPa 0,0 mm 0,0 km/h (0 Bft) S-SO 157 1 min -1,8 C 0,0 km/h (0 Bft)
14.02.2016 10:08 2,7 C 5,8 C 72 % 991,9 hPa 0,0 mm 0,0 km/h (0 Bft) S-SO 157 1 min -1,8 C 0,0 km/h (0 Bft)
14.02.2016 10:09 2,8 C 6,0 C 72 % 991,9 hPa 0,0 mm 0,0 km/h (0 Bft) S-SO 157 1 min -1,7 C 0,0 km/h (0 Bft)
14.02.2016 10:10 2,8 C 6,0 C 72 % 991,9 hPa 0,0 mm 0,0 km/h (0 Bft) S-SO 157 1 min -1,7 C 0,0 km/h (0 Bft)
14.02.2016 10:11 3,0 C 6,2 C 70 % 991,9 hPa 0,0 mm 0,0 km/h (0 Bft) S-SO 157 1 min -1,9 C 0,0 km/h (0 Bft)
14.02.2016 10:12 3,0 C 6,2 C 70 % 991,9 hPa 0,0 mm 0,0 km/h (0 Bft) S-SO 157 1 min -1,9 C 0,0 km/h (0 Bft)
14.02.2016 10:13 3,1 C 6,5 C 70 % 991,9 hPa 0,0 mm 0,0 km/h (0 Bft) S 180 1 min -1,8 C 0,0 km/h (0 Bft)
14.02.2016 10:14 3,1 C 6,5 C 70 % 991,9 hPa 0,0 mm 0,0 km/h (0 Bft) S 180 1 min -1,8 C 0,0 km/h (0 Bft)
14.02.2016 10:15 3,1 C 6,7 C 70 % 991,9 hPa 0,0 mm 0,0 km/h (0 Bft) W-SW 247 1 min -1,8 C 0,0 km/h (0 Bft)
14.02.2016 10:16 3,1 C 6,7 C 70 % 991,9 hPa 0,0 mm 0,0 km/h (0 Bft) W-SW 247 1 min -1,8 C 0,0 km/h (0 Bft)
14.02.2016 10:17 3,4 C 7,0 C 71 % 991,9 hPa 0,0 mm 0,0 km/h (0 Bft) W-SW 247 1 min -1,3 C 0,0 km/h (0 Bft)
14.02.2016 10:18 3,4 C 7,0 C 71 % 991,9 hPa 0,0 mm 0,0 km/h (0 Bft) W-SW 247 1 min -1,3 C 0,0 km/h (0 Bft)
14.02.2016 10:19 3,5 C 7,3 C 70 % 991,9 hPa 0,0 mm 0,0 km/h (0 Bft) SW 225 1 min -1,4 C 0,0 km/h (0 Bft)
14.02.2016 10:20 3,5 C 7,3 C 70 % 991,9 hPa 0,0 mm 0,0 km/h (0 Bft) SW 225 1 min -1,4 C 0,0 km/h (0 Bft)
14.02.2016 10:21 3,6 C 7,9 C 70 % 991,9 hPa 0,0 mm 0,0 km/h (0 Bft) SW 225 1 min -1,3 C 0,0 km/h (0 Bft)
14.02.2016 10:22 3,6 C 7,9 C 70 % 991,9 hPa 0,0 mm 0,0 km/h (0 Bft) SW 225 1 min -1,3 C 0,0 km/h (0 Bft)
14.02.2016 10:23 3,7 C 8,9 C 70 % 991,8 hPa 0,0 mm 0,0 km/h (0 Bft) W-SW 247 1 min -1,3 C 0,0 km/h (0 Bft)
14.02.2016 10:24 3,7 C 8,9 C 70 % 991,8 hPa 0,0 mm 0,0 km/h (0 Bft) W-SW 247 1 min -1,3 C 0,0 km/h (0 Bft)
14.02.2016 10:25 3,9 C 9,6 C 70 % 991,8 hPa 0,0 mm 0,0 km/h (0 Bft) W 270 1 min -1,1 C 0,0 km/h (0 Bft)
14.02.2016 10:26 3,9 C 9,6 C 70 % 991,8 hPa 0,0 mm 0,0 km/h (0 Bft) W 270 1 min -1,1 C 0,0 km/h (0 Bft)
14.02.2016 10:27 4,1 C 10,8 C 70 % 991,8 hPa 0,0 mm 0,0 km/h (0 Bft) W 270 1 min -0,9 C 0,0 km/h (0 Bft)
14.02.2016 10:28 4,1 C 10,8 C 70 % 991,8 hPa 0,0 mm 0,0 km/h (0 Bft) W 270 1 min -0,9 C 0,0 km/h (0 Bft)
14.02.2016 10:29 4,4 C 11,7 C 69 % 991,8 hPa 0,0 mm 0,0 km/h (0 Bft) W 270 1 min -0,8 C 0,0 km/h (0 Bft)
14.02.2016 10:30 4,4 C 11,7 C 69 % 991,8 hPa 0,0 mm 0,0 km/h (0 Bft) W 270 1 min -0,8 C 0,0 km/h (0 Bft)
14.02.2016 10:31 4,7 C 11,9 C 69 % 991,8 hPa 0,0 mm 0,0 km/h (0 Bft) N-NO 22 1 min -0,5 C 0,0 km/h (0 Bft)
14.02.2016 10:32 4,7 C 11,9 C 69 % 991,8 hPa 0,0 mm 0,0 km/h (0 Bft) N-NO 22 1 min -0,5 C 0,0 km/h (0 Bft)
14.02.2016 10:33 4,8 C 12,4 C 69 % 991,8 hPa 0,0 mm 0,3 km/h (0 Bft) N-NO 22 1 min -0,4 C 0,0 km/h (0 Bft)
14.02.2016 10:34 4,8 C 12,4 C 69 % 991,8 hPa 0,0 mm 0,3 km/h (0 Bft) N-NO 22 1 min -0,4 C 0,0 km/h (0 Bft)
14.02.2016 10:35 5,1 C 12,4 C 68 % 991,8 hPa 0,0 mm 0,3 km/h (0 Bft) W-NW 292 1 min -0,3 C 0,0 km/h (0 Bft)
14.02.2016 10:36 5,1 C 12,4 C 68 % 991,8 hPa 0,0 mm 0,3 km/h (0 Bft) W-NW 292 1 min -0,3 C 0,0 km/h (0 Bft)
14.02.2016 10:37 5,5 C 12,2 C 67 % 991,8 hPa 0,0 mm 0,6 km/h (0 Bft) O-SO 112 1 min -0,1 C 0,0 km/h (0 Bft)
14.02.2016 10:38 5,5 C 12,2 C 67 % 991,8 hPa 0,0 mm 0,6 km/h (0 Bft) O-SO 112 1 min -0,1 C 0,0 km/h (0 Bft)
14.02.2016 10:39 5,6 C 12,0 C 67 % 991,8 hPa 0,0 mm 1,2 km/h (1 Bft) S-SO 157 1 min -0,0 C 4,2 km/h (1 Bft)
14.02.2016 10:40 5,6 C 12,0 C 67 % 991,8 hPa 0,0 mm 1,2 km/h (1 Bft) S-SO 157 1 min -0,0 C 4,2 km/h (1 Bft)
14.02.2016 10:41 5,9 C 11,9 C 66 % 991,8 hPa 0,0 mm 1,2 km/h (1 Bft) O 90 1 min 0,0 C 3,3 km/h (1 Bft)
14.02.2016 10:42 5,9 C 11,9 C 66 % 991,8 hPa 0,0 mm 1,2 km/h (1 Bft) O 90 1 min 0,0 C 3,3 km/h (1 Bft)
14.02.2016 10:43 6,2 C 11,7 C 64 % 991,8 hPa 0,0 mm 3,0 km/h (1 Bft) O-NO 67 1 min -0,1 C 12,8 km/h (3 Bft)
14.02.2016 10:44 6,2 C 11,7 C 64 % 991,8 hPa 0,0 mm 3,0 km/h (1 Bft) O-NO 67 1 min -0,1 C 12,8 km/h (3 Bft)
14.02.2016 10:45 6,4 C 11,5 C 63 % 991,8 hPa 0,0 mm 3,9 km/h (1 Bft) N-NO 22 1 min -0,1 C 4,2 km/h (1 Bft)
14.02.2016 10:46 6,4 C 11,5 C 63 % 991,8 hPa 0,0 mm 3,9 km/h (1 Bft) N-NO 22 1 min -0,1 C 4,2 km/h (1 Bft)
14.02.2016 10:47 6,6 C 11,3 C 62 % 991,8 hPa 0,0 mm 5,1 km/h (1 Bft) N-NW 337 1 min -0,1 C 14,9 km/h (3 Bft)
14.02.2016 10:48 6,6 C 11,3 C 62 % 991,8 hPa 0,0 mm 5,1 km/h (1 Bft) N-NW 337 1 min -0,1 C 14,9 km/h (3 Bft)
14.02.2016 10:49 6,8 C 11,0 C 60 % 991,8 hPa 0,0 mm 7,2 km/h (2 Bft) O-NO 67 1 min -0,4 C 17,9 km/h (3 Bft)
14.02.2016 10:50 6,8 C 11,0 C 60 % 991,8 hPa 0,0 mm 7,2 km/h (2 Bft) O-NO 67 1 min -0,4 C 17,9 km/h (3 Bft)
14.02.2016 10:51 6,8 C 10,4 C 59 % 991,8 hPa 0,0 mm 9,2 km/h (2 Bft) S-SO 157 1 min -0,6 C 11,9 km/h (2 Bft)
14.02.2016 10:52 6,8 C 10,4 C 59 % 991,8 hPa 0,0 mm 9,2 km/h (2 Bft) S-SO 157 1 min -0,6 C 11,9 km/h (2 Bft)
14.02.2016 10:53 6,9 C 10,2 C 58 % 991,8 hPa 0,0 mm 10,1 km/h (2 Bft) O-NO 67 1 min -0,8 C 9,2 km/h (2 Bft)
14.02.2016 10:54 6,9 C 10,2 C 58 % 991,8 hPa 0,0 mm 10,1 km/h (2 Bft) O-NO 67 1 min -0,8 C 9,2 km/h (2 Bft)
14.02.2016 10:55 7,0 C 9,9 C 57 % 991,8 hPa 0,0 mm 10,4 km/h (2 Bft) NO 45 1 min -0,9 C 15,2 km/h (3 Bft)
14.02.2016 10:56 7,0 C 9,9 C 57 % 991,8 hPa 0,0 mm 10,4 km/h (2 Bft) NO 45 1 min -0,9 C 15,2 km/h (3 Bft)
14.02.2016 10:57 7,1 C 9,8 C 56 % 991,8 hPa 0,0 mm 11,9 km/h (2 Bft) O-SO 112 0 min -1,1 C 19,4 km/h (3 Bft)
14.02.2016 10:58 7,1 C 9,8 C 56 % 991,8 hPa 0,0 mm 11,9 km/h (2 Bft) O-SO 112 0 min -1,1 C 19,4 km/h (3 Bft)
14.02.2016 10:59 7,2 C 9,6 C 56 % 991,8 hPa 0,0 mm 12,2 km/h (2 Bft) O-NO 67 0 min -1,0 C 24,4 km/h (4 Bft)
14.02.2016 11:00 7,2 C 9,6 C 56 % 991,8 hPa 0,0 mm 12,2 km/h (2 Bft) O-NO 67 0 min -1,0 C 24,4 km/h (4 Bft)
14.02.2016 11:01 7,2 C 9,4 C 55 % 991,8 hPa 0,0 mm 11,6 km/h (2 Bft) NO 45 0 min -1,2 C 12,5 km/h (3 Bft)
14.02.2016 11:02 7,2 C 9,4 C 55 % 991,8 hPa 0,0 mm 11,6 km/h (2 Bft) NO 45 0 min -1,2 C 12,5 km/h (3 Bft)
14.02.2016 11:03 7,2 C 9,1 C 54 % 992,2 hPa 0,0 mm 12,8 km/h (3 Bft) NO 45 0 min -1,5 C 21,8 km/h (4 Bft)
14.02.2016 11:04 7,2 C 9,1 C 54 % 992,2 hPa 0,0 mm 12,8 km/h (3 Bft) NO 45 0 min -1,5 C 21,8 km/h (4 Bft)
14.02.2016 11:05 7,2 C 9,0 C 54 % 992,2 hPa 0,0 mm 12,5 km/h (3 Bft) O-NO 67 0 min -1,5 C 8,0 km/h (2 Bft)
14.02.2016 11:06 7,2 C 9,0 C 54 % 992,2 hPa 0,0 mm 12,5 km/h (3 Bft) O-NO 67 0 min -1,5 C 8,0 km/h (2 Bft)
14.02.2016 11:07 7,2 C 9,0 C 53 % 992,2 hPa 0,0 mm 11,9 km/h (2 Bft) O-SO 112 0 min -1,7 C 11,6 km/h (2 Bft)
14.02.2016 11:08 7,2 C 9,0 C 53 % 992,2 hPa 0,0 mm 11,9 km/h (2 Bft) O-SO 112 0 min -1,7 C 11,6 km/h (2 Bft)
14.02.2016 11:09 7,2 C 9,1 C 53 % 992,2 hPa 0,0 mm 11,6 km/h (2 Bft) N-NO 22 0 min -1,7 C 11,3 km/h (2 Bft)
14.02.2016 11:10 7,2 C 9,1 C 53 % 992,2 hPa 0,0 mm 11,6 km/h (2 Bft) N-NO 22 0 min -1,7 C 11,3 km/h (2 Bft)
14.02.2016 11:11 7,3 C 9,2 C 53 % 992,2 hPa 0,0 mm 11,0 km/h (2 Bft) O-NO 67 0 min -1,6 C 12,8 km/h (3 Bft)
14.02.2016 11:12 7,3 C 9,2 C 53 % 992,2 hPa 0,0 mm 11,0 km/h (2 Bft) O-NO 67 0 min -1,6 C 12,8 km/h (3 Bft)
14.02.2016 11:13 7,3 C 9,6 C 53 % 992,2 hPa 0,0 mm 9,2 km/h (2 Bft) N-NO 22 0 min -1,6 C 13,1 km/h (3 Bft)
14.02.2016 11:14 7,3 C 9,6 C 53 % 992,2 hPa 0,0 mm 9,2 km/h (2 Bft) N-NO 22 0 min -1,6 C 13,1 km/h (3 Bft)
14.02.2016 11:15 7,3 C 9,7 C 53 % 992,2 hPa 0,0 mm 9,2 km/h (2 Bft) NO 45 0 min -1,6 C 11,6 km/h (2 Bft)
14.02.2016 11:16 7,3 C 9,7 C 53 % 992,2 hPa 0,0 mm 9,2 km/h (2 Bft) NO 45 0 min -1,6 C 11,6 km/h (2 Bft)
14.02.2016 11:17 7,3 C 9,9 C 53 % 992,2 hPa 0,0 mm 8,9 km/h (2 Bft) NO 45 1 min -1,6 C 9,2 km/h (2 Bft)
14.02.2016 11:18 7,3 C 9,9 C 53 % 992,2 hPa 0,0 mm 8,9 km/h (2 Bft) NO 45 1 min -1,6 C 9,2 km/h (2 Bft)
14.02.2016 11:19 7,1 C 9,8 C 52 % 992,2 hPa 0,0 mm 9,5 km/h (2 Bft) SO 135 1 min -2,1 C 27,1 km/h (4 Bft)
14.02.2016 11:20 7,1 C 9,8 C 52 % 992,2 hPa 0,0 mm 9,5 km/h (2 Bft) SO 135 1 min -2,1 C 27,1 km/h (4 Bft)
14.02.2016 11:21 7,1 C 9,9 C 52 % 992,2 hPa 0,0 mm 9,8 km/h (2 Bft) NO 45 1 min -2,1 C 20,3 km/h (4 Bft)
14.02.2016 11:22 7,1 C 9,9 C 52 % 992,2 hPa 0,0 mm 9,8 km/h (2 Bft) NO 45 1 min -2,1 C 20,3 km/h (4 Bft)
14.02.2016 11:23 7,1 C 9,9 C 53 % 992,2 hPa 0,0 mm 10,1 km/h (2 Bft) O-NO 67 1 min -1,8 C 16,1 km/h (3 Bft)
14.02.2016 11:24 7,1 C 9,9 C 53 % 992,2 hPa 0,0 mm 10,1 km/h (2 Bft) O-NO 67 1 min -1,8 C 16,1 km/h (3 Bft)
14.02.2016 11:25 7,1 C 10,2 C 53 % 992,2 hPa 0,0 mm 9,2 km/h (2 Bft) N-NO 22 1 min -1,8 C 3,6 km/h (1 Bft)
14.02.2016 11:26 7,1 C 10,2 C 53 % 992,2 hPa 0,0 mm 9,2 km/h (2 Bft) N-NO 22 1 min -1,8 C 3,6 km/h (1 Bft)
14.02.2016 11:27 7,1 C 10,2 C 53 % 992,2 hPa 0,0 mm 9,2 km/h (2 Bft) O-SO 112 1 min -1,8 C 17,0 km/h (3 Bft)
14.02.2016 11:28 7,1 C 10,2 C 53 % 992,2 hPa 0,0 mm 9,2 km/h (2 Bft) O-SO 112 1 min -1,8 C 17,0 km/h (3 Bft)
14.02.2016 11:29 7,1 C 10,2 C 53 % 992,2 hPa 0,0 mm 9,2 km/h (2 Bft) N-NW 337 1 min -1,8 C 5,4 km/h (1 Bft)
14.02.2016 11:30 7,1 C 10,2 C 53 % 992,2 hPa 0,0 mm 9,2 km/h (2 Bft) N-NW 337 1 min -1,8 C 5,4 km/h (1 Bft)
14.02.2016 11:31 7,1 C 10,1 C 53 % 992,2 hPa 0,0 mm 8,9 km/h (2 Bft) SO 135 1 min -1,8 C 6,0 km/h (2 Bft)
14.02.2016 11:32 7,1 C 10,1 C 53 % 992,2 hPa 0,0 mm 8,9 km/h (2 Bft) SO 135 1 min -1,8 C 6,0 km/h (2 Bft)
14.02.2016 11:33 7,1 C 10,4 C 53 % 992,2 hPa 0,0 mm 7,5 km/h (2 Bft) O 90 1 min -1,8 C 3,6 km/h (1 Bft)
14.02.2016 11:34 7,1 C 10,4 C 53 % 992,2 hPa 0,0 mm 7,5 km/h (2 Bft) O 90 1 min -1,8 C 3,6 km/h (1 Bft)
14.02.2016 11:35 7,2 C 10,5 C 53 % 992,2 hPa 0,0 mm 8,0 km/h (2 Bft) N-NO 22 1 min -1,7 C 6,6 km/h (2 Bft)
14.02.2016 11:36 7,2 C 10,5 C 53 % 992,2 hPa 0,0 mm 8,0 km/h (2 Bft) N-NO 22 1 min -1,7 C 6,6 km/h (2 Bft)
14.02.2016 11:37 7,2 C 10,3 C 54 % 992,2 hPa 0,0 mm 8,6 km/h (2 Bft) O 90 1 min -1,5 C 6,0 km/h (2 Bft)
14.02.2016 11:38 7,2 C 10,3 C 54 % 992,2 hPa 0,0 mm 8,6 km/h (2 Bft) O 90 1 min -1,5 C 6,0 km/h (2 Bft)
14.02.2016 11:39 7,3 C 10,1 C 54 % 992,2 hPa 0,0 mm 8,6 km/h (2 Bft) N-NO 22 1 min -1,4 C 16,4 km/h (3 Bft)
14.02.2016 11:40 7,3 C 10,1 C 54 % 992,2 hPa 0,0 mm 8,6 km/h (2 Bft) N-NO 22 1 min -1,4 C 16,4 km/h (3 Bft)
14.02.2016 11:41 7,2 C 9,5 C 53 % 992,2 hPa 0,0 mm 9,8 km/h (2 Bft) O-NO 67 0 min -1,7 C 16,7 km/h (3 Bft)
14.02.2016 11:42 7,2 C 9,5 C 53 % 992,2 hPa 0,0 mm 9,8 km/h (2 Bft) O-NO 67 0 min -1,7 C 16,7 km/h (3 Bft)
14.02.2016 11:43 7,2 C 9,1 C 53 % 992,3 hPa 0,0 mm 10,4 km/h (2 Bft) N-NW 337 0 min -1,7 C 6,0 km/h (2 Bft)
14.02.2016 11:44 7,2 C 9,1 C 53 % 992,3 hPa 0,0 mm 10,4 km/h (2 Bft) N-NW 337 0 min -1,7 C 6,0 km/h (2 Bft)
14.02.2016 11:45 7,2 C 8,8 C 53 % 992,3 hPa 0,0 mm 11,0 km/h (2 Bft) N-NO 22 0 min -1,7 C 12,5 km/h (3 Bft)
14.02.2016 11:46 7,2 C 8,8 C 53 % 992,3 hPa 0,0 mm 11,0 km/h (2 Bft) N-NO 22 0 min -1,7 C 12,5 km/h (3 Bft)
14.02.2016 11:47 7,2 C 8,7 C 53 % 992,3 hPa 0,0 mm 10,4 km/h (2 Bft) O-SO 112 0 min -1,7 C 13,1 km/h (3 Bft)
14.02.2016 11:48 7,2 C 8,7 C 53 % 992,3 hPa 0,0 mm 10,4 km/h (2 Bft) O-SO 112 0 min -1,7 C 13,1 km/h (3 Bft)
14.02.2016 11:49 7,2 C 8,7 C 54 % 992,3 hPa 0,0 mm 10,4 km/h (2 Bft) O-SO 112 0 min -1,5 C 5,1 km/h (1 Bft)
14.02.2016 11:50 7,2 C 8,7 C 54 % 992,3 hPa 0,0 mm 10,4 km/h (2 Bft) O-SO 112 0 min -1,5 C 5,1 km/h (1 Bft)
14.02.2016 11:51 7,2 C 8,9 C 53 % 992,3 hPa 0,0 mm 9,2 km/h (2 Bft) SO 135 0 min -1,7 C 7,7 km/h (2 Bft)
14.02.2016 11:52 7,2 C 8,9 C 53 % 992,3 hPa 0,0 mm 9,2 km/h (2 Bft) SO 135 0 min -1,7 C 7,7 km/h (2 Bft)
14.02.2016 11:53 7,2 C 8,7 C 53 % 992,3 hPa 0,0 mm 9,2 km/h (2 Bft) O-NO 67 0 min -1,7 C 14,0 km/h (3 Bft)
14.02.2016 11:54 7,2 C 8,7 C 53 % 992,3 hPa 0,0 mm 9,2 km/h (2 Bft) O-NO 67 0 min -1,7 C 14,0 km/h (3 Bft)
14.02.2016 11:55 7,2 C 8,6 C 53 % 992,3 hPa 0,0 mm 9,8 km/h (2 Bft) O-NO 67 0 min -1,7 C 12,8 km/h (3 Bft)
14.02.2016 11:56 7,2 C 8,6 C 53 % 992,3 hPa 0,0 mm 9,8 km/h (2 Bft) O-NO 67 0 min -1,7 C 12,8 km/h (3 Bft)
14.02.2016 11:57 7,2 C 8,7 C 54 % 992,3 hPa 0,0 mm 9,5 km/h (2 Bft) O 90 0 min -1,5 C 6,9 km/h (2 Bft)
14.02.2016 11:58 7,2 C 8,7 C 54 % 992,3 hPa 0,0 mm 9,5 km/h (2 Bft) O 90 0 min -1,5 C 6,9 km/h (2 Bft)
14.02.2016 11:59 7,2 C 8,5 C 53 % 992,3 hPa 0,0 mm 9,8 km/h (2 Bft) O-NO 67 0 min -1,7 C 14,9 km/h (3 Bft)
14.02.2016 12:00 7,2 C 8,5 C 53 % 992,3 hPa 0,0 mm 9,8 km/h (2 Bft) O-NO 67 0 min -1,7 C 14,9 km/h (3 Bft)
14.02.2016 12:01 7,2 C 8,2 C 54 % 992,3 hPa 0,0 mm 10,1 km/h (2 Bft) O-NO 67 0 min -1,5 C 21,5 km/h (4 Bft)
14.02.2016 12:02 7,2 C 8,2 C 54 % 992,3 hPa 0,0 mm 10,1 km/h (2 Bft) O-NO 67 0 min -1,5 C 21,5 km/h (4 Bft)
14.02.2016 12:03 7,2 C 8,2 C 54 % 992,0 hPa 0,0 mm 10,1 km/h (2 Bft) O-NO 67 0 min -1,5 C 21,5 km/h (4 Bft)
14.02.2016 12:04 7,2 C 8,2 C 54 % 992,0 hPa 0,0 mm 10,1 km/h (2 Bft) O-NO 67 0 min -1,5 C 21,5 km/h (4 Bft)
14.02.2016 12:05 7,1 C 8,1 C 54 % 992,0 hPa 0,0 mm 9,8 km/h (2 Bft) O 90 0 min -1,6 C 10,1 km/h (2 Bft)
14.02.2016 12:06 7,1 C 8,1 C 54 % 992,0 hPa 0,0 mm 9,8 km/h (2 Bft) O 90 0 min -1,6 C 10,1 km/h (2 Bft)
14.02.2016 12:07 7,1 C 8,0 C 54 % 992,0 hPa 0,0 mm 9,5 km/h (2 Bft) O-NO 67 0 min -1,6 C 5,7 km/h (1 Bft)
14.02.2016 12:08 7,1 C 8,0 C 54 % 992,0 hPa 0,0 mm 9,5 km/h (2 Bft) O-NO 67 0 min -1,6 C 5,7 km/h (1 Bft)
14.02.2016 12:09 7,1 C 7,9 C 54 % 992,0 hPa 0,0 mm 9,5 km/h (2 Bft) NO 45 0 min -1,6 C 14,0 km/h (3 Bft)
14.02.2016 12:10 7,1 C 7,9 C 54 % 992,0 hPa 0,0 mm 9,5 km/h (2 Bft) NO 45 0 min -1,6 C 14,0 km/h (3 Bft)
14.02.2016 12:11 7,0 C 7,8 C 54 % 992,0 hPa 0,0 mm 9,2 km/h (2 Bft) O-NO 67 0 min -1,7 C 10,7 km/h (2 Bft)
14.02.2016 12:12 7,0 C 7,8 C 54 % 992,0 hPa 0,0 mm 9,2 km/h (2 Bft) O-NO 67 0 min -1,7 C 10,7 km/h (2 Bft)
14.02.2016 12:13 7,0 C 7,8 C 54 % 992,0 hPa 0,0 mm 8,9 km/h (2 Bft) O-NO 67 0 min -1,7 C 7,7 km/h (2 Bft)
14.02.2016 12:14 7,0 C 7,8 C 54 % 992,0 hPa 0,0 mm 8,9 km/h (2 Bft) O-NO 67 0 min -1,7 C 7,7 km/h (2 Bft)
14.02.2016 12:15 7,0 C 7,8 C 54 % 992,0 hPa 0,0 mm 8,9 km/h (2 Bft) O-NO 67 0 min -1,7 C 8,3 km/h (2 Bft)
14.02.2016 12:16 7,0 C 7,8 C 54 % 992,0 hPa 0,0 mm 8,9 km/h (2 Bft) O-NO 67 0 min -1,7 C 8,3 km/h (2 Bft)
14.02.2016 12:17 7,0 C 7,7 C 54 % 992,0 hPa 0,0 mm 9,2 km/h (2 Bft) O-SO 112 0 min -1,7 C 14,3 km/h (3 Bft)
14.02.2016 12:18 7,0 C 7,7 C 54 % 992,0 hPa 0,0 mm 9,2 km/h (2 Bft) O-SO 112 0 min -1,7 C 14,3 km/h (3 Bft)
14.02.2016 12:19 7,0 C 7,7 C 54 % 992,0 hPa 0,0 mm 9,8 km/h (2 Bft) N-NW 337 0 min -1,7 C 13,7 km/h (3 Bft)
14.02.2016 12:20 7,0 C 7,7 C 54 % 992,0 hPa 0,0 mm 9,8 km/h (2 Bft) N-NW 337 0 min -1,7 C 13,7 km/h (3 Bft)
14.02.2016 12:21 7,0 C 7,7 C 54 % 992,0 hPa 0,0 mm 9,5 km/h (2 Bft) O-NO 67 0 min -1,7 C 10,7 km/h (2 Bft)
14.02.2016 12:22 7,0 C 7,7 C 54 % 992,0 hPa 0,0 mm 9,5 km/h (2 Bft) O-NO 67 0 min -1,7 C 10,7 km/h (2 Bft)
14.02.2016 12:23 7,1 C 7,9 C 54 % 991,9 hPa 0,0 mm 8,6 km/h (2 Bft) N-NO 22 0 min -1,6 C 9,5 km/h (2 Bft)
14.02.2016 12:24 7,1 C 7,9 C 54 % 991,9 hPa 0,0 mm 8,6 km/h (2 Bft) N-NO 22 0 min -1,6 C 9,5 km/h (2 Bft)
14.02.2016 12:25 7,2 C 8,2 C 54 % 991,9 hPa 0,0 mm 8,0 km/h (2 Bft) O-NO 67 0 min -1,5 C 5,4 km/h (1 Bft)
14.02.2016 12:26 7,2 C 8,2 C 54 % 991,9 hPa 0,0 mm 8,0 km/h (2 Bft) O-NO 67 0 min -1,5 C 5,4 km/h (1 Bft)
14.02.2016 12:27 7,2 C 8,3 C 55 % 991,9 hPa 0,0 mm 8,0 km/h (2 Bft) NO 45 0 min -1,2 C 5,1 km/h (1 Bft)
14.02.2016 12:28 7,2 C 8,3 C 55 % 991,9 hPa 0,0 mm 8,0 km/h (2 Bft) NO 45 0 min -1,2 C 5,1 km/h (1 Bft)
14.02.2016 12:29 7,2 C 8,5 C 55 % 991,9 hPa 0,0 mm 6,9 km/h (2 Bft) NO 45 0 min -1,2 C 7,2 km/h (2 Bft)
14.02.2016 12:30 7,2 C 8,5 C 55 % 991,9 hPa 0,0 mm 6,9 km/h (2 Bft) NO 45 0 min -1,2 C 7,2 km/h (2 Bft)
14.02.2016 12:31 7,2 C 8,5 C 55 % 991,9 hPa 0,0 mm 6,3 km/h (2 Bft) O-NO 67 0 min -1,2 C 6,6 km/h (2 Bft)
14.02.2016 12:32 7,2 C 8,5 C 55 % 991,9 hPa 0,0 mm 6,3 km/h (2 Bft) O-NO 67 0 min -1,2 C 6,6 km/h (2 Bft)
14.02.2016 12:33 7,2 C 8,6 C 55 % 991,9 hPa 0,0 mm 6,0 km/h (2 Bft) O-NO 67 0 min -1,2 C 8,6 km/h (2 Bft)
14.02.2016 12:34 7,2 C 8,6 C 55 % 991,9 hPa 0,0 mm 6,0 km/h (2 Bft) O-NO 67 0 min -1,2 C 8,6 km/h (2 Bft)
14.02.2016 12:35 7,2 C 8,6 C 55 % 991,9 hPa 0,0 mm 6,6 km/h (2 Bft) NO 45 0 min -1,2 C 7,2 km/h (2 Bft)
14.02.2016 12:36 7,2 C 8,6 C 55 % 991,9 hPa 0,0 mm 6,6 km/h (2 Bft) NO 45 0 min -1,2 C 7,2 km/h (2 Bft)
14.02.2016 12:37 7,2 C 8,5 C 55 % 991,9 hPa 0,0 mm 6,6 km/h (2 Bft) O-NO 67 0 min -1,2 C 11,6 km/h (2 Bft)
14.02.2016 12:38 7,2 C 8,5 C 55 % 991,9 hPa 0,0 mm 6,6 km/h (2 Bft) O-NO 67 0 min -1,2 C 11,6 km/h (2 Bft)
14.02.2016 12:39 7,2 C 8,4 C 55 % 991,9 hPa 0,0 mm 7,2 km/h (2 Bft) O 90 0 min -1,2 C 20,3 km/h (4 Bft)
14.02.2016 12:40 7,2 C 8,4 C 55 % 991,9 hPa 0,0 mm 7,2 km/h (2 Bft) O 90 0 min -1,2 C 20,3 km/h (4 Bft)
14.02.2016 12:41 7,2 C 8,3 C 55 % 991,9 hPa 0,0 mm 7,7 km/h (2 Bft) O 90 0 min -1,2 C 6,9 km/h (2 Bft)
14.02.2016 12:42 7,2 C 8,3 C 55 % 991,9 hPa 0,0 mm 7,7 km/h (2 Bft) O 90 0 min -1,2 C 6,9 km/h (2 Bft)
14.02.2016 12:43 7,2 C 8,2 C 55 % 991,6 hPa 0,0 mm 7,7 km/h (2 Bft) O-NO 67 0 min -1,2 C 7,7 km/h (2 Bft)
14.02.2016 12:44 7,2 C 8,2 C 55 % 991,6 hPa 0,0 mm 7,7 km/h (2 Bft) O-NO 67 0 min -1,2 C 7,7 km/h (2 Bft)
14.02.2016 12:45 7,2 C 8,3 C 55 % 991,6 hPa 0,0 mm 7,5 km/h (2 Bft) NO 45 0 min -1,2 C 7,7 km/h (2 Bft)
14.02.2016 12:46 7,2 C 8,3 C 55 % 991,6 hPa 0,0 mm 7,5 km/h (2 Bft) NO 45 0 min -1,2 C 7,7 km/h (2 Bft)
14.02.2016 12:47 7,2 C 8,2 C 55 % 991,6 hPa 0,0 mm 8,0 km/h (2 Bft) O-NO 67 0 min -1,2 C 13,1 km/h (3 Bft)
14.02.2016 12:48 7,2 C 8,2 C 55 % 991,6 hPa 0,0 mm 8,0 km/h (2 Bft) O-NO 67 0 min -1,2 C 13,1 km/h (3 Bft)
14.02.2016 12:50 7,1 C 8,1 C 55 % 991,6 hPa 0,0 mm 7,7 km/h (2 Bft) NO 45 0 min -1,3 C 10,7 km/h (2 Bft)
14.02.2016 12:51 7,1 C 8,2 C 55 % 991,6 hPa 0,0 mm 7,2 km/h (2 Bft) O-NO 67 0 min -1,3 C 13,1 km/h (3 Bft)
14.02.2016 12:52 7,1 C 8,2 C 55 % 991,6 hPa 0,0 mm 7,2 km/h (2 Bft) O-NO 67 0 min -1,3 C 13,1 km/h (3 Bft)
14.02.2016 12:53 7,2 C 8,2 C 56 % 991,6 hPa 0,0 mm 7,2 km/h (2 Bft) NO 45 0 min -1,0 C 8,9 km/h (2 Bft)
14.02.2016 12:54 7,2 C 8,2 C 56 % 991,6 hPa 0,0 mm 7,2 km/h (2 Bft) NO 45 0 min -1,0 C 8,9 km/h (2 Bft)
14.02.2016 12:55 7,2 C 8,1 C 55 % 991,6 hPa 0,0 mm 7,7 km/h (2 Bft) O-NO 67 0 min -1,2 C 6,6 km/h (2 Bft)
14.02.2016 12:56 7,2 C 8,1 C 55 % 991,6 hPa 0,0 mm 7,7 km/h (2 Bft) O-NO 67 0 min -1,2 C 6,6 km/h (2 Bft)
14.02.2016 12:57 7,2 C 8,0 C 56 % 991,6 hPa 0,0 mm 8,0 km/h (2 Bft) W 270 0 min -1,0 C 15,8 km/h (3 Bft)
14.02.2016 12:58 7,2 C 8,0 C 56 % 991,6 hPa 0,0 mm 8,0 km/h (2 Bft) W 270 0 min -1,0 C 15,8 km/h (3 Bft)
14.02.2016 12:59 7,2 C 8,2 C 56 % 991,6 hPa 0,0 mm 7,5 km/h (2 Bft) O-SO 112 0 min -1,0 C 6,3 km/h (2 Bft)
14.02.2016 13:00 7,2 C 8,2 C 56 % 991,6 hPa 0,0 mm 7,5 km/h (2 Bft) O-SO 112 0 min -1,0 C 6,3 km/h (2 Bft)
14.02.2016 13:01 7,3 C 8,3 C 56 % 991,6 hPa 0,0 mm 7,5 km/h (2 Bft) NO 45 0 min -0,9 C 4,5 km/h (1 Bft)
14.02.2016 13:03 7,3 C 8,4 C 56 % 991,3 hPa 0,0 mm 7,2 km/h (2 Bft) N 0 0 min -0,9 C 8,0 km/h (2 Bft)
14.02.2016 13:04 7,3 C 8,4 C 56 % 991,3 hPa 0,0 mm 7,2 km/h (2 Bft) N 0 0 min -0,9 C 8,0 km/h (2 Bft)
14.02.2016 13:05 7,4 C 8,7 C 56 % 991,3 hPa 0,0 mm 6,6 km/h (2 Bft) N 0 0 min -0,8 C 13,4 km/h (3 Bft)
14.02.2016 13:06 7,4 C 8,7 C 56 % 991,3 hPa 0,0 mm 6,6 km/h (2 Bft) N 0 0 min -0,8 C 13,4 km/h (3 Bft)
14.02.2016 13:07 7,4 C 8,8 C 56 % 991,3 hPa 0,0 mm 7,2 km/h (2 Bft) N 0 0 min -0,8 C 13,4 km/h (3 Bft)
14.02.2016 13:08 7,4 C 8,8 C 56 % 991,3 hPa 0,0 mm 7,2 km/h (2 Bft) N 0 0 min -0,8 C 13,4 km/h (3 Bft)
14.02.2016 13:09 7,4 C 8,8 C 56 % 991,3 hPa 0,0 mm 6,9 km/h (2 Bft) N 0 0 min -0,8 C 13,4 km/h (3 Bft)
14.02.2016 13:10 7,4 C 8,8 C 56 % 991,3 hPa 0,0 mm 6,9 km/h (2 Bft) N 0 0 min -0,8 C 13,4 km/h (3 Bft)
14.02.2016 13:11 7,5 C 8,7 C 56 % 991,3 hPa 0,0 mm 7,5 km/h (2 Bft) N 0 0 min -0,7 C 13,4 km/h (3 Bft)
14.02.2016 13:12 7,5 C 8,7 C 56 % 991,3 hPa 0,0 mm 7,5 km/h (2 Bft) NO 45 0 min -0,7 C 13,4 km/h (3 Bft)
14.02.2016 13:13 7,5 C 8,8 C 56 % 991,3 hPa 0,0 mm 7,7 km/h (2 Bft) NO 45 0 min -0,7 C 11,0 km/h (2 Bft)
14.02.2016 13:14 7,5 C 8,8 C 56 % 991,3 hPa 0,0 mm 7,7 km/h (2 Bft) NO 45 0 min -0,7 C 11,0 km/h (2 Bft)
14.02.2016 13:15 7,5 C 8,7 C 56 % 991,3 hPa 0,0 mm 8,3 km/h (2 Bft) N-NO 22 0 min -0,7 C 12,8 km/h (3 Bft)
14.02.2016 13:16 7,5 C 8,7 C 56 % 991,3 hPa 0,0 mm 8,3 km/h (2 Bft) N-NO 22 0 min -0,7 C 12,8 km/h (3 Bft)
14.02.2016 13:17 7,6 C 8,6 C 55 % 991,3 hPa 0,0 mm 9,5 km/h (2 Bft) O-SO 112 0 min -0,9 C 22,9 km/h (4 Bft)
14.02.2016 13:18 7,6 C 8,6 C 55 % 991,3 hPa 0,0 mm 9,5 km/h (2 Bft) O-SO 112 0 min -0,9 C 22,9 km/h (4 Bft)
14.02.2016 13:19 7,5 C 8,5 C 55 % 991,3 hPa 0,0 mm 9,2 km/h (2 Bft) O-SO 112 0 min -0,9 C 8,3 km/h (2 Bft)
14.02.2016 13:20 7,5 C 8,5 C 55 % 991,3 hPa 0,0 mm 9,2 km/h (2 Bft) O-SO 112 0 min -0,9 C 8,3 km/h (2 Bft)
14.02.2016 13:21 7,6 C 8,4 C 55 % 991,3 hPa 0,0 mm 9,8 km/h (2 Bft) O-NO 67 0 min -0,9 C 14,0 km/h (3 Bft)
14.02.2016 13:22 7,6 C 8,4 C 55 % 991,3 hPa 0,0 mm 9,8 km/h (2 Bft) O-NO 67 0 min -0,9 C 14,0 km/h (3 Bft)
14.02.2016 13:23 7,6 C 8,4 C 55 % 991,5 hPa 0,0 mm 10,1 km/h (2 Bft) NW 315 0 min -0,9 C 8,3 km/h (2 Bft)
14.02.2016 13:24 7,6 C 8,4 C 55 % 991,5 hPa 0,0 mm 10,1 km/h (2 Bft) NW 315 0 min -0,9 C 8,3 km/h (2 Bft)
14.02.2016 13:25 7,6 C 8,5 C 54 % 991,5 hPa 0,0 mm 10,7 km/h (2 Bft) O-SO 112 0 min -1,1 C 8,0 km/h (2 Bft)
14.02.2016 13:26 7,6 C 8,5 C 54 % 991,5 hPa 0,0 mm 10,7 km/h (2 Bft) O-SO 112 0 min -1,1 C 8,0 km/h (2 Bft)
14.02.2016 13:27 7,6 C 8,6 C 54 % 991,5 hPa 0,0 mm 10,4 km/h (2 Bft) N-NO 22 0 min -1,1 C 6,6 km/h (2 Bft)
14.02.2016 13:28 7,6 C 8,6 C 54 % 991,5 hPa 0,0 mm 10,4 km/h (2 Bft) N-NO 22 0 min -1,1 C 6,6 km/h (2 Bft)
14.02.2016 13:29 7,7 C 8,9 C 55 % 991,5 hPa 0,0 mm 9,2 km/h (2 Bft) O-NO 67 0 min -0,8 C 17,0 km/h (3 Bft)
14.02.2016 13:30 7,7 C 8,9 C 55 % 991,5 hPa 0,0 mm 9,2 km/h (2 Bft) O-NO 67 0 min -0,8 C 17,0 km/h (3 Bft)
14.02.2016 13:31 7,8 C 9,1 C 55 % 991,5 hPa 0,0 mm 8,9 km/h (2 Bft) O-NO 67 0 min -0,7 C 9,5 km/h (2 Bft)
14.02.2016 13:32 7,8 C 9,1 C 55 % 991,5 hPa 0,0 mm 8,9 km/h (2 Bft) O-NO 67 0 min -0,7 C 9,5 km/h (2 Bft)
14.02.2016 13:34 7,8 C 9,4 C 54 % 990,3 hPa 0,0 mm 8,6 km/h (2 Bft) O-SO 112 0 min -0,9 C 8,0 km/h (2 Bft)
14.02.2016 13:36 7,8 C 9,4 C 54 % 987,3 hPa 0,0 mm 8,3 km/h (2 Bft) NO 45 0 min -0,9 C 12,5 km/h (3 Bft)
14.02.2016 13:39 7,9 C 9,2 C 54 % 987,8 hPa 0,0 mm 9,8 km/h (2 Bft) O 90 0 min -0,8 C 11,9 km/h (2 Bft)
14.02.2016 13:47 8,1 C 9,6 C 53 % 987,2 hPa 0,0 mm 10,7 km/h (2 Bft) S-SO 157 0 min -0,9 C 11,3 km/h (2 Bft)
14.02.2016 13:48 8,1 C 9,6 C 53 % 987,2 hPa 0,0 mm 10,7 km/h (2 Bft) S-SO 157 0 min -0,9 C 11,3 km/h (2 Bft)
14.02.2016 13:49 8,1 C 9,7 C 53 % 987,2 hPa 0,0 mm 10,4 km/h (2 Bft) NO 45 0 min -0,9 C 8,6 km/h (2 Bft)
14.02.2016 13:50 8,1 C 9,7 C 53 % 987,2 hPa 0,0 mm 10,4 km/h (2 Bft) NO 45 0 min -0,9 C 8,6 km/h (2 Bft)
14.02.2016 13:51 8,1 C 9,6 C 53 % 987,2 hPa 0,0 mm 11,0 km/h (2 Bft) SO 135 0 min -0,9 C 12,2 km/h (2 Bft)
14.02.2016 13:52 8,1 C 9,6 C 53 % 987,2 hPa 0,0 mm 11,0 km/h (2 Bft) SO 135 0 min -0,9 C 12,2 km/h (2 Bft)
14.02.2016 13:53 8,1 C 9,5 C 53 % 987,2 hPa 0,0 mm 10,7 km/h (2 Bft) O-NO 67 0 min -0,9 C 15,5 km/h (3 Bft)
14.02.2016 13:54 8,1 C 9,5 C 53 % 987,2 hPa 0,0 mm 10,7 km/h (2 Bft) O-NO 67 0 min -0,9 C 15,5 km/h (3 Bft)
14.02.2016 13:55 8,1 C 9,7 C 53 % 987,2 hPa 0,0 mm 9,8 km/h (2 Bft) NO 45 0 min -0,9 C 10,7 km/h (2 Bft)
14.02.2016 13:56 8,1 C 9,7 C 53 % 987,2 hPa 0,0 mm 9,8 km/h (2 Bft) NO 45 0 min -0,9 C 10,7 km/h (2 Bft)
14.02.2016 13:57 8,2 C 9,8 C 52 % 987,2 hPa 0,0 mm 8,6 km/h (2 Bft) NO 45 0 min -1,1 C 15,2 km/h (3 Bft)
14.02.2016 13:58 8,2 C 9,8 C 52 % 987,2 hPa 0,0 mm 8,6 km/h (2 Bft) NO 45 0 min -1,1 C 15,2 km/h (3 Bft)
14.02.2016 13:59 8,2 C 9,8 C 52 % 987,2 hPa 0,0 mm 8,9 km/h (2 Bft) O-NO 67 0 min -1,1 C 10,7 km/h (2 Bft)
14.02.2016 14:00 8,2 C 9,8 C 52 % 987,2 hPa 0,0 mm 8,9 km/h (2 Bft) O-NO 67 0 min -1,1 C 10,7 km/h (2 Bft)
14.02.2016 14:01 8,1 C 9,4 C 51 % 987,2 hPa 0,0 mm 9,8 km/h (2 Bft) O-NO 67 0 min -1,4 C 9,5 km/h (2 Bft)
14.02.2016 14:02 8,1 C 9,4 C 51 % 987,2 hPa 0,0 mm 9,8 km/h (2 Bft) O-NO 67 0 min -1,4 C 9,5 km/h (2 Bft)
14.02.2016 14:03 8,1 C 9,2 C 51 % 987,2 hPa 0,0 mm 10,7 km/h (2 Bft) O-NO 67 0 min -1,4 C 14,3 km/h (3 Bft)
14.02.2016 14:04 8,1 C 9,2 C 51 % 987,2 hPa 0,0 mm 10,7 km/h (2 Bft) O-NO 67 0 min -1,4 C 14,3 km/h (3 Bft)
14.02.2016 14:05 8,1 C 8,9 C 51 % 987,2 hPa 0,0 mm 10,7 km/h (2 Bft) O-NO 67 0 min -1,4 C 10,7 km/h (2 Bft)
14.02.2016 14:06 8,1 C 8,9 C 51 % 987,2 hPa 0,0 mm 10,7 km/h (2 Bft) O-NO 67 0 min -1,4 C 10,7 km/h (2 Bft)
14.02.2016 14:07 8,1 C 8,8 C 52 % 987,2 hPa 0,0 mm 11,6 km/h (2 Bft) O-NO 67 0 min -1,2 C 16,1 km/h (3 Bft)
14.02.2016 14:08 8,1 C 8,8 C 52 % 987,2 hPa 0,0 mm 11,6 km/h (2 Bft) O-NO 67 0 min -1,2 C 16,1 km/h (3 Bft)
14.02.2016 14:09 8,1 C 8,6 C 51 % 987,2 hPa 0,0 mm 11,9 km/h (2 Bft) NW 315 0 min -1,4 C 11,3 km/h (2 Bft)
14.02.2016 14:10 8,1 C 8,6 C 51 % 987,2 hPa 0,0 mm 11,9 km/h (2 Bft) NW 315 0 min -1,4 C 11,3 km/h (2 Bft)
14.02.2016 14:11 8,1 C 8,7 C 51 % 987,2 hPa 0,0 mm 11,6 km/h (2 Bft) N-NO 22 0 min -1,4 C 15,2 km/h (3 Bft)
14.02.2016 14:12 8,1 C 8,7 C 51 % 987,2 hPa 0,0 mm 11,6 km/h (2 Bft) N-NO 22 0 min -1,4 C 15,2 km/h (3 Bft)
14.02.2016 14:13 8,2 C 8,6 C 51 % 987,2 hPa 0,0 mm 11,9 km/h (2 Bft) O-NO 67 0 min -1,3 C 14,3 km/h (3 Bft)
14.02.2016 14:14 8,2 C 8,6 C 51 % 987,2 hPa 0,0 mm 11,9 km/h (2 Bft) O-NO 67 0 min -1,3 C 14,3 km/h (3 Bft)
14.02.2016 14:15 8,2 C 8,8 C 51 % 987,2 hPa 0,0 mm 11,0 km/h (2 Bft) O-NO 67 0 min -1,3 C 13,7 km/h (3 Bft)
14.02.2016 14:16 8,2 C 8,8 C 51 % 987,2 hPa 0,0 mm 11,0 km/h (2 Bft) O-NO 67 0 min -1,3 C 13,7 km/h (3 Bft)
14.02.2016 14:17 8,2 C 8,8 C 51 % 987,2 hPa 0,0 mm 11,3 km/h (2 Bft) O-NO 67 0 min -1,3 C 8,9 km/h (2 Bft)
14.02.2016 14:18 8,2 C 8,8 C 51 % 987,2 hPa 0,0 mm 11,3 km/h (2 Bft) O-NO 67 0 min -1,3 C 8,9 km/h (2 Bft)
14.02.2016 14:19 8,3 C 9,3 C 51 % 987,2 hPa 0,0 mm 10,1 km/h (2 Bft) O-NO 67 0 min -1,2 C 14,3 km/h (3 Bft)
14.02.2016 14:20 8,3 C 9,3 C 51 % 987,2 hPa 0,0 mm 10,1 km/h (2 Bft) O-NO 67 0 min -1,2 C 14,3 km/h (3 Bft)
14.02.2016 14:21 8,4 C 9,3 C 50 % 987,2 hPa 0,0 mm 10,1 km/h (2 Bft) NO 45 0 min -1,4 C 14,6 km/h (3 Bft)
14.02.2016 14:22 8,4 C 9,3 C 50 % 987,2 hPa 0,0 mm 10,1 km/h (2 Bft) NO 45 0 min -1,4 C 14,6 km/h (3 Bft)
14.02.2016 14:23 8,4 C 9,4 C 50 % 987,4 hPa 0,0 mm 10,7 km/h (2 Bft) N-NO 22 0 min -1,4 C 18,2 km/h (3 Bft)
14.02.2016 14:24 8,4 C 9,4 C 50 % 987,4 hPa 0,0 mm 10,7 km/h (2 Bft) N-NO 22 0 min -1,4 C 18,2 km/h (3 Bft)
14.02.2016 14:25 8,4 C 9,6 C 50 % 987,4 hPa 0,0 mm 10,4 km/h (2 Bft) N-NO 22 0 min -1,4 C 7,2 km/h (2 Bft)
14.02.2016 14:26 8,4 C 9,6 C 50 % 987,4 hPa 0,0 mm 10,4 km/h (2 Bft) N-NO 22 0 min -1,4 C 7,2 km/h (2 Bft)
14.02.2016 14:27 8,5 C 9,6 C 50 % 987,4 hPa 0,0 mm 10,1 km/h (2 Bft) N 360 0 min -1,3 C 4,8 km/h (1 Bft)
14.02.2016 14:28 8,5 C 9,6 C 50 % 987,4 hPa 0,0 mm 10,1 km/h (2 Bft) N 360 0 min -1,3 C 4,8 km/h (1 Bft)
14.02.2016 14:29 8,5 C 9,7 C 50 % 987,4 hPa 0,0 mm 10,1 km/h (2 Bft) NO 45 0 min -1,3 C 14,9 km/h (3 Bft)
14.02.2016 14:30 8,5 C 9,7 C 50 % 987,4 hPa 0,0 mm 10,1 km/h (2 Bft) NO 45 0 min -1,3 C 14,9 km/h (3 Bft)
14.02.2016 14:31 8,6 C 9,9 C 50 % 987,4 hPa 0,0 mm 9,8 km/h (2 Bft) NO 45 0 min -1,2 C 9,2 km/h (2 Bft)
14.02.2016 14:32 8,6 C 9,9 C 50 % 987,4 hPa 0,0 mm 9,8 km/h (2 Bft) NO 45 0 min -1,2 C 9,2 km/h (2 Bft)
14.02.2016 14:33 8,6 C 10,3 C 50 % 987,4 hPa 0,0 mm 8,6 km/h (2 Bft) N-NO 22 0 min -1,2 C 14,9 km/h (3 Bft)
14.02.2016 14:34 8,6 C 10,3 C 50 % 987,4 hPa 0,0 mm 8,6 km/h (2 Bft) N-NO 22 0 min -1,2 C 14,9 km/h (3 Bft)
14.02.2016 14:35 8,6 C 10,4 C 50 % 987,4 hPa 0,0 mm 7,5 km/h (2 Bft) O-NO 67 0 min -1,2 C 7,2 km/h (2 Bft)
14.02.2016 14:36 8,6 C 10,4 C 50 % 987,4 hPa 0,0 mm 7,5 km/h (2 Bft) O-NO 67 0 min -1,2 C 7,2 km/h (2 Bft)
14.02.2016 14:37 8,6 C 10,4 C 50 % 987,4 hPa 0,0 mm 6,9 km/h (2 Bft) O-NO 67 0 min -1,2 C 3,0 km/h (1 Bft)
14.02.2016 14:38 8,6 C 10,4 C 50 % 987,4 hPa 0,0 mm 6,9 km/h (2 Bft) O-NO 67 0 min -1,2 C 3,0 km/h (1 Bft)
14.02.2016 14:39 8,6 C 10,3 C 50 % 987,4 hPa 0,0 mm 5,7 km/h (1 Bft) N-NO 22 0 min -1,2 C 0,0 km/h (0 Bft)
14.02.2016 14:40 8,6 C 10,3 C 50 % 987,4 hPa 0,0 mm 5,7 km/h (1 Bft) N-NO 22 0 min -1,2 C 0,0 km/h (0 Bft)
14.02.2016 14:41 8,6 C 10,3 C 50 % 987,4 hPa 0,0 mm 4,8 km/h (1 Bft) N-NO 22 0 min -1,2 C 6,3 km/h (2 Bft)
14.02.2016 14:43 8,6 C 10,3 C 50 % 988,1 hPa 0,0 mm 4,8 km/h (1 Bft) NW 315 0 min -1,2 C 10,7 km/h (2 Bft)
14.02.2016 14:44 8,6 C 10,3 C 50 % 988,1 hPa 0,0 mm 4,8 km/h (1 Bft) NW 315 0 min -1,2 C 10,7 km/h (2 Bft)
14.02.2016 14:45 8,6 C 10,2 C 50 % 988,1 hPa 0,0 mm 4,8 km/h (1 Bft) N 360 0 min -1,2 C 9,8 km/h (2 Bft)
14.02.2016 14:47 8,6 C 10,1 C 51 % 988,1 hPa 0,0 mm 6,3 km/h (2 Bft) N-NW 337 0 min -1,0 C 18,5 km/h (3 Bft)
14.02.2016 14:50 8,6 C 10,0 C 51 % 988,1 hPa 0,0 mm 7,7 km/h (2 Bft) N 360 0 min -1,0 C 10,7 km/h (2 Bft)
14.02.2016 14:51 8,6 C 9,6 C 51 % 988,1 hPa 0,0 mm 9,5 km/h (2 Bft) N-NO 22 0 min -1,0 C 14,0 km/h (3 Bft)
14.02.2016 14:52 8,6 C 9,6 C 51 % 988,1 hPa 0,0 mm 9,5 km/h (2 Bft) N-NO 22 0 min -1,0 C 14,0 km/h (3 Bft)
14.02.2016 14:54 8,7 C 9,7 C 52 % 988,1 hPa 0,0 mm 9,5 km/h (2 Bft) NW 315 0 min -0,6 C 13,7 km/h (3 Bft)
14.02.2016 14:57 9,0 C 9,9 C 52 % 988,1 hPa 0,0 mm 11,0 km/h (2 Bft) NW 315 0 min -0,3 C 16,7 km/h (3 Bft)
14.02.2016 14:58 9,0 C 9,9 C 52 % 988,1 hPa 0,0 mm 11,0 km/h (2 Bft) NW 315 0 min -0,3 C 16,7 km/h (3 Bft)
14.02.2016 14:59 9,1 C 10,2 C 52 % 988,1 hPa 0,0 mm 11,0 km/h (2 Bft) NW 315 0 min -0,2 C 17,6 km/h (3 Bft)
14.02.2016 15:01 9,3 C 10,4 C 52 % 988,1 hPa 0,0 mm 11,6 km/h (2 Bft) NW 315 0 min -0,0 C 10,7 km/h (2 Bft)
14.02.2016 15:04 9,3 C 10,7 C 52 % 988,4 hPa 0,0 mm 11,3 km/h (2 Bft) N 360 0 min -0,0 C 17,0 km/h (3 Bft)
14.02.2016 15:05 9,2 C 10,6 C 52 % 988,4 hPa 0,0 mm 12,2 km/h (2 Bft) NW 315 0 min -0,1 C 13,1 km/h (3 Bft)
14.02.2016 15:06 9,2 C 10,6 C 52 % 988,4 hPa 0,0 mm 12,2 km/h (2 Bft) NW 315 0 min -0,1 C 13,1 km/h (3 Bft)
14.02.2016 15:08 9,1 C 10,3 C 51 % 988,4 hPa 0,0 mm 11,9 km/h (2 Bft) W 270 0 min -0,5 C 15,5 km/h (3 Bft)
14.02.2016 15:11 9,0 C 10,1 C 52 % 988,4 hPa 0,0 mm 10,7 km/h (2 Bft) N-NW 337 0 min -0,3 C 13,7 km/h (3 Bft)
14.02.2016 15:12 9,0 C 10,1 C 52 % 988,4 hPa 0,0 mm 10,7 km/h (2 Bft) N-NW 337 0 min -0,3 C 13,7 km/h (3 Bft)
14.02.2016 15:13 8,9 C 9,9 C 52 % 988,4 hPa 0,0 mm 11,0 km/h (2 Bft) NW 315 0 min -0,4 C 16,4 km/h (3 Bft)
14.02.2016 15:14 8,8 C 9,7 C 51 % 988,4 hPa 0,0 mm 11,0 km/h (2 Bft) NW 315 0 min -0,8 C 16,1 km/h (3 Bft)
14.02.2016 15:19 8,7 C 9,2 C 52 % 988,4 hPa 0,0 mm 11,0 km/h (2 Bft) W-NW 292 0 min -0,6 C 13,4 km/h (3 Bft)
14.02.2016 15:24 8,5 C 8,8 C 53 % 988,8 hPa 0,0 mm 11,0 km/h (2 Bft) W 270 0 min -0,5 C 12,5 km/h (3 Bft)
14.02.2016 15:29 8,3 C 8,4 C 54 % 988,8 hPa 0,0 mm 12,2 km/h (2 Bft) W-NW 292 0 min -0,5 C 15,2 km/h (3 Bft)
14.02.2016 15:34 8,0 C 7,9 C 56 % 988,8 hPa 0,0 mm 12,5 km/h (3 Bft) NW 315 0 min -0,2 C 14,6 km/h (3 Bft)
14.02.2016 15:39 7,9 C 7,7 C 56 % 988,8 hPa 0,0 mm 12,5 km/h (3 Bft) NW 315 0 min -0,3 C 13,4 km/h (3 Bft)
14.02.2016 15:44 7,6 C 7,4 C 56 % 989,2 hPa 0,0 mm 12,5 km/h (3 Bft) W-NW 292 0 min -0,6 C 18,8 km/h (3 Bft)
14.02.2016 15:49 7,4 C 7,1 C 57 % 989,2 hPa 0,0 mm 12,8 km/h (3 Bft) NW 315 0 min -0,5 C 18,8 km/h (3 Bft)
14.02.2016 15:54 7,2 C 6,8 C 57 % 989,2 hPa 0,0 mm 13,7 km/h (3 Bft) NW 315 0 min -0,7 C 14,6 km/h (3 Bft)
14.02.2016 15:59 7,0 C 6,6 C 57 % 989,2 hPa 0,0 mm 12,2 km/h (2 Bft) N-NW 337 0 min -0,9 C 8,3 km/h (2 Bft)
14.02.2016 16:04 6,8 C 6,5 C 57 % 989,6 hPa 0,0 mm 11,0 km/h (2 Bft) NW 315 0 min -1,1 C 10,7 km/h (2 Bft)
14.02.2016 16:09 6,7 C 6,5 C 57 % 989,6 hPa 0,0 mm 8,9 km/h (2 Bft) NW 315 0 min -1,2 C 6,0 km/h (2 Bft)
14.02.2016 16:14 6,6 C 6,4 C 59 % 989,6 hPa 0,0 mm 8,3 km/h (2 Bft) N-NO 22 0 min -0,8 C 11,6 km/h (2 Bft)
14.02.2016 16:19 6,5 C 6,3 C 59 % 989,6 hPa 0,0 mm 8,9 km/h (2 Bft) N-NW 337 0 min -0,9 C 13,7 km/h (3 Bft)
14.02.2016 16:24 6,4 C 6,2 C 60 % 989,8 hPa 0,0 mm 8,6 km/h (2 Bft) NW 315 0 min -0,8 C 8,6 km/h (2 Bft)
14.02.2016 16:29 6,3 C 6,2 C 60 % 989,8 hPa 0,0 mm 7,2 km/h (2 Bft) NW 315 0 min -0,9 C 13,4 km/h (3 Bft)
14.02.2016 16:34 6,2 C 6,2 C 60 % 989,8 hPa 0,0 mm 6,3 km/h (2 Bft) W 270 0 min -1,0 C 7,5 km/h (2 Bft)
14.02.2016 16:39 6,1 C 5,9 C 61 % 989,8 hPa 0,0 mm 7,5 km/h (2 Bft) NW 315 0 min -0,8 C 11,9 km/h (2 Bft)
14.02.2016 16:44 6,0 C 5,9 C 62 % 990,2 hPa 0,0 mm 6,9 km/h (2 Bft) W-NW 292 0 min -0,7 C 4,8 km/h (1 Bft)
14.02.2016 16:49 5,9 C 5,8 C 64 % 990,2 hPa 0,0 mm 6,3 km/h (2 Bft) W 270 0 min -0,4 C 7,2 km/h (2 Bft)
14.02.2016 16:54 5,8 C 5,6 C 66 % 990,2 hPa 0,0 mm 7,2 km/h (2 Bft) W 270 0 min -0,0 C 23,5 km/h (4 Bft)
14.02.2016 16:59 5,6 C 5,2 C 68 % 990,2 hPa 0,0 mm 9,2 km/h (2 Bft) SW 225 0 min 0,2 C 18,2 km/h (3 Bft)
14.02.2016 17:04 5,1 C 4,3 C 73 % 990,8 hPa 0,0 mm 12,8 km/h (3 Bft) W-SW 247 0 min 0,7 C 22,1 km/h (4 Bft)
14.02.2016 17:09 4,0 C 3,6 C 75 % 990,8 hPa 0,0 mm 14,9 km/h (3 Bft) W 270 0 min -0,0 C 21,5 km/h (4 Bft)
14.02.2016 17:14 3,1 C 2,5 C 76 % 990,8 hPa 0,7 mm 14,6 km/h (3 Bft) W 270 0 min -0,7 C 21,5 km/h (4 Bft)
14.02.2016 17:19 2,8 C 1,9 C 78 % 990,8 hPa 0,0 mm 12,2 km/h (2 Bft) W-SW 247 0 min -0,6 C 14,9 km/h (3 Bft)
14.02.2016 17:24 2,5 C 1,7 C 79 % 991,6 hPa 0,7 mm 10,4 km/h (2 Bft) W 270 0 min -0,8 C 10,4 km/h (2 Bft)
14.02.2016 17:29 2,3 C 1,5 C 80 % 991,6 hPa 0,0 mm 10,7 km/h (2 Bft) SW 225 0 min -0,8 C 33,1 km/h (5 Bft)
14.02.2016 17:34 2,0 C 1,2 C 81 % 991,6 hPa 0,0 mm 10,1 km/h (2 Bft) W-NW 292 0 min -0,9 C 17,3 km/h (3 Bft)
14.02.2016 17:39 1,7 C 0,9 C 81 % 991,6 hPa 0,0 mm 9,8 km/h (2 Bft) W 270 0 min -1,2 C 11,6 km/h (2 Bft)
14.02.2016 17:44 1,4 C 0,7 C 81 % 991,9 hPa 0,0 mm 8,3 km/h (2 Bft) W-SW 247 0 min -1,5 C 14,0 km/h (3 Bft)
14.02.2016 17:49 1,3 C 0,6 C 82 % 991,9 hPa 0,0 mm 7,5 km/h (2 Bft) W-NW 292 0 min -1,4 C 11,9 km/h (2 Bft)
14.02.2016 17:54 1,1 C 0,5 C 82 % 991,9 hPa 0,0 mm 6,9 km/h (2 Bft) W 270 0 min -1,6 C 6,0 km/h (2 Bft)
14.02.2016 17:59 1,0 C 0,5 C 82 % 991,9 hPa 0,0 mm 5,7 km/h (1 Bft) SW 225 0 min -1,7 C 10,1 km/h (2 Bft)
14.02.2016 18:04 0,9 C 0,4 C 83 % 992,6 hPa 0,0 mm 5,7 km/h (1 Bft) NO 45 0 min -1,7 C 8,0 km/h (2 Bft)
14.02.2016 18:09 0,8 C 0,2 C 84 % 992,6 hPa 0,0 mm 6,3 km/h (2 Bft) W-SW 247 0 min -1,6 C 11,9 km/h (2 Bft)
14.02.2016 18:14 0,8 C 0,0 C 85 % 992,6 hPa 0,0 mm 8,0 km/h (2 Bft) SW 225 0 min -1,4 C 10,4 km/h (2 Bft)
14.02.2016 18:19 0,8 C 0,0 C 85 % 992,6 hPa 0,0 mm 8,3 km/h (2 Bft) W-SW 247 0 min -1,4 C 12,5 km/h (3 Bft)
14.02.2016 18:24 0,7 C 0,0 C 86 % 992,9 hPa 0,0 mm 7,7 km/h (2 Bft) W-SW 247 0 min -1,4 C 14,9 km/h (3 Bft)
14.02.2016 18:29 0,7 C 0,0 C 86 % 992,9 hPa 0,7 mm 7,5 km/h (2 Bft) W-SW 247 0 min -1,4 C 10,1 km/h (2 Bft)
14.02.2016 18:34 0,7 C 0,0 C 86 % 992,9 hPa 0,0 mm 7,7 km/h (2 Bft) W-SW 247 0 min -1,4 C 4,8 km/h (1 Bft)
14.02.2016 18:39 0,7 C -0,1 C 87 % 992,9 hPa 0,0 mm 8,3 km/h (2 Bft) W-SW 247 0 min -1,2 C 7,5 km/h (2 Bft)
14.02.2016 18:44 0,7 C 0,1 C 87 % 993,4 hPa 0,0 mm 7,2 km/h (2 Bft) W-SW 247 0 min -1,2 C 8,6 km/h (2 Bft)
14.02.2016 18:49 0,7 C 0,1 C 87 % 993,4 hPa 0,0 mm 7,2 km/h (2 Bft) W-SW 247 0 min -1,2 C 12,5 km/h (3 Bft)
14.02.2016 18:51 0,7 C 0,0 C 87 % 993,4 hPa 0,0 mm 7,5 km/h (2 Bft) W-SW 247 0 min -1,2 C 8,9 km/h (2 Bft)
14.02.2016 18:52 0,7 C 0,0 C 87 % 993,4 hPa 0,0 mm 7,5 km/h (2 Bft) W-SW 247 0 min -1,2 C 8,9 km/h (2 Bft)
14.02.2016 18:53 0,7 C 0,0 C 88 % 993,4 hPa 0,0 mm 7,5 km/h (2 Bft) W 270 0 min -1,1 C 5,4 km/h (1 Bft)
14.02.2016 18:54 0,7 C 0,0 C 88 % 993,4 hPa 0,0 mm 7,5 km/h (2 Bft) W 270 0 min -1,1 C 5,4 km/h (1 Bft)
14.02.2016 18:55 0,7 C 0,0 C 88 % 993,4 hPa 0,0 mm 7,5 km/h (2 Bft) N-NO 22 0 min -1,1 C 7,2 km/h (2 Bft)
14.02.2016 18:56 0,7 C 0,0 C 88 % 993,4 hPa 0,0 mm 7,5 km/h (2 Bft) N-NO 22 0 min -1,1 C 7,2 km/h (2 Bft)
14.02.2016 18:57 0,7 C 0,1 C 88 % 993,4 hPa 0,0 mm 7,2 km/h (2 Bft) W-NW 292 0 min -1,1 C 6,6 km/h (2 Bft)
14.02.2016 18:58 0,7 C 0,1 C 88 % 993,4 hPa 0,0 mm 7,2 km/h (2 Bft) W-NW 292 0 min -1,1 C 6,6 km/h (2 Bft)
14.02.2016 18:59 0,7 C 0,0 C 88 % 993,4 hPa 0,0 mm 7,5 km/h (2 Bft) W-SW 247 0 min -1,1 C 11,9 km/h (2 Bft)
14.02.2016 19:00 0,7 C 0,0 C 88 % 993,4 hPa 0,0 mm 7,5 km/h (2 Bft) W-SW 247 0 min -1,1 C 11,9 km/h (2 Bft)
14.02.2016 19:01 0,7 C 0,0 C 88 % 993,4 hPa 0,0 mm 7,5 km/h (2 Bft) W 270 0 min -1,1 C 8,6 km/h (2 Bft)
14.02.2016 19:02 0,7 C 0,0 C 88 % 993,4 hPa 0,0 mm 7,5 km/h (2 Bft) W 270 0 min -1,1 C 8,6 km/h (2 Bft)
14.02.2016 19:03 0,7 C 0,0 C 88 % 993,6 hPa 0,0 mm 7,5 km/h (2 Bft) SW 225 0 min -1,1 C 14,3 km/h (3 Bft)
14.02.2016 19:04 0,7 C 0,0 C 88 % 993,6 hPa 0,0 mm 7,5 km/h (2 Bft) SW 225 0 min -1,1 C 14,3 km/h (3 Bft)
14.02.2016 19:05 0,7 C -0,1 C 88 % 993,6 hPa 0,0 mm 8,3 km/h (2 Bft) W-SW 247 0 min -1,1 C 15,5 km/h (3 Bft)
14.02.2016 19:06 0,7 C -0,1 C 88 % 993,6 hPa 0,0 mm 8,3 km/h (2 Bft) W-SW 247 0 min -1,1 C 15,5 km/h (3 Bft)
14.02.2016 19:07 0,7 C -0,1 C 88 % 993,6 hPa 0,0 mm 8,3 km/h (2 Bft) W-SW 247 0 min -1,1 C 8,0 km/h (2 Bft)
14.02.2016 19:08 0,7 C -0,1 C 88 % 993,6 hPa 0,0 mm 8,3 km/h (2 Bft) W-SW 247 0 min -1,1 C 8,0 km/h (2 Bft)
14.02.2016 19:09 0,8 C -0,1 C 88 % 993,6 hPa 0,0 mm 8,9 km/h (2 Bft) SW 225 0 min -1,0 C 6,9 km/h (2 Bft)
14.02.2016 19:10 0,8 C -0,1 C 88 % 993,6 hPa 0,0 mm 8,9 km/h (2 Bft) SW 225 0 min -1,0 C 6,9 km/h (2 Bft)
14.02.2016 19:11 0,7 C 0,0 C 88 % 993,6 hPa 0,0 mm 8,9 km/h (2 Bft) S 180 0 min -1,1 C 23,5 km/h (4 Bft)
14.02.2016 19:12 0,7 C 0,0 C 88 % 993,6 hPa 0,0 mm 8,9 km/h (2 Bft) S 180 0 min -1,1 C 23,5 km/h (4 Bft)
14.02.2016 19:13 0,8 C 0,0 C 88 % 993,6 hPa 0,0 mm 9,2 km/h (2 Bft) SW 225 0 min -1,0 C 11,6 km/h (2 Bft)
14.02.2016 19:14 0,8 C 0,0 C 88 % 993,6 hPa 0,0 mm 9,2 km/h (2 Bft) SW 225 0 min -1,0 C 11,6 km/h (2 Bft)
14.02.2016 19:15 0,8 C 0,0 C 88 % 993,6 hPa 0,0 mm 8,9 km/h (2 Bft) W-SW 247 0 min -1,0 C 5,1 km/h (1 Bft)
14.02.2016 19:16 0,8 C 0,0 C 88 % 993,6 hPa 0,0 mm 8,9 km/h (2 Bft) W-SW 247 0 min -1,0 C 5,1 km/h (1 Bft)
14.02.2016 19:17 0,8 C 0,0 C 88 % 993,6 hPa 0,0 mm 8,9 km/h (2 Bft) O 90 0 min -1,0 C 14,3 km/h (3 Bft)
14.02.2016 19:18 0,8 C 0,0 C 88 % 993,6 hPa 0,0 mm 8,9 km/h (2 Bft) O 90 0 min -1,0 C 14,3 km/h (3 Bft)
14.02.2016 19:19 0,8 C 0,1 C 88 % 993,6 hPa 0,7 mm 8,6 km/h (2 Bft) W-SW 247 0 min -1,0 C 14,0 km/h (3 Bft)
14.02.2016 19:20 0,8 C 0,1 C 88 % 993,6 hPa 0,0 mm 8,6 km/h (2 Bft) W-SW 247 0 min -1,0 C 14,0 km/h (3 Bft)
14.02.2016 19:21 0,8 C 0,0 C 88 % 993,6 hPa 0,0 mm 8,9 km/h (2 Bft) W 270 0 min -1,0 C 6,0 km/h (2 Bft)
14.02.2016 19:22 0,8 C 0,0 C 88 % 993,6 hPa 0,0 mm 8,9 km/h (2 Bft) W 270 0 min -1,0 C 6,0 km/h (2 Bft)
14.02.2016 19:23 0,8 C 0,1 C 88 % 993,8 hPa 0,0 mm 8,0 km/h (2 Bft) W-SW 247 0 min -1,0 C 10,4 km/h (2 Bft)
14.02.2016 19:24 0,8 C 0,1 C 88 % 993,8 hPa 0,0 mm 8,0 km/h (2 Bft) W-SW 247 0 min -1,0 C 10,4 km/h (2 Bft)
14.02.2016 19:25 0,8 C 0,1 C 89 % 993,8 hPa 0,0 mm 8,0 km/h (2 Bft) W 270 0 min -0,8 C 15,2 km/h (3 Bft)
14.02.2016 19:26 0,8 C 0,1 C 89 % 993,8 hPa 0,0 mm 8,0 km/h (2 Bft) W 270 0 min -0,8 C 15,2 km/h (3 Bft)
14.02.2016 19:27 0,9 C 0,2 C 89 % 993,8 hPa 0,0 mm 8,0 km/h (2 Bft) W 270 0 min -0,7 C 6,0 km/h (2 Bft)
14.02.2016 19:28 0,9 C 0,2 C 89 % 993,8 hPa 0,0 mm 8,0 km/h (2 Bft) W 270 0 min -0,7 C 6,0 km/h (2 Bft)
14.02.2016 19:29 0,9 C 0,3 C 89 % 993,8 hPa 0,0 mm 7,5 km/h (2 Bft) W-SW 247 0 min -0,7 C 6,0 km/h (2 Bft)
14.02.2016 19:30 0,9 C 0,3 C 89 % 993,8 hPa 0,0 mm 7,5 km/h (2 Bft) W-SW 247 0 min -0,7 C 6,0 km/h (2 Bft)
14.02.2016 19:31 0,9 C 0,3 C 89 % 993,8 hPa 0,0 mm 7,5 km/h (2 Bft) SW 225 0 min -0,7 C 6,3 km/h (2 Bft)
14.02.2016 19:32 0,9 C 0,3 C 89 % 993,8 hPa 0,0 mm 7,5 km/h (2 Bft) SW 225 0 min -0,7 C 6,3 km/h (2 Bft)
14.02.2016 19:33 0,9 C 0,2 C 89 % 993,8 hPa 0,0 mm 7,7 km/h (2 Bft) N-NO 22 0 min -0,7 C 6,0 km/h (2 Bft)
14.02.2016 19:34 0,9 C 0,2 C 89 % 993,8 hPa 0,0 mm 7,7 km/h (2 Bft) N-NO 22 0 min -0,7 C 6,0 km/h (2 Bft)
14.02.2016 19:35 1,0 C 0,2 C 89 % 993,8 hPa 0,0 mm 8,6 km/h (2 Bft) W-SW 247 0 min -0,6 C 13,1 km/h (3 Bft)
14.02.2016 19:36 1,0 C 0,2 C 89 % 993,8 hPa 0,0 mm 8,6 km/h (2 Bft) W-SW 247 0 min -0,6 C 13,1 km/h (3 Bft)
14.02.2016 19:37 1,0 C 0,3 C 89 % 993,8 hPa 0,0 mm 8,3 km/h (2 Bft) W-NW 292 0 min -0,6 C 12,8 km/h (3 Bft)
14.02.2016 19:38 1,0 C 0,3 C 89 % 993,8 hPa 0,0 mm 8,3 km/h (2 Bft) W-NW 292 0 min -0,6 C 12,8 km/h (3 Bft)
14.02.2016 19:39 1,0 C 0,3 C 89 % 993,8 hPa 0,0 mm 8,3 km/h (2 Bft) W-SW 247 0 min -0,6 C 7,2 km/h (2 Bft)
14.02.2016 19:40 1,0 C 0,3 C 89 % 993,8 hPa 0,0 mm 8,3 km/h (2 Bft) W-SW 247 0 min -0,6 C 7,2 km/h (2 Bft)
14.02.2016 19:41 1,0 C 0,3 C 89 % 993,8 hPa 0,0 mm 8,0 km/h (2 Bft) W-SW 247 0 min -0,6 C 9,8 km/h (2 Bft)
14.02.2016 19:42 1,0 C 0,3 C 89 % 993,8 hPa 0,0 mm 8,0 km/h (2 Bft) W-SW 247 0 min -0,6 C 9,8 km/h (2 Bft)
14.02.2016 19:43 1,0 C 0,3 C 89 % 994,1 hPa 0,0 mm 8,6 km/h (2 Bft) W 270 0 min -0,6 C 11,6 km/h (2 Bft)
14.02.2016 19:44 1,0 C 0,3 C 89 % 994,1 hPa 0,0 mm 8,6 km/h (2 Bft) W 270 0 min -0,6 C 11,6 km/h (2 Bft)
14.02.2016 19:45 1,0 C 0,3 C 89 % 994,1 hPa 0,0 mm 8,3 km/h (2 Bft) W-SW 247 0 min -0,6 C 8,3 km/h (2 Bft)
14.02.2016 19:46 1,0 C 0,3 C 89 % 994,1 hPa 0,0 mm 8,3 km/h (2 Bft) W-SW 247 0 min -0,6 C 8,3 km/h (2 Bft)
14.02.2016 19:47 1,0 C 0,3 C 89 % 994,1 hPa 0,0 mm 8,0 km/h (2 Bft) S 180 0 min -0,6 C 4,8 km/h (1 Bft)
14.02.2016 19:48 1,0 C 0,3 C 89 % 994,1 hPa 0,0 mm 8,0 km/h (2 Bft) S 180 0 min -0,6 C 4,8 km/h (1 Bft)
14.02.2016 19:49 1,0 C 0,4 C 89 % 994,1 hPa 0,0 mm 7,7 km/h (2 Bft) W-SW 247 0 min -0,6 C 5,7 km/h (1 Bft)
14.02.2016 19:50 1,0 C 0,4 C 89 % 994,1 hPa 0,0 mm 7,7 km/h (2 Bft) W-SW 247 0 min -0,6 C 5,7 km/h (1 Bft)
14.02.2016 19:51 0,9 C 0,3 C 89 % 994,1 hPa 0,0 mm 8,0 km/h (2 Bft) W-SW 247 0 min -0,7 C 10,4 km/h (2 Bft)
14.02.2016 19:52 0,9 C 0,3 C 89 % 994,1 hPa 0,0 mm 8,0 km/h (2 Bft) W-SW 247 0 min -0,7 C 10,4 km/h (2 Bft)
14.02.2016 19:53 1,0 C 0,3 C 89 % 994,1 hPa 0,0 mm 8,0 km/h (2 Bft) SW 225 0 min -0,6 C 9,2 km/h (2 Bft)
14.02.2016 19:54 1,0 C 0,3 C 89 % 994,1 hPa 0,0 mm 8,0 km/h (2 Bft) SW 225 0 min -0,6 C 9,2 km/h (2 Bft)
14.02.2016 19:55 1,0 C 0,3 C 89 % 994,1 hPa 0,0 mm 8,3 km/h (2 Bft) W-SW 247 0 min -0,6 C 18,2 km/h (3 Bft)
14.02.2016 19:56 1,0 C 0,3 C 89 % 994,1 hPa 0,0 mm 8,3 km/h (2 Bft) W-SW 247 0 min -0,6 C 18,2 km/h (3 Bft)
14.02.2016 19:57 1,0 C 0,2 C 89 % 994,1 hPa 0,0 mm 8,9 km/h (2 Bft) W-SW 247 0 min -0,6 C 10,7 km/h (2 Bft)
14.02.2016 19:58 1,0 C 0,2 C 89 % 994,1 hPa 0,0 mm 8,9 km/h (2 Bft) W-SW 247 0 min -0,6 C 10,7 km/h (2 Bft)
14.02.2016 19:59 1,0 C 0,2 C 89 % 994,1 hPa 0,0 mm 9,2 km/h (2 Bft) W 270 0 min -0,6 C 15,2 km/h (3 Bft)
14.02.2016 20:00 1,0 C 0,2 C 89 % 994,1 hPa 0,0 mm 9,2 km/h (2 Bft) W 270 0 min -0,6 C 15,2 km/h (3 Bft)
14.02.2016 20:01 1,0 C 0,1 C 89 % 994,1 hPa 0,0 mm 10,4 km/h (2 Bft) W 270 0 min -0,6 C 15,8 km/h (3 Bft)
14.02.2016 20:02 1,0 C 0,1 C 89 % 994,1 hPa 0,0 mm 10,4 km/h (2 Bft) W 270 0 min -0,6 C 15,8 km/h (3 Bft)
14.02.2016 20:03 1,0 C 0,2 C 89 % 994,2 hPa 0,0 mm 9,8 km/h (2 Bft) W-SW 247 0 min -0,6 C 11,9 km/h (2 Bft)
14.02.2016 20:04 1,0 C 0,2 C 89 % 994,2 hPa 0,0 mm 9,8 km/h (2 Bft) W-SW 247 0 min -0,6 C 11,9 km/h (2 Bft)
14.02.2016 20:05 1,0 C 0,2 C 89 % 994,2 hPa 0,0 mm 9,8 km/h (2 Bft) W-NW 292 0 min -0,6 C 8,3 km/h (2 Bft)
14.02.2016 20:06 1,0 C 0,2 C 89 % 994,2 hPa 0,0 mm 9,8 km/h (2 Bft) W-NW 292 0 min -0,6 C 8,3 km/h (2 Bft)
14.02.2016 20:07 0,9 C 0,1 C 89 % 994,2 hPa 0,0 mm 9,5 km/h (2 Bft) W-SW 247 0 min -0,7 C 9,2 km/h (2 Bft)
14.02.2016 20:08 0,9 C 0,1 C 89 % 994,2 hPa 0,0 mm 9,5 km/h (2 Bft) W-SW 247 0 min -0,7 C 9,2 km/h (2 Bft)
14.02.2016 20:09 0,9 C 0,1 C 89 % 994,2 hPa 0,0 mm 9,5 km/h (2 Bft) W-SW 247 0 min -0,7 C 9,5 km/h (2 Bft)
14.02.2016 20:10 0,9 C 0,1 C 89 % 994,2 hPa 0,0 mm 9,5 km/h (2 Bft) W-SW 247 0 min -0,7 C 9,5 km/h (2 Bft)
14.02.2016 20:11 0,9 C 0,2 C 89 % 994,2 hPa 0,0 mm 8,9 km/h (2 Bft) W-NW 292 0 min -0,7 C 22,9 km/h (4 Bft)
14.02.2016 20:12 0,9 C 0,2 C 89 % 994,2 hPa 0,0 mm 8,9 km/h (2 Bft) W-NW 292 0 min -0,7 C 22,9 km/h (4 Bft)
14.02.2016 20:13 0,9 C 0,2 C 89 % 994,2 hPa 0,0 mm 8,9 km/h (2 Bft) W-SW 247 0 min -0,7 C 10,1 km/h (2 Bft)
14.02.2016 20:14 0,9 C 0,2 C 89 % 994,2 hPa 0,0 mm 8,9 km/h (2 Bft) W-SW 247 0 min -0,7 C 10,1 km/h (2 Bft)
14.02.2016 20:15 0,9 C 0,2 C 89 % 994,2 hPa 0,0 mm 8,6 km/h (2 Bft) W-SW 247 0 min -0,7 C 15,8 km/h (3 Bft)
14.02.2016 20:16 0,9 C 0,2 C 89 % 994,2 hPa 0,0 mm 8,6 km/h (2 Bft) W-SW 247 0 min -0,7 C 15,8 km/h (3 Bft)
14.02.2016 20:17 0,9 C 0,2 C 89 % 994,2 hPa 0,0 mm 8,6 km/h (2 Bft) W-SW 247 0 min -0,7 C 6,6 km/h (2 Bft)
14.02.2016 20:18 0,9 C 0,2 C 89 % 994,2 hPa 0,0 mm 8,6 km/h (2 Bft) W-SW 247 0 min -0,7 C 6,6 km/h (2 Bft)
14.02.2016 20:19 0,9 C 0,2 C 89 % 994,2 hPa 0,0 mm 8,9 km/h (2 Bft) W-NW 292 0 min -0,7 C 11,6 km/h (2 Bft)
14.02.2016 20:20 0,9 C 0,2 C 89 % 994,2 hPa 0,0 mm 8,9 km/h (2 Bft) W-NW 292 0 min -0,7 C 11,6 km/h (2 Bft)
14.02.2016 20:21 0,9 C 0,2 C 89 % 994,2 hPa 0,0 mm 9,2 km/h (2 Bft) W-SW 247 0 min -0,7 C 11,3 km/h (2 Bft)
14.02.2016 20:22 0,9 C 0,2 C 89 % 994,2 hPa 0,0 mm 9,2 km/h (2 Bft) W-SW 247 0 min -0,7 C 11,3 km/h (2 Bft)
14.02.2016 20:23 0,9 C 0,2 C 89 % 994,5 hPa 0,7 mm 8,9 km/h (2 Bft) N-NO 22 0 min -0,7 C 8,6 km/h (2 Bft)
14.02.2016 20:24 0,9 C 0,2 C 89 % 994,5 hPa 0,0 mm 8,9 km/h (2 Bft) N-NO 22 0 min -0,7 C 8,6 km/h (2 Bft)
14.02.2016 20:25 0,9 C 0,2 C 89 % 994,5 hPa 0,0 mm 8,9 km/h (2 Bft) W-SW 247 0 min -0,7 C 8,9 km/h (2 Bft)
14.02.2016 20:26 0,9 C 0,2 C 89 % 994,5 hPa 0,0 mm 8,9 km/h (2 Bft) W-SW 247 0 min -0,7 C 8,9 km/h (2 Bft)
14.02.2016 20:27 0,9 C 0,2 C 89 % 994,5 hPa 0,0 mm 8,9 km/h (2 Bft) W 270 0 min -0,7 C 11,9 km/h (2 Bft)
14.02.2016 20:28 0,9 C 0,2 C 89 % 994,5 hPa 0,0 mm 8,9 km/h (2 Bft) W 270 0 min -0,7 C 11,9 km/h (2 Bft)
14.02.2016 20:29 0,9 C 0,2 C 89 % 994,5 hPa 0,0 mm 8,9 km/h (2 Bft) W-SW 247 0 min -0,7 C 8,3 km/h (2 Bft)
14.02.2016 20:30 0,9 C 0,2 C 89 % 994,5 hPa 0,0 mm 8,9 km/h (2 Bft) W-SW 247 0 min -0,7 C 8,3 km/h (2 Bft)
14.02.2016 20:31 0,9 C 0,2 C 89 % 994,5 hPa 0,0 mm 8,6 km/h (2 Bft) NW 315 0 min -0,7 C 14,0 km/h (3 Bft)
14.02.2016 20:32 0,9 C 0,2 C 89 % 994,5 hPa 0,0 mm 8,6 km/h (2 Bft) NW 315 0 min -0,7 C 14,0 km/h (3 Bft)
14.02.2016 20:33 0,9 C 0,2 C 89 % 994,5 hPa 0,0 mm 8,6 km/h (2 Bft) W 270 0 min -0,7 C 11,6 km/h (2 Bft)
14.02.2016 20:34 0,9 C 0,2 C 89 % 994,5 hPa 0,0 mm 8,6 km/h (2 Bft) W 270 0 min -0,7 C 11,6 km/h (2 Bft)
14.02.2016 20:35 0,9 C 0,2 C 89 % 994,5 hPa 0,0 mm 8,9 km/h (2 Bft) S-SW 202 0 min -0,7 C 9,2 km/h (2 Bft)
14.02.2016 20:36 0,9 C 0,2 C 89 % 994,5 hPa 0,0 mm 8,9 km/h (2 Bft) S-SW 202 0 min -0,7 C 9,2 km/h (2 Bft)
14.02.2016 20:37 0,9 C 0,3 C 89 % 994,5 hPa 0,0 mm 8,0 km/h (2 Bft) NW 315 0 min -0,7 C 7,5 km/h (2 Bft)
14.02.2016 20:38 0,9 C 0,3 C 89 % 994,5 hPa 0,0 mm 8,0 km/h (2 Bft) NW 315 0 min -0,7 C 7,5 km/h (2 Bft)
14.02.2016 20:39 0,9 C 0,3 C 89 % 994,5 hPa 0,0 mm 7,7 km/h (2 Bft) N-NO 22 0 min -0,7 C 6,9 km/h (2 Bft)
14.02.2016 20:40 0,9 C 0,3 C 89 % 994,5 hPa 0,0 mm 7,7 km/h (2 Bft) N-NO 22 0 min -0,7 C 6,9 km/h (2 Bft)
14.02.2016 20:41 0,9 C 0,3 C 89 % 994,5 hPa 0,0 mm 7,7 km/h (2 Bft) W-SW 247 0 min -0,7 C 9,8 km/h (2 Bft)
14.02.2016 20:42 0,9 C 0,3 C 89 % 994,5 hPa 0,0 mm 7,7 km/h (2 Bft) W-SW 247 0 min -0,7 C 9,8 km/h (2 Bft)
14.02.2016 20:43 0,9 C 0,4 C 89 % 995,0 hPa 0,0 mm 6,9 km/h (2 Bft) SW 225 0 min -0,7 C 6,0 km/h (2 Bft)
14.02.2016 20:44 0,9 C 0,4 C 89 % 995,0 hPa 0,0 mm 6,9 km/h (2 Bft) SW 225 0 min -0,7 C 6,0 km/h (2 Bft)
14.02.2016 20:45 0,8 C 0,4 C 89 % 995,0 hPa 0,0 mm 6,0 km/h (2 Bft) SW 225 0 min -0,8 C 8,3 km/h (2 Bft)
14.02.2016 20:46 0,8 C 0,4 C 89 % 995,0 hPa 0,0 mm 6,0 km/h (2 Bft) SW 225 0 min -0,8 C 8,3 km/h (2 Bft)
14.02.2016 20:47 0,8 C 0,4 C 89 % 995,0 hPa 0,0 mm 6,0 km/h (2 Bft) SW 225 0 min -0,8 C 6,3 km/h (2 Bft)
14.02.2016 20:48 0,8 C 0,4 C 89 % 995,0 hPa 0,0 mm 6,0 km/h (2 Bft) SW 225 0 min -0,8 C 6,3 km/h (2 Bft)
14.02.2016 20:49 0,8 C 0,4 C 89 % 995,0 hPa 0,0 mm 6,0 km/h (2 Bft) SW 225 0 min -0,8 C 9,8 km/h (2 Bft)
14.02.2016 20:50 0,8 C 0,4 C 89 % 995,0 hPa 0,0 mm 6,0 km/h (2 Bft) SW 225 0 min -0,8 C 9,8 km/h (2 Bft)
14.02.2016 20:51 0,8 C 0,4 C 89 % 995,0 hPa 0,0 mm 5,7 km/h (1 Bft) SW 225 0 min -0,8 C 6,9 km/h (2 Bft)
14.02.2016 20:52 0,8 C 0,4 C 89 % 995,0 hPa 0,0 mm 5,7 km/h (1 Bft) SW 225 0 min -0,8 C 6,9 km/h (2 Bft)
14.02.2016 20:53 0,8 C 0,5 C 89 % 995,0 hPa 0,0 mm 5,4 km/h (1 Bft) W 270 0 min -0,8 C 3,3 km/h (1 Bft)
14.02.2016 20:54 0,8 C 0,5 C 89 % 995,0 hPa 0,0 mm 5,4 km/h (1 Bft) W 270 0 min -0,8 C 3,3 km/h (1 Bft)
14.02.2016 20:55 0,8 C 0,4 C 89 % 995,0 hPa 0,0 mm 5,7 km/h (1 Bft) S 180 0 min -0,8 C 8,6 km/h (2 Bft)
14.02.2016 20:56 0,8 C 0,4 C 89 % 995,0 hPa 0,0 mm 5,7 km/h (1 Bft) S 180 0 min -0,8 C 8,6 km/h (2 Bft)
14.02.2016 20:57 0,8 C 0,4 C 89 % 995,0 hPa 0,0 mm 5,7 km/h (1 Bft) W-SW 247 0 min -0,8 C 5,4 km/h (1 Bft)
14.02.2016 20:58 0,8 C 0,4 C 89 % 995,0 hPa 0,0 mm 5,7 km/h (1 Bft) W-SW 247 0 min -0,8 C 5,4 km/h (1 Bft)
14.02.2016 20:59 0,8 C 0,4 C 89 % 995,0 hPa 0,0 mm 5,7 km/h (1 Bft) W-SW 247 0 min -0,8 C 6,3 km/h (2 Bft)
14.02.2016 21:00 0,8 C 0,4 C 89 % 995,0 hPa 0,0 mm 5,7 km/h (1 Bft) W-SW 247 0 min -0,8 C 6,3 km/h (2 Bft)
14.02.2016 21:01 0,8 C 0,5 C 89 % 995,0 hPa 0,0 mm 5,4 km/h (1 Bft) SW 225 0 min -0,8 C 9,2 km/h (2 Bft)
14.02.2016 21:02 0,8 C 0,5 C 89 % 995,0 hPa 0,0 mm 5,4 km/h (1 Bft) SW 225 0 min -0,8 C 9,2 km/h (2 Bft)
14.02.2016 21:03 0,8 C 0,5 C 89 % 995,3 hPa 0,0 mm 5,4 km/h (1 Bft) W 270 0 min -0,8 C 5,4 km/h (1 Bft)
14.02.2016 21:04 0,8 C 0,5 C 89 % 995,3 hPa 0,0 mm 5,4 km/h (1 Bft) W 270 0 min -0,8 C 5,4 km/h (1 Bft)
14.02.2016 21:05 0,8 C 0,5 C 89 % 995,3 hPa 0,0 mm 5,4 km/h (1 Bft) W 270 0 min -0,8 C 7,5 km/h (2 Bft)
14.02.2016 21:06 0,8 C 0,5 C 89 % 995,3 hPa 0,0 mm 5,4 km/h (1 Bft) W 270 0 min -0,8 C 7,5 km/h (2 Bft)
14.02.2016 21:07 0,8 C 0,5 C 89 % 995,3 hPa 0,0 mm 5,4 km/h (1 Bft) W-SW 247 0 min -0,8 C 6,0 km/h (2 Bft)
14.02.2016 21:08 0,8 C 0,5 C 89 % 995,3 hPa 0,0 mm 5,4 km/h (1 Bft) W-SW 247 0 min -0,8 C 6,0 km/h (2 Bft)
14.02.2016 21:09 0,9 C 0,5 C 89 % 995,3 hPa 0,0 mm 5,4 km/h (1 Bft) S 180 0 min -0,7 C 8,0 km/h (2 Bft)
14.02.2016 21:10 0,9 C 0,5 C 89 % 995,3 hPa 0,0 mm 5,4 km/h (1 Bft) S 180 0 min -0,7 C 8,0 km/h (2 Bft)
14.02.2016 21:11 0,9 C 0,5 C 89 % 995,3 hPa 0,0 mm 6,0 km/h (2 Bft) SW 225 0 min -0,7 C 12,5 km/h (3 Bft)
14.02.2016 21:12 0,9 C 0,5 C 89 % 995,3 hPa 0,0 mm 6,0 km/h (2 Bft) SW 225 0 min -0,7 C 12,5 km/h (3 Bft)
14.02.2016 21:13 0,9 C 0,4 C 89 % 995,3 hPa 0,0 mm 6,6 km/h (2 Bft) SW 225 0 min -0,7 C 12,8 km/h (3 Bft)
14.02.2016 21:14 0,9 C 0,4 C 89 % 995,3 hPa 0,0 mm 6,6 km/h (2 Bft) SW 225 0 min -0,7 C 12,8 km/h (3 Bft)
14.02.2016 21:15 0,9 C 0,4 C 89 % 995,3 hPa 0,0 mm 7,2 km/h (2 Bft) SW 225 0 min -0,7 C 5,7 km/h (1 Bft)
14.02.2016 21:16 0,9 C 0,4 C 89 % 995,3 hPa 0,0 mm 7,2 km/h (2 Bft) SW 225 0 min -0,7 C 5,7 km/h (1 Bft)
14.02.2016 21:17 1,0 C 0,4 C 89 % 995,3 hPa 0,0 mm 7,7 km/h (2 Bft) SW 225 0 min -0,6 C 11,3 km/h (2 Bft)
14.02.2016 21:18 1,0 C 0,4 C 89 % 995,3 hPa 0,0 mm 7,7 km/h (2 Bft) SW 225 0 min -0,6 C 11,3 km/h (2 Bft)
14.02.2016 21:19 1,0 C 0,3 C 89 % 995,3 hPa 0,0 mm 8,3 km/h (2 Bft) SW 225 0 min -0,6 C 12,5 km/h (3 Bft)
14.02.2016 21:20 1,0 C 0,3 C 89 % 995,3 hPa 0,0 mm 8,3 km/h (2 Bft) SW 225 0 min -0,6 C 12,5 km/h (3 Bft)
14.02.2016 21:21 1,0 C 0,2 C 89 % 995,3 hPa 0,7 mm 9,2 km/h (2 Bft) W-SW 247 0 min -0,6 C 14,3 km/h (3 Bft)
14.02.2016 21:22 1,0 C 0,2 C 89 % 995,3 hPa 0,0 mm 9,2 km/h (2 Bft) W-SW 247 0 min -0,6 C 14,3 km/h (3 Bft)
14.02.2016 21:23 1,0 C 0,3 C 89 % 995,6 hPa 0,0 mm 8,9 km/h (2 Bft) W-SW 247 0 min -0,6 C 6,9 km/h (2 Bft)
14.02.2016 21:24 1,0 C 0,3 C 89 % 995,6 hPa 0,0 mm 8,9 km/h (2 Bft) W-SW 247 0 min -0,6 C 6,9 km/h (2 Bft)
14.02.2016 21:25 1,0 C 0,4 C 89 % 995,6 hPa 0,0 mm 8,0 km/h (2 Bft) SW 225 0 min -0,6 C 5,7 km/h (1 Bft)
14.02.2016 21:26 1,0 C 0,4 C 89 % 995,6 hPa 0,0 mm 8,0 km/h (2 Bft) SW 225 0 min -0,6 C 5,7 km/h (1 Bft)
14.02.2016 21:27 1,0 C 0,5 C 89 % 995,6 hPa 0,0 mm 7,2 km/h (2 Bft) S 180 0 min -0,6 C 3,3 km/h (1 Bft)
14.02.2016 21:28 1,0 C 0,5 C 89 % 995,6 hPa 0,0 mm 7,2 km/h (2 Bft) S 180 0 min -0,6 C 3,3 km/h (1 Bft)
14.02.2016 21:29 1,0 C 0,7 C 89 % 995,6 hPa 0,0 mm 5,4 km/h (1 Bft) S-SW 202 0 min -0,6 C 0,0 km/h (0 Bft)
14.02.2016 21:30 1,0 C 0,7 C 89 % 995,6 hPa 0,0 mm 5,4 km/h (1 Bft) S-SW 202 0 min -0,6 C 0,0 km/h (0 Bft)
14.02.2016 21:31 0,9 C 0,7 C 89 % 995,6 hPa 0,0 mm 4,2 km/h (1 Bft) S 180 0 min -0,7 C 6,0 km/h (2 Bft)
14.02.2016 21:32 0,9 C 0,7 C 89 % 995,6 hPa 0,0 mm 4,2 km/h (1 Bft) S 180 0 min -0,7 C 6,0 km/h (2 Bft)
14.02.2016 21:33 0,9 C 0,7 C 89 % 995,6 hPa 0,0 mm 3,3 km/h (1 Bft) SW 225 0 min -0,7 C 7,7 km/h (2 Bft)
14.02.2016 21:34 0,9 C 0,7 C 89 % 995,6 hPa 0,0 mm 3,3 km/h (1 Bft) SW 225 0 min -0,7 C 7,7 km/h (2 Bft)
14.02.2016 21:35 1,0 C 0,8 C 89 % 995,6 hPa 0,0 mm 3,0 km/h (1 Bft) S-SW 202 0 min -0,6 C 7,5 km/h (2 Bft)
14.02.2016 21:36 1,0 C 0,8 C 89 % 995,6 hPa 0,0 mm 3,0 km/h (1 Bft) S-SW 202 0 min -0,6 C 7,5 km/h (2 Bft)
14.02.2016 21:37 1,0 C 0,8 C 89 % 995,6 hPa 0,0 mm 4,2 km/h (1 Bft) SW 225 0 min -0,6 C 9,2 km/h (2 Bft)
14.02.2016 21:38 1,0 C 0,8 C 89 % 995,6 hPa 0,0 mm 4,2 km/h (1 Bft) SW 225 0 min -0,6 C 9,2 km/h (2 Bft)
14.02.2016 21:39 1,0 C 0,7 C 89 % 995,6 hPa 0,0 mm 5,4 km/h (1 Bft) W-SW 247 0 min -0,6 C 11,3 km/h (2 Bft)
14.02.2016 21:40 1,0 C 0,7 C 89 % 995,6 hPa 0,0 mm 5,4 km/h (1 Bft) W-SW 247 0 min -0,6 C 11,3 km/h (2 Bft)
14.02.2016 21:41 1,0 C 0,5 C 89 % 995,6 hPa 0,0 mm 6,9 km/h (2 Bft) W-SW 247 0 min -0,6 C 11,0 km/h (2 Bft)
14.02.2016 21:42 1,0 C 0,5 C 89 % 995,6 hPa 0,0 mm 6,9 km/h (2 Bft) W-SW 247 0 min -0,6 C 11,0 km/h (2 Bft)
14.02.2016 21:43 1,1 C 0,5 C 89 % 995,7 hPa 0,0 mm 7,7 km/h (2 Bft) SW 225 0 min -0,5 C 9,2 km/h (2 Bft)
14.02.2016 21:44 1,1 C 0,5 C 89 % 995,7 hPa 0,0 mm 7,7 km/h (2 Bft) SW 225 0 min -0,5 C 9,2 km/h (2 Bft)
14.02.2016 21:45 1,1 C 0,4 C 89 % 995,7 hPa 0,0 mm 8,6 km/h (2 Bft) SW 225 0 min -0,5 C 9,2 km/h (2 Bft)
14.02.2016 21:46 1,1 C 0,4 C 89 % 995,7 hPa 0,0 mm 8,6 km/h (2 Bft) SW 225 0 min -0,5 C 9,2 km/h (2 Bft)
14.02.2016 21:47 1,1 C 0,5 C 89 % 995,7 hPa 0,0 mm 8,3 km/h (2 Bft) SW 225 0 min -0,5 C 7,2 km/h (2 Bft)
14.02.2016 21:48 1,1 C 0,5 C 89 % 995,7 hPa 0,0 mm 8,3 km/h (2 Bft) SW 225 0 min -0,5 C 7,2 km/h (2 Bft)
14.02.2016 21:49 1,1 C 0,5 C 89 % 995,7 hPa 0,0 mm 8,3 km/h (2 Bft) S-SW 202 0 min -0,5 C 13,7 km/h (3 Bft)
14.02.2016 21:50 1,1 C 0,5 C 89 % 995,7 hPa 0,0 mm 8,3 km/h (2 Bft) S-SW 202 0 min -0,5 C 13,7 km/h (3 Bft)
14.02.2016 21:51 1,1 C 0,5 C 89 % 995,7 hPa 0,0 mm 7,7 km/h (2 Bft) W-SW 247 0 min -0,5 C 3,9 km/h (1 Bft)
14.02.2016 21:52 1,1 C 0,5 C 89 % 995,7 hPa 0,0 mm 7,7 km/h (2 Bft) W-SW 247 0 min -0,5 C 3,9 km/h (1 Bft)
14.02.2016 21:53 1,1 C 0,5 C 89 % 995,7 hPa 0,0 mm 7,7 km/h (2 Bft) SW 225 0 min -0,5 C 8,3 km/h (2 Bft)
14.02.2016 21:54 1,1 C 0,5 C 89 % 995,7 hPa 0,0 mm 7,7 km/h (2 Bft) SW 225 0 min -0,5 C 8,3 km/h (2 Bft)
14.02.2016 21:55 1,0 C 0,5 C 89 % 995,7 hPa 0,0 mm 7,5 km/h (2 Bft) SW 225 0 min -0,6 C 10,7 km/h (2 Bft)
14.02.2016 21:56 1,0 C 0,5 C 89 % 995,7 hPa 0,0 mm 7,5 km/h (2 Bft) SW 225 0 min -0,6 C 10,7 km/h (2 Bft)
14.02.2016 21:57 1,1 C 0,6 C 89 % 995,7 hPa 0,0 mm 7,2 km/h (2 Bft) SW 225 0 min -0,5 C 10,7 km/h (2 Bft)
14.02.2016 21:58 1,1 C 0,6 C 89 % 995,7 hPa 0,0 mm 7,2 km/h (2 Bft) SW 225 0 min -0,5 C 10,7 km/h (2 Bft)
14.02.2016 21:59 1,1 C 0,6 C 89 % 995,7 hPa 0,0 mm 7,2 km/h (2 Bft) SW 225 0 min -0,5 C 8,0 km/h (2 Bft)
14.02.2016 22:00 1,1 C 0,6 C 89 % 995,7 hPa 0,0 mm 7,2 km/h (2 Bft) SW 225 0 min -0,5 C 8,0 km/h (2 Bft)
14.02.2016 22:01 1,1 C 0,6 C 89 % 995,7 hPa 0,0 mm 7,2 km/h (2 Bft) S 180 0 min -0,5 C 11,6 km/h (2 Bft)
14.02.2016 22:02 1,1 C 0,6 C 89 % 995,7 hPa 0,0 mm 7,2 km/h (2 Bft) S 180 0 min -0,5 C 11,6 km/h (2 Bft)
14.02.2016 22:03 1,1 C 0,5 C 89 % 995,9 hPa 0,0 mm 7,5 km/h (2 Bft) S-SW 202 0 min -0,5 C 8,9 km/h (2 Bft)
14.02.2016 22:04 1,1 C 0,5 C 89 % 995,9 hPa 0,0 mm 7,5 km/h (2 Bft) S-SW 202 0 min -0,5 C 8,9 km/h (2 Bft)
14.02.2016 22:05 1,1 C 0,5 C 89 % 995,9 hPa 0,0 mm 7,7 km/h (2 Bft) S 180 0 min -0,5 C 13,1 km/h (3 Bft)
14.02.2016 22:06 1,1 C 0,5 C 89 % 995,9 hPa 0,0 mm 7,7 km/h (2 Bft) S 180 0 min -0,5 C 13,1 km/h (3 Bft)
14.02.2016 22:07 1,1 C 0,5 C 89 % 995,9 hPa 0,0 mm 7,7 km/h (2 Bft) SW 225 0 min -0,5 C 9,8 km/h (2 Bft)
14.02.2016 22:08 1,1 C 0,5 C 89 % 995,9 hPa 0,0 mm 7,7 km/h (2 Bft) SW 225 0 min -0,5 C 9,8 km/h (2 Bft)
14.02.2016 22:09 1,1 C 0,6 C 89 % 995,9 hPa 0,0 mm 7,2 km/h (2 Bft) W-NW 292 0 min -0,5 C 3,0 km/h (1 Bft)
14.02.2016 22:10 1,1 C 0,6 C 89 % 995,9 hPa 0,0 mm 7,2 km/h (2 Bft) W-NW 292 0 min -0,5 C 3,0 km/h (1 Bft)
14.02.2016 22:11 1,1 C 0,6 C 89 % 995,9 hPa 0,0 mm 6,9 km/h (2 Bft) S 180 0 min -0,5 C 5,7 km/h (1 Bft)
14.02.2016 22:12 1,1 C 0,6 C 89 % 995,9 hPa 0,0 mm 6,9 km/h (2 Bft) S 180 0 min -0,5 C 5,7 km/h (1 Bft)
14.02.2016 22:13 1,0 C 0,6 C 89 % 995,9 hPa 0,0 mm 6,3 km/h (2 Bft) SW 225 0 min -0,6 C 8,9 km/h (2 Bft)
14.02.2016 22:14 1,0 C 0,6 C 89 % 995,9 hPa 0,0 mm 6,3 km/h (2 Bft) SW 225 0 min -0,6 C 8,9 km/h (2 Bft)
14.02.2016 22:15 1,0 C 0,6 C 89 % 995,9 hPa 0,0 mm 6,0 km/h (2 Bft) SW 225 0 min -0,6 C 6,9 km/h (2 Bft)
14.02.2016 22:16 1,0 C 0,6 C 89 % 995,9 hPa 0,0 mm 6,0 km/h (2 Bft) SW 225 0 min -0,6 C 6,9 km/h (2 Bft)
14.02.2016 22:17 1,0 C 0,7 C 89 % 995,9 hPa 0,0 mm 5,4 km/h (1 Bft) W-SW 247 0 min -0,6 C 5,4 km/h (1 Bft)
14.02.2016 22:18 1,0 C 0,7 C 89 % 995,9 hPa 0,0 mm 5,4 km/h (1 Bft) W-SW 247 0 min -0,6 C 5,4 km/h (1 Bft)
14.02.2016 22:19 1,0 C 0,8 C 89 % 995,9 hPa 0,0 mm 4,2 km/h (1 Bft) SO 135 0 min -0,6 C 0,0 km/h (0 Bft)
14.02.2016 22:20 1,0 C 0,8 C 89 % 995,9 hPa 0,0 mm 4,2 km/h (1 Bft) SO 135 0 min -0,6 C 0,0 km/h (0 Bft)
14.02.2016 22:21 1,0 C 0,8 C 89 % 995,9 hPa 0,0 mm 4,5 km/h (1 Bft) S 180 0 min -0,6 C 6,6 km/h (2 Bft)
14.02.2016 22:22 1,0 C 0,8 C 89 % 995,9 hPa 0,0 mm 4,5 km/h (1 Bft) S 180 0 min -0,6 C 6,6 km/h (2 Bft)
14.02.2016 22:23 1,0 C 0,8 C 89 % 996,2 hPa 0,0 mm 4,5 km/h (1 Bft) S-SO 157 0 min -0,6 C 0,0 km/h (0 Bft)
14.02.2016 22:24 1,0 C 0,8 C 89 % 996,2 hPa 0,0 mm 4,5 km/h (1 Bft) S-SO 157 0 min -0,6 C 0,0 km/h (0 Bft)
14.02.2016 22:25 1,0 C 0,8 C 89 % 996,2 hPa 0,0 mm 4,2 km/h (1 Bft) S 180 0 min -0,6 C 0,0 km/h (0 Bft)
14.02.2016 22:26 1,0 C 0,8 C 89 % 996,2 hPa 0,0 mm 4,2 km/h (1 Bft) S 180 0 min -0,6 C 0,0 km/h (0 Bft)
14.02.2016 22:27 1,0 C 0,8 C 89 % 996,2 hPa 0,0 mm 3,3 km/h (1 Bft) SW 225 0 min -0,6 C 8,3 km/h (2 Bft)
14.02.2016 22:28 1,0 C 0,8 C 89 % 996,2 hPa 0,0 mm 3,3 km/h (1 Bft) SW 225 0 min -0,6 C 8,3 km/h (2 Bft)
14.02.2016 22:29 1,0 C 0,8 C 89 % 996,2 hPa 0,0 mm 3,0 km/h (1 Bft) SW 225 0 min -0,6 C 0,0 km/h (0 Bft)
14.02.2016 22:30 1,0 C 0,8 C 89 % 996,2 hPa 0,0 mm 3,0 km/h (1 Bft) SW 225 0 min -0,6 C 0,0 km/h (0 Bft)
14.02.2016 22:31 0,9 C 0,7 C 89 % 996,2 hPa 0,0 mm 3,0 km/h (1 Bft) W-SW 247 0 min -0,7 C 6,9 km/h (2 Bft)
14.02.2016 22:32 0,9 C 0,7 C 89 % 996,2 hPa 0,0 mm 3,0 km/h (1 Bft) W-SW 247 0 min -0,7 C 6,9 km/h (2 Bft)
14.02.2016 22:33 1,0 C 0,8 C 89 % 996,2 hPa 0,0 mm 2,4 km/h (1 Bft) W-SW 247 0 min -0,6 C 3,3 km/h (1 Bft)
14.02.2016 22:34 1,0 C 0,8 C 89 % 996,2 hPa 0,0 mm 2,4 km/h (1 Bft) W-SW 247 0 min -0,6 C 3,3 km/h (1 Bft)
14.02.2016 22:35 1,0 C 0,8 C 89 % 996,2 hPa 0,0 mm 2,1 km/h (1 Bft) O-SO 112 0 min -0,6 C 0,0 km/h (0 Bft)
14.02.2016 22:36 1,0 C 0,8 C 89 % 996,2 hPa 0,0 mm 2,1 km/h (1 Bft) O-SO 112 0 min -0,6 C 0,0 km/h (0 Bft)
14.02.2016 22:37 1,0 C 0,8 C 89 % 996,2 hPa 0,0 mm 2,1 km/h (1 Bft) O-SO 112 0 min -0,6 C 0,0 km/h (0 Bft)
14.02.2016 22:38 1,0 C 0,8 C 89 % 996,2 hPa 0,0 mm 2,1 km/h (1 Bft) O-SO 112 0 min -0,6 C 0,0 km/h (0 Bft)
14.02.2016 22:39 1,0 C 0,7 C 89 % 996,2 hPa 0,0 mm 1,2 km/h (1 Bft) SO 135 0 min -0,6 C 0,0 km/h (0 Bft)
14.02.2016 22:40 1,0 C 0,7 C 89 % 996,2 hPa 0,0 mm 1,2 km/h (1 Bft) SO 135 0 min -0,6 C 0,0 km/h (0 Bft)
14.02.2016 22:41 1,0 C 0,7 C 89 % 996,2 hPa 0,0 mm 1,2 km/h (1 Bft) SO 135 0 min -0,6 C 0,0 km/h (0 Bft)
14.02.2016 22:42 1,0 C 0,7 C 89 % 996,2 hPa 0,0 mm 1,2 km/h (1 Bft) SO 135 0 min -0,6 C 0,0 km/h (0 Bft)
14.02.2016 22:43 1,0 C 0,7 C 89 % 996,2 hPa 0,0 mm 0,3 km/h (0 Bft) O-SO 112 0 min -0,6 C 0,0 km/h (0 Bft)
14.02.2016 22:44 1,0 C 0,7 C 89 % 996,2 hPa 0,0 mm 0,3 km/h (0 Bft) O-SO 112 0 min -0,6 C 0,0 km/h (0 Bft)
14.02.2016 22:45 1,0 C 0,7 C 89 % 996,2 hPa 0,0 mm 0,0 km/h (0 Bft) O-SO 112 0 min -0,6 C 0,0 km/h (0 Bft)
14.02.2016 22:46 1,0 C 0,7 C 89 % 996,2 hPa 0,0 mm 0,0 km/h (0 Bft) O-SO 112 0 min -0,6 C 0,0 km/h (0 Bft)
14.02.2016 22:47 0,9 C 0,7 C 90 % 996,2 hPa 0,0 mm 0,0 km/h (0 Bft) O 90 0 min -0,6 C 0,0 km/h (0 Bft)
14.02.2016 22:48 0,9 C 0,7 C 90 % 996,2 hPa 0,0 mm 0,0 km/h (0 Bft) O 90 0 min -0,6 C 0,0 km/h (0 Bft)
14.02.2016 22:49 0,9 C 0,7 C 90 % 996,2 hPa 0,0 mm 0,0 km/h (0 Bft) S 180 0 min -0,6 C 0,0 km/h (0 Bft)
14.02.2016 22:50 0,9 C 0,7 C 90 % 996,2 hPa 0,0 mm 0,0 km/h (0 Bft) S 180 0 min -0,6 C 0,0 km/h (0 Bft)
14.02.2016 22:51 0,8 C 0,6 C 90 % 996,2 hPa 0,0 mm 0,0 km/h (0 Bft) W-SW 247 0 min -0,6 C 0,0 km/h (0 Bft)
14.02.2016 22:52 0,8 C 0,6 C 90 % 996,2 hPa 0,0 mm 0,0 km/h (0 Bft) W-SW 247 0 min -0,6 C 0,0 km/h (0 Bft)
14.02.2016 22:53 0,8 C 0,6 C 90 % 996,2 hPa 0,0 mm 0,3 km/h (0 Bft) SW 225 0 min -0,6 C 4,2 km/h (1 Bft)
14.02.2016 22:54 0,8 C 0,6 C 90 % 996,2 hPa 0,0 mm 0,3 km/h (0 Bft) SW 225 0 min -0,6 C 4,2 km/h (1 Bft)
14.02.2016 22:55 0,8 C 0,6 C 90 % 996,2 hPa 0,0 mm 0,6 km/h (0 Bft) SW 225 0 min -0,6 C 0,0 km/h (0 Bft)
14.02.2016 22:56 0,8 C 0,6 C 90 % 996,2 hPa 0,0 mm 0,6 km/h (0 Bft) SW 225 0 min -0,6 C 0,0 km/h (0 Bft)
14.02.2016 22:57 0,8 C 0,6 C 90 % 996,2 hPa 0,0 mm 0,6 km/h (0 Bft) W-SW 247 0 min -0,6 C 0,0 km/h (0 Bft)
14.02.2016 22:58 0,8 C 0,6 C 90 % 996,2 hPa 0,0 mm 0,6 km/h (0 Bft) W-SW 247 0 min -0,6 C 0,0 km/h (0 Bft)
14.02.2016 22:59 0,8 C 0,6 C 90 % 996,2 hPa 0,0 mm 0,6 km/h (0 Bft) W-SW 247 0 min -0,6 C 0,0 km/h (0 Bft)
14.02.2016 23:00 0,8 C 0,6 C 90 % 996,2 hPa 0,0 mm 0,6 km/h (0 Bft) W-SW 247 0 min -0,6 C 0,0 km/h (0 Bft)
14.02.2016 23:01 0,7 C 0,5 C 90 % 996,2 hPa 0,0 mm 0,6 km/h (0 Bft) W-SW 247 0 min -0,7 C 3,9 km/h (1 Bft)
14.02.2016 23:02 0,7 C 0,5 C 90 % 996,2 hPa 0,0 mm 0,6 km/h (0 Bft) W-SW 247 0 min -0,7 C 3,9 km/h (1 Bft)
14.02.2016 23:03 0,8 C 0,6 C 90 % 996,4 hPa 0,0 mm 0,6 km/h (0 Bft) SW 225 0 min -0,6 C 0,0 km/h (0 Bft)
14.02.2016 23:04 0,8 C 0,6 C 90 % 996,4 hPa 0,0 mm 0,6 km/h (0 Bft) SW 225 0 min -0,6 C 0,0 km/h (0 Bft)
14.02.2016 23:05 0,8 C 0,6 C 90 % 996,4 hPa 0,0 mm 0,6 km/h (0 Bft) W-SW 247 0 min -0,6 C 4,2 km/h (1 Bft)
14.02.2016 23:06 0,8 C 0,6 C 90 % 996,4 hPa 0,0 mm 0,6 km/h (0 Bft) W-SW 247 0 min -0,6 C 4,2 km/h (1 Bft)
14.02.2016 23:07 0,8 C 0,6 C 90 % 996,4 hPa 0,0 mm 0,9 km/h (0 Bft) SO 135 0 min -0,6 C 0,0 km/h (0 Bft)
14.02.2016 23:08 0,8 C 0,6 C 90 % 996,4 hPa 0,0 mm 0,9 km/h (0 Bft) SO 135 0 min -0,6 C 0,0 km/h (0 Bft)
14.02.2016 23:09 0,8 C 0,6 C 90 % 996,4 hPa 0,0 mm 0,9 km/h (0 Bft) SO 135 0 min -0,6 C 0,0 km/h (0 Bft)
14.02.2016 23:10 0,8 C 0,6 C 90 % 996,4 hPa 0,0 mm 0,9 km/h (0 Bft) SO 135 0 min -0,6 C 0,0 km/h (0 Bft)
14.02.2016 23:11 0,9 C 0,6 C 90 % 996,4 hPa 0,0 mm 0,9 km/h (0 Bft) SO 135 0 min -0,6 C 0,0 km/h (0 Bft)
14.02.2016 23:12 0,9 C 0,6 C 90 % 996,4 hPa 0,0 mm 0,9 km/h (0 Bft) SO 135 0 min -0,6 C 0,0 km/h (0 Bft)
14.02.2016 23:13 0,9 C 0,6 C 90 % 996,4 hPa 0,0 mm 0,6 km/h (0 Bft) SO 135 0 min -0,6 C 0,0 km/h (0 Bft)
14.02.2016 23:14 0,9 C 0,6 C 90 % 996,4 hPa 0,0 mm 0,6 km/h (0 Bft) SO 135 0 min -0,6 C 0,0 km/h (0 Bft)
14.02.2016 23:15 0,9 C 0,6 C 90 % 996,4 hPa 0,0 mm 0,6 km/h (0 Bft) O-SO 112 0 min -0,6 C 0,0 km/h (0 Bft)
14.02.2016 23:16 0,9 C 0,6 C 90 % 996,4 hPa 0,0 mm 0,6 km/h (0 Bft) O-SO 112 0 min -0,6 C 0,0 km/h (0 Bft)
14.02.2016 23:17 0,9 C 0,6 C 90 % 996,4 hPa 0,0 mm 0,0 km/h (0 Bft) O 90 0 min -0,6 C 0,0 km/h (0 Bft)
14.02.2016 23:18 0,9 C 0,6 C 90 % 996,4 hPa 0,0 mm 0,0 km/h (0 Bft) O 90 0 min -0,6 C 0,0 km/h (0 Bft)
14.02.2016 23:19 0,9 C 0,6 C 90 % 996,4 hPa 0,0 mm 0,0 km/h (0 Bft) SO 135 0 min -0,6 C 0,0 km/h (0 Bft)
14.02.2016 23:20 0,9 C 0,6 C 90 % 996,4 hPa 0,0 mm 0,0 km/h (0 Bft) SO 135 0 min -0,6 C 0,0 km/h (0 Bft)
14.02.2016 23:21 0,9 C 0,6 C 91 % 996,4 hPa 0,0 mm 0,0 km/h (0 Bft) O-SO 112 0 min -0,4 C 0,0 km/h (0 Bft)
14.02.2016 23:22 0,9 C 0,6 C 91 % 996,4 hPa 0,0 mm 0,0 km/h (0 Bft) O-SO 112 0 min -0,4 C 0,0 km/h (0 Bft)
14.02.2016 23:23 0,9 C 0,6 C 91 % 996,6 hPa 0,0 mm 0,0 km/h (0 Bft) O-SO 112 0 min -0,4 C 0,0 km/h (0 Bft)
14.02.2016 23:24 0,9 C 0,6 C 91 % 996,6 hPa 0,0 mm 0,0 km/h (0 Bft) O-SO 112 0 min -0,4 C 0,0 km/h (0 Bft)
14.02.2016 23:25 0,9 C 0,6 C 91 % 996,6 hPa 0,0 mm 0,0 km/h (0 Bft) O-NO 67 0 min -0,4 C 0,0 km/h (0 Bft)
14.02.2016 23:26 0,9 C 0,6 C 91 % 996,6 hPa 0,0 mm 0,0 km/h (0 Bft) O-NO 67 0 min -0,4 C 0,0 km/h (0 Bft)
14.02.2016 23:27 0,9 C 0,6 C 91 % 996,6 hPa 0,0 mm 0,0 km/h (0 Bft) O-NO 67 0 min -0,4 C 0,0 km/h (0 Bft)
14.02.2016 23:28 0,9 C 0,6 C 91 % 996,6 hPa 0,0 mm 0,0 km/h (0 Bft) O-NO 67 0 min -0,4 C 0,0 km/h (0 Bft)
14.02.2016 23:29 0,8 C 0,6 C 91 % 996,6 hPa 0,0 mm 0,0 km/h (0 Bft) SW 225 0 min -0,5 C 0,0 km/h (0 Bft)
14.02.2016 23:30 0,8 C 0,6 C 91 % 996,6 hPa 0,0 mm 0,0 km/h (0 Bft) SW 225 0 min -0,5 C 0,0 km/h (0 Bft)
14.02.2016 23:31 0,8 C 0,6 C 91 % 996,6 hPa 0,0 mm 0,0 km/h (0 Bft) O-NO 67 0 min -0,5 C 0,0 km/h (0 Bft)
14.02.2016 23:32 0,8 C 0,6 C 91 % 996,6 hPa 0,0 mm 0,0 km/h (0 Bft) O-NO 67 0 min -0,5 C 0,0 km/h (0 Bft)
14.02.2016 23:33 0,8 C 0,5 C 91 % 996,6 hPa 0,0 mm 0,0 km/h (0 Bft) O-NO 67 0 min -0,5 C 0,0 km/h (0 Bft)
14.02.2016 23:34 0,8 C 0,5 C 91 % 996,6 hPa 0,0 mm 0,0 km/h (0 Bft) O-NO 67 0 min -0,5 C 0,0 km/h (0 Bft)
14.02.2016 23:35 0,8 C 0,5 C 91 % 996,6 hPa 0,0 mm 0,0 km/h (0 Bft) O-SO 112 0 min -0,5 C 0,0 km/h (0 Bft)
14.02.2016 23:36 0,8 C 0,5 C 91 % 996,6 hPa 0,0 mm 0,0 km/h (0 Bft) O-SO 112 0 min -0,5 C 0,0 km/h (0 Bft)
14.02.2016 23:37 0,8 C 0,5 C 91 % 996,6 hPa 0,0 mm 0,0 km/h (0 Bft) SO 135 0 min -0,5 C 0,0 km/h (0 Bft)
14.02.2016 23:38 0,8 C 0,5 C 91 % 996,6 hPa 0,0 mm 0,0 km/h (0 Bft) SO 135 0 min -0,5 C 0,0 km/h (0 Bft)
14.02.2016 23:39 0,8 C 0,5 C 91 % 996,6 hPa 0,0 mm 0,0 km/h (0 Bft) SO 135 0 min -0,5 C 0,0 km/h (0 Bft)
14.02.2016 23:40 0,8 C 0,5 C 91 % 996,6 hPa 0,0 mm 0,0 km/h (0 Bft) SO 135 0 min -0,5 C 0,0 km/h (0 Bft)
14.02.2016 23:41 0,8 C 0,5 C 91 % 996,6 hPa 0,0 mm 0,0 km/h (0 Bft) O-NO 67 0 min -0,5 C 0,0 km/h (0 Bft)
14.02.2016 23:42 0,8 C 0,5 C 91 % 996,6 hPa 0,0 mm 0,0 km/h (0 Bft) O-NO 67 0 min -0,5 C 0,0 km/h (0 Bft)
14.02.2016 23:43 0,7 C 0,4 C 91 % 997,0 hPa 0,0 mm 0,0 km/h (0 Bft) O-NO 67 0 min -0,6 C 0,0 km/h (0 Bft)
14.02.2016 23:44 0,7 C 0,4 C 91 % 997,0 hPa 0,0 mm 0,0 km/h (0 Bft) O-NO 67 0 min -0,6 C 0,0 km/h (0 Bft)
14.02.2016 23:45 0,7 C 0,4 C 91 % 997,0 hPa 0,0 mm 0,0 km/h (0 Bft) O-NO 67 0 min -0,6 C 0,0 km/h (0 Bft)
14.02.2016 23:46 0,7 C 0,4 C 91 % 997,0 hPa 0,0 mm 0,0 km/h (0 Bft) O-NO 67 0 min -0,6 C 0,0 km/h (0 Bft)
14.02.2016 23:47 0,6 C 0,3 C 91 % 997,0 hPa 0,0 mm 0,0 km/h (0 Bft) O-NO 67 0 min -0,7 C 0,0 km/h (0 Bft)
14.02.2016 23:48 0,6 C 0,3 C 91 % 997,0 hPa 0,0 mm 0,0 km/h (0 Bft) O-NO 67 0 min -0,7 C 0,0 km/h (0 Bft)
14.02.2016 23:49 0,6 C 0,3 C 91 % 997,0 hPa 0,0 mm 0,0 km/h (0 Bft) O-NO 67 0 min -0,7 C 0,0 km/h (0 Bft)
14.02.2016 23:50 0,6 C 0,3 C 91 % 997,0 hPa 0,0 mm 0,0 km/h (0 Bft) O-NO 67 0 min -0,7 C 0,0 km/h (0 Bft)
14.02.2016 23:51 0,6 C 0,3 C 91 % 997,0 hPa 0,0 mm 0,0 km/h (0 Bft) W-SW 247 0 min -0,7 C 0,0 km/h (0 Bft)
14.02.2016 23:52 0,6 C 0,3 C 91 % 997,0 hPa 0,0 mm 0,0 km/h (0 Bft) W-SW 247 0 min -0,7 C 0,0 km/h (0 Bft)
14.02.2016 23:53 0,6 C 0,3 C 91 % 997,0 hPa 0,0 mm 0,0 km/h (0 Bft) W-NW 292 0 min -0,7 C 0,0 km/h (0 Bft)
14.02.2016 23:54 0,6 C 0,3 C 91 % 997,0 hPa 0,0 mm 0,0 km/h (0 Bft) W-NW 292 0 min -0,7 C 0,0 km/h (0 Bft)
14.02.2016 23:55 0,6 C 0,3 C 91 % 997,0 hPa 0,0 mm 0,0 km/h (0 Bft) W 270 0 min -0,7 C 0,0 km/h (0 Bft)
14.02.2016 23:56 0,6 C 0,3 C 91 % 997,0 hPa 0,0 mm 0,0 km/h (0 Bft) W 270 0 min -0,7 C 0,0 km/h (0 Bft)
14.02.2016 23:57 0,6 C 0,3 C 91 % 997,0 hPa 0,0 mm 0,0 km/h (0 Bft) W-NW 292 0 min -0,7 C 0,0 km/h (0 Bft)
14.02.2016 23:58 0,6 C 0,3 C 91 % 997,0 hPa 0,0 mm 0,0 km/h (0 Bft) W-NW 292 0 min -0,7 C 0,0 km/h (0 Bft)
14.02.2016 23:59 0,6 C 0,3 C 91 % 997,0 hPa 0,0 mm 0,0 km/h (0 Bft) NW 315 0 min -0,7 C 0,0 km/h (0 Bft)
_ Min-Zeit 08:12 08:02 14:45 14:22 - 23:59 - - - 06:50 23:59
Minimum _ -1,6 C -2,1 C 50 % 987,2 hPa - 0,0 km/h (0 Bft) - - - -5,7 C 0,0 km/h (0 Bft)
_ Max-Zeit 15:04 10:36 23:59 23:59 21:21 00:58 - - 11:40 17:04 00:54
Maximum _ 9,3 C 12,4 C 91 % 997,0 hPa 0,7 mm 27,1 km/h
W (4 Bft)
- - 1 min 0,7 C 46,5 km/h
W (6 Bft)
Durchschnitt _ 3,2 C 3,4 C 70 % 992,2 hPa #4,8 mm 5,8 km/h (2 Bft) W-SW - #1:14 h -1,9 C 7,6 km/h (2 Bft)